Wetterdaten: Sonntag, 22.01.2023
Datum Zeit Temp. 2m Temp +5 cm Feuchte A. Luftdruck Regen Wind Richtung Richtung Sonnenschein UV Solar Taupunkt Windchill Windben
22.01.2023 00:00 -2,7 C -2,8 C 89 % 1032,4 hPa 0,0 l/m 19,3 km/h (3 Bft) N-NW 337 0 min 0,0 UV-I 0 W/m -4,3 C -12,8 C 22,5 km/h (4 Bft)
22.01.2023 00:01 -2,7 C -2,8 C 89 % 1032,4 hPa 0,0 l/m 17,7 km/h (3 Bft) N 360 0 min 0,0 UV-I 0 W/m -4,3 C -11,9 C 24,1 km/h (4 Bft)
22.01.2023 00:02 -2,7 C -2,8 C 89 % 1032,4 hPa 0,0 l/m 16,1 km/h (3 Bft) N 360 0 min 0,0 UV-I 0 W/m -4,3 C -10,9 C 27,4 km/h (4 Bft)
22.01.2023 00:03 -2,7 C -2,8 C 89 % 1032,5 hPa 0,0 l/m 19,3 km/h (3 Bft) N 360 0 min 0,0 UV-I 0 W/m -4,3 C -12,8 C 24,1 km/h (4 Bft)
22.01.2023 00:04 -2,7 C -2,8 C 89 % 1032,5 hPa 0,0 l/m 17,7 km/h (3 Bft) N 360 0 min 0,0 UV-I 0 W/m -4,3 C -11,9 C 24,1 km/h (4 Bft)
22.01.2023 00:05 -2,7 C -2,8 C 89 % 1032,4 hPa 0,0 l/m 17,7 km/h (3 Bft) N 360 0 min 0,0 UV-I 0 W/m -4,3 C -11,9 C 24,1 km/h (4 Bft)
22.01.2023 00:06 -2,7 C -2,8 C 89 % 1032,5 hPa 0,0 l/m 22,5 km/h (4 Bft) N-NW 337 0 min 0,0 UV-I 0 W/m -4,3 C -14,3 C 30,6 km/h (5 Bft)
22.01.2023 00:07 -2,7 C -2,8 C 89 % 1032,4 hPa 0,0 l/m 20,9 km/h (4 Bft) N 360 0 min 0,0 UV-I 0 W/m -4,3 C -13,6 C 27,4 km/h (4 Bft)
22.01.2023 00:08 -2,7 C -2,8 C 89 % 1032,4 hPa 0,0 l/m 17,7 km/h (3 Bft) N 360 0 min 0,0 UV-I 0 W/m -4,3 C -11,9 C 27,4 km/h (4 Bft)
22.01.2023 00:09 -2,7 C -2,8 C 89 % 1032,4 hPa 0,0 l/m 16,1 km/h (3 Bft) N 360 0 min 0,0 UV-I 0 W/m -4,3 C -10,9 C 22,5 km/h (4 Bft)
22.01.2023 00:10 -2,7 C -2,8 C 89 % 1032,3 hPa 0,0 l/m 16,1 km/h (3 Bft) N 360 0 min 0,0 UV-I 0 W/m -4,3 C -10,9 C 20,9 km/h (4 Bft)
22.01.2023 00:11 -2,7 C -2,8 C 89 % 1032,4 hPa 0,0 l/m 19,3 km/h (3 Bft) N 360 0 min 0,0 UV-I 0 W/m -4,3 C -12,8 C 25,7 km/h (4 Bft)
22.01.2023 00:12 -2,7 C -2,8 C 89 % 1032,5 hPa 0,0 l/m 19,3 km/h (3 Bft) N 360 0 min 0,0 UV-I 0 W/m -4,3 C -12,8 C 24,1 km/h (4 Bft)
22.01.2023 00:13 -2,7 C -2,8 C 89 % 1032,5 hPa 0,0 l/m 16,1 km/h (3 Bft) N 360 0 min 0,0 UV-I 0 W/m -4,3 C -10,9 C 25,7 km/h (4 Bft)
22.01.2023 00:14 -2,7 C -2,8 C 89 % 1032,4 hPa 0,0 l/m 20,9 km/h (4 Bft) N 360 0 min 0,0 UV-I 0 W/m -4,3 C -13,6 C 25,7 km/h (4 Bft)
22.01.2023 00:15 -2,7 C -2,8 C 89 % 1032,3 hPa 0,0 l/m 19,3 km/h (3 Bft) N-NW 337 0 min 0,0 UV-I 0 W/m -4,3 C -12,8 C 24,1 km/h (4 Bft)
22.01.2023 00:16 -2,7 C -2,8 C 89 % 1032,4 hPa 0,0 l/m 22,5 km/h (4 Bft) N-NW 337 0 min 0,0 UV-I 0 W/m -4,3 C -14,3 C 27,4 km/h (4 Bft)
22.01.2023 00:17 -2,7 C -2,8 C 89 % 1032,5 hPa 0,0 l/m 19,3 km/h (3 Bft) N-NW 337 0 min 0,0 UV-I 0 W/m -4,3 C -12,8 C 25,7 km/h (4 Bft)
22.01.2023 00:18 -2,7 C -2,8 C 89 % 1032,3 hPa 0,0 l/m 19,3 km/h (3 Bft) N 360 0 min 0,0 UV-I 0 W/m -4,3 C -12,8 C 27,4 km/h (4 Bft)
22.01.2023 00:19 -2,6 C -2,8 C 89 % 1032,3 hPa 0,0 l/m 20,9 km/h (4 Bft) N 360 0 min 0,0 UV-I 0 W/m -4,2 C -13,4 C 25,7 km/h (4 Bft)
22.01.2023 00:20 -2,6 C -2,8 C 89 % 1032,3 hPa 0,0 l/m 20,9 km/h (4 Bft) N 360 0 min 0,0 UV-I 0 W/m -4,2 C -13,4 C 25,7 km/h (4 Bft)
22.01.2023 00:21 -2,6 C -2,8 C 89 % 1032,4 hPa 0,0 l/m 20,9 km/h (4 Bft) N 360 0 min 0,0 UV-I 0 W/m -4,2 C -13,4 C 30,6 km/h (5 Bft)
22.01.2023 00:22 -2,6 C -2,8 C 89 % 1032,4 hPa 0,0 l/m 16,1 km/h (3 Bft) N 360 0 min 0,0 UV-I 0 W/m -4,2 C -10,8 C 27,4 km/h (4 Bft)
22.01.2023 00:23 -2,6 C -2,8 C 89 % 1032,4 hPa 0,0 l/m 22,5 km/h (4 Bft) N-NW 337 0 min 0,0 UV-I 0 W/m -4,2 C -14,2 C 27,4 km/h (4 Bft)
22.01.2023 00:24 -2,6 C -2,8 C 89 % 1032,3 hPa 0,0 l/m 20,9 km/h (4 Bft) N-NW 337 0 min 0,0 UV-I 0 W/m -4,2 C -13,4 C 29,0 km/h (5 Bft)
22.01.2023 00:25 -2,6 C -2,8 C 89 % 1032,3 hPa 0,0 l/m 25,7 km/h (4 Bft) N-NW 337 0 min 0,0 UV-I 0 W/m -4,2 C -15,5 C 33,8 km/h (5 Bft)
22.01.2023 00:26 -2,6 C -2,8 C 89 % 1032,4 hPa 0,0 l/m 27,4 km/h (4 Bft) N-NW 337 0 min 0,0 UV-I 0 W/m -4,2 C -16,2 C 33,8 km/h (5 Bft)
22.01.2023 00:27 -2,6 C -2,8 C 89 % 1032,4 hPa 0,0 l/m 22,5 km/h (4 Bft) N 360 0 min 0,0 UV-I 0 W/m -4,2 C -14,2 C 33,8 km/h (5 Bft)
22.01.2023 00:28 -2,6 C -2,8 C 89 % 1032,3 hPa 0,0 l/m 19,3 km/h (3 Bft) N 360 0 min 0,0 UV-I 0 W/m -4,2 C -12,6 C 22,5 km/h (4 Bft)
22.01.2023 00:29 -2,5 C -2,8 C 89 % 1032,3 hPa 0,0 l/m 17,7 km/h (3 Bft) N-NW 337 0 min 0,0 UV-I 0 W/m -4,1 C -11,6 C 20,9 km/h (4 Bft)
22.01.2023 00:30 -2,5 C -2,8 C 89 % 1032,1 hPa 0,0 l/m 19,3 km/h (3 Bft) N 360 0 min 0,0 UV-I 0 W/m -4,1 C -12,5 C 30,6 km/h (5 Bft)
22.01.2023 00:31 -2,5 C -2,8 C 89 % 1032,2 hPa 0,0 l/m 11,3 km/h (2 Bft) N 360 0 min 0,0 UV-I 0 W/m -4,1 C -7,3 C 16,1 km/h (3 Bft)
22.01.2023 00:32 -2,6 C -2,8 C 89 % 1032,1 hPa 0,0 l/m 14,5 km/h (3 Bft) N 360 0 min 0,0 UV-I 0 W/m -4,2 C -9,8 C 20,9 km/h (4 Bft)
22.01.2023 00:33 -2,6 C -2,2 C 89 % 1032,1 hPa 0,0 l/m 20,9 km/h (4 Bft) N 360 0 min 0,0 UV-I 0 W/m -4,2 C -13,4 C 27,4 km/h (4 Bft)
22.01.2023 00:34 -2,6 C -2,8 C 89 % 1032,1 hPa 0,0 l/m 20,9 km/h (4 Bft) N 360 0 min 0,0 UV-I 0 W/m -4,2 C -13,4 C 27,4 km/h (4 Bft)
22.01.2023 00:35 -2,5 C -2,8 C 89 % 1032,2 hPa 0,0 l/m 16,1 km/h (3 Bft) N 360 0 min 0,0 UV-I 0 W/m -4,1 C -10,7 C 20,9 km/h (4 Bft)
22.01.2023 00:36 -2,5 C -2,8 C 89 % 1032,3 hPa 0,0 l/m 12,9 km/h (3 Bft) N 360 0 min 0,0 UV-I 0 W/m -4,1 C -8,6 C 17,7 km/h (3 Bft)
22.01.2023 00:37 -2,5 C -2,2 C 89 % 1032,2 hPa 0,0 l/m 20,9 km/h (4 Bft) N 360 0 min 0,0 UV-I 0 W/m -4,1 C -13,3 C 27,4 km/h (4 Bft)
22.01.2023 00:38 -2,5 C -2,8 C 89 % 1032,2 hPa 0,0 l/m 20,9 km/h (4 Bft) N 360 0 min 0,0 UV-I 0 W/m -4,1 C -13,3 C 29,0 km/h (5 Bft)
22.01.2023 00:39 -2,6 C -2,8 C 89 % 1032,2 hPa 0,0 l/m 19,3 km/h (3 Bft) N 360 0 min 0,0 UV-I 0 W/m -4,2 C -12,6 C 27,4 km/h (4 Bft)
22.01.2023 00:40 -2,6 C -2,8 C 89 % 1032,2 hPa 0,0 l/m 20,9 km/h (4 Bft) N 360 0 min 0,0 UV-I 0 W/m -4,2 C -13,4 C 27,4 km/h (4 Bft)
22.01.2023 00:41 -2,5 C -2,8 C 89 % 1032,2 hPa 0,0 l/m 17,7 km/h (3 Bft) N 360 0 min 0,0 UV-I 0 W/m -4,1 C -11,6 C 25,7 km/h (4 Bft)
22.01.2023 00:42 -2,5 C -2,8 C 89 % 1032,2 hPa 0,0 l/m 24,1 km/h (4 Bft) N-NW 337 0 min 0,0 UV-I 0 W/m -4,1 C -14,7 C 29,0 km/h (5 Bft)
22.01.2023 00:43 -2,5 C -2,8 C 89 % 1032,1 hPa 0,0 l/m 19,3 km/h (3 Bft) N 360 0 min 0,0 UV-I 0 W/m -4,1 C -12,5 C 27,4 km/h (4 Bft)
22.01.2023 00:44 -2,5 C -2,8 C 89 % 1032,1 hPa 0,0 l/m 19,3 km/h (3 Bft) N 360 0 min 0,0 UV-I 0 W/m -4,1 C -12,5 C 24,1 km/h (4 Bft)
22.01.2023 00:45 -2,5 C -2,8 C 89 % 1032,1 hPa 0,0 l/m 22,5 km/h (4 Bft) N 360 0 min 0,0 UV-I 0 W/m -4,1 C -14,0 C 29,0 km/h (5 Bft)
22.01.2023 00:46 -2,5 C -2,8 C 89 % 1032,2 hPa 0,0 l/m 25,7 km/h (4 Bft) N-NW 337 0 min 0,0 UV-I 0 W/m -4,1 C -15,4 C 29,0 km/h (5 Bft)
22.01.2023 00:47 -2,5 C -2,8 C 89 % 1032,1 hPa 0,0 l/m 17,7 km/h (3 Bft) N 360 0 min 0,0 UV-I 0 W/m -4,1 C -11,6 C 24,1 km/h (4 Bft)
22.01.2023 00:48 -2,5 C -2,8 C 89 % 1032,2 hPa 0,0 l/m 19,3 km/h (3 Bft) N 360 0 min 0,0 UV-I 0 W/m -4,1 C -12,5 C 24,1 km/h (4 Bft)
22.01.2023 00:49 -2,5 C -2,8 C 89 % 1032,1 hPa 0,0 l/m 19,3 km/h (3 Bft) N 360 0 min 0,0 UV-I 0 W/m -4,1 C -12,5 C 24,1 km/h (4 Bft)
22.01.2023 00:50 -2,5 C -2,8 C 89 % 1032,2 hPa 0,0 l/m 22,5 km/h (4 Bft) N-NW 337 0 min 0,0 UV-I 0 W/m -4,1 C -14,0 C 30,6 km/h (5 Bft)
22.01.2023 00:51 -2,5 C -2,8 C 89 % 1032,1 hPa 0,0 l/m 24,1 km/h (4 Bft) N-NW 337 0 min 0,0 UV-I 0 W/m -4,1 C -14,7 C 30,6 km/h (5 Bft)
22.01.2023 00:52 -2,5 C -2,8 C 89 % 1032,2 hPa 0,0 l/m 22,5 km/h (4 Bft) N-NW 337 0 min 0,0 UV-I 0 W/m -4,1 C -14,0 C 27,4 km/h (4 Bft)
22.01.2023 00:53 -2,5 C -2,8 C 89 % 1032,2 hPa 0,0 l/m 19,3 km/h (3 Bft) N 360 0 min 0,0 UV-I 0 W/m -4,1 C -12,5 C 33,8 km/h (5 Bft)
22.01.2023 00:54 -2,5 C -2,8 C 89 % 1032,1 hPa 0,0 l/m 25,7 km/h (4 Bft) N-NW 337 0 min 0,0 UV-I 0 W/m -4,1 C -15,4 C 29,0 km/h (5 Bft)
22.01.2023 00:55 -2,5 C -2,8 C 89 % 1032,1 hPa 0,0 l/m 22,5 km/h (4 Bft) N 360 0 min 0,0 UV-I 0 W/m -4,1 C -14,0 C 27,4 km/h (4 Bft)
22.01.2023 00:56 -2,4 C -2,8 C 89 % 1032,1 hPa 0,0 l/m 20,9 km/h (4 Bft) N 360 0 min 0,0 UV-I 0 W/m -4,0 C -13,2 C 25,7 km/h (4 Bft)
22.01.2023 00:57 -2,4 C -2,8 C 89 % 1032,0 hPa 0,0 l/m 14,5 km/h (3 Bft) N 360 0 min 0,0 UV-I 0 W/m -4,0 C -9,6 C 22,5 km/h (4 Bft)
22.01.2023 00:58 -2,4 C -2,8 C 89 % 1032,2 hPa 0,0 l/m 17,7 km/h (3 Bft) N 360 0 min 0,0 UV-I 0 W/m -4,0 C -11,5 C 22,5 km/h (4 Bft)
22.01.2023 00:59 -2,4 C -2,8 C 89 % 1032,1 hPa 0,0 l/m 17,7 km/h (3 Bft) N 360 0 min 0,0 UV-I 0 W/m -4,0 C -11,5 C 24,1 km/h (4 Bft)
22.01.2023 01:00 -2,4 C -2,8 C 89 % 1032,0 hPa 0,0 l/m 17,7 km/h (3 Bft) N 360 0 min 0,0 UV-I 0 W/m -4,0 C -11,5 C 22,5 km/h (4 Bft)
22.01.2023 01:01 -2,4 C -2,8 C 89 % 1032,1 hPa 0,0 l/m 17,7 km/h (3 Bft) N 360 0 min 0,0 UV-I 0 W/m -4,0 C -11,5 C 22,5 km/h (4 Bft)
22.01.2023 01:02 -2,4 C -2,8 C 89 % 1032,2 hPa 0,0 l/m 22,5 km/h (4 Bft) N 360 0 min 0,0 UV-I 0 W/m -4,0 C -13,9 C 30,6 km/h (5 Bft)
22.01.2023 01:03 -2,4 C -2,8 C 89 % 1032,0 hPa 0,0 l/m 20,9 km/h (4 Bft) N 360 0 min 0,0 UV-I 0 W/m -4,0 C -13,2 C 32,2 km/h (5 Bft)
22.01.2023 01:04 -2,4 C -2,8 C 89 % 1032,1 hPa 0,0 l/m 27,4 km/h (4 Bft) N 360 0 min 0,0 UV-I 0 W/m -4,0 C -15,9 C 32,2 km/h (5 Bft)
22.01.2023 01:05 -2,4 C -2,8 C 88 % 1032,0 hPa 0,0 l/m 20,9 km/h (4 Bft) N 360 0 min 0,0 UV-I 0 W/m -4,1 C -13,2 C 29,0 km/h (5 Bft)
22.01.2023 01:06 -2,4 C -2,8 C 88 % 1032,1 hPa 0,0 l/m 14,5 km/h (3 Bft) N 360 0 min 0,0 UV-I 0 W/m -4,1 C -9,6 C 24,1 km/h (4 Bft)
22.01.2023 01:07 -2,4 C -2,8 C 89 % 1032,0 hPa 0,0 l/m 16,1 km/h (3 Bft) N 360 0 min 0,0 UV-I 0 W/m -4,0 C -10,6 C 20,9 km/h (4 Bft)
22.01.2023 01:08 -2,4 C -2,8 C 89 % 1032,1 hPa 0,0 l/m 22,5 km/h (4 Bft) N-NW 337 0 min 0,0 UV-I 0 W/m -4,0 C -13,9 C 29,0 km/h (5 Bft)
22.01.2023 01:09 -2,4 C -2,8 C 89 % 1032,0 hPa 0,0 l/m 19,3 km/h (3 Bft) N 360 0 min 0,0 UV-I 0 W/m -4,0 C -12,4 C 24,1 km/h (4 Bft)
22.01.2023 01:10 -2,4 C -2,8 C 89 % 1032,0 hPa 0,0 l/m 19,3 km/h (3 Bft) N 360 0 min 0,0 UV-I 0 W/m -4,0 C -12,4 C 22,5 km/h (4 Bft)
22.01.2023 01:11 -2,4 C -2,8 C 89 % 1032,0 hPa 0,0 l/m 17,7 km/h (3 Bft) N 360 0 min 0,0 UV-I 0 W/m -4,0 C -11,5 C 29,0 km/h (5 Bft)
22.01.2023 01:12 -2,4 C -2,8 C 89 % 1032,0 hPa 0,0 l/m 20,9 km/h (4 Bft) N 360 0 min 0,0 UV-I 0 W/m -4,0 C -13,2 C 27,4 km/h (4 Bft)
22.01.2023 01:13 -2,4 C -2,8 C 89 % 1032,1 hPa 0,0 l/m 19,3 km/h (3 Bft) N 360 0 min 0,0 UV-I 0 W/m -4,0 C -12,4 C 22,5 km/h (4 Bft)
22.01.2023 01:14 -2,4 C -2,8 C 89 % 1032,1 hPa 0,0 l/m 14,5 km/h (3 Bft) N 360 0 min 0,0 UV-I 0 W/m -4,0 C -9,6 C 20,9 km/h (4 Bft)
22.01.2023 01:15 -2,4 C -2,8 C 89 % 1032,1 hPa 0,0 l/m 17,7 km/h (3 Bft) N 360 0 min 0,0 UV-I 0 W/m -4,0 C -11,5 C 24,1 km/h (4 Bft)
22.01.2023 01:16 -2,4 C -2,8 C 89 % 1032,0 hPa 0,0 l/m 17,7 km/h (3 Bft) N-NO 22 0 min 0,0 UV-I 0 W/m -4,0 C -11,5 C 24,1 km/h (4 Bft)
22.01.2023 01:17 -2,4 C -2,8 C 89 % 1032,0 hPa 0,0 l/m 16,1 km/h (3 Bft) N 360 0 min 0,0 UV-I 0 W/m -4,0 C -10,6 C 19,3 km/h (3 Bft)
22.01.2023 01:18 -2,4 C -2,2 C 89 % 1031,9 hPa 0,0 l/m 12,9 km/h (3 Bft) N-NW 337 0 min 0,0 UV-I 0 W/m -4,0 C -8,4 C 17,7 km/h (3 Bft)
22.01.2023 01:19 -2,4 C -2,2 C 89 % 1032,0 hPa 0,0 l/m 17,7 km/h (3 Bft) N 360 0 min 0,0 UV-I 0 W/m -4,0 C -11,5 C 25,7 km/h (4 Bft)
22.01.2023 01:20 -2,4 C -2,2 C 88 % 1031,9 hPa 0,0 l/m 25,7 km/h (4 Bft) N 360 0 min 0,0 UV-I 0 W/m -4,1 C -15,2 C 33,8 km/h (5 Bft)
22.01.2023 01:21 -2,4 C -2,2 C 89 % 1031,8 hPa 0,0 l/m 20,9 km/h (4 Bft) N 360 0 min 0,0 UV-I 0 W/m -4,0 C -13,2 C 27,4 km/h (4 Bft)
22.01.2023 01:22 -2,4 C -2,8 C 88 % 1031,8 hPa 0,0 l/m 14,5 km/h (3 Bft) N 360 0 min 0,0 UV-I 0 W/m -4,1 C -9,6 C 27,4 km/h (4 Bft)
22.01.2023 01:23 -2,4 C -2,8 C 89 % 1032,0 hPa 0,0 l/m 16,1 km/h (3 Bft) N 360 0 min 0,0 UV-I 0 W/m -4,0 C -10,6 C 22,5 km/h (4 Bft)
22.01.2023 01:24 -2,4 C -2,8 C 89 % 1031,9 hPa 0,0 l/m 14,5 km/h (3 Bft) N 360 0 min 0,0 UV-I 0 W/m -4,0 C -9,6 C 19,3 km/h (3 Bft)
22.01.2023 01:25 -2,4 C -2,2 C 89 % 1032,0 hPa 0,0 l/m 20,9 km/h (4 Bft) N 360 0 min 0,0 UV-I 0 W/m -4,0 C -13,2 C 25,7 km/h (4 Bft)
22.01.2023 01:26 -2,4 C -2,2 C 89 % 1031,9 hPa 0,0 l/m 17,7 km/h (3 Bft) N 360 0 min 0,0 UV-I 0 W/m -4,0 C -11,5 C 22,5 km/h (4 Bft)
22.01.2023 01:27 -2,4 C -2,2 C 89 % 1031,8 hPa 0,0 l/m 17,7 km/h (3 Bft) N 360 0 min 0,0 UV-I 0 W/m -4,0 C -11,5 C 25,7 km/h (4 Bft)
22.01.2023 01:28 -2,4 C -2,2 C 89 % 1032,0 hPa 0,0 l/m 19,3 km/h (3 Bft) N 360 0 min 0,0 UV-I 0 W/m -4,0 C -12,4 C 27,4 km/h (4 Bft)
22.01.2023 01:29 -2,4 C -2,2 C 89 % 1031,8 hPa 0,0 l/m 20,9 km/h (4 Bft) N 360 0 min 0,0 UV-I 0 W/m -4,0 C -13,2 C 25,7 km/h (4 Bft)
22.01.2023 01:30 -2,4 C -2,2 C 89 % 1031,8 hPa 0,0 l/m 22,5 km/h (4 Bft) N 360 0 min 0,0 UV-I 0 W/m -4,0 C -13,9 C 30,6 km/h (5 Bft)
22.01.2023 01:31 -2,4 C -2,8 C 89 % 1031,8 hPa 0,0 l/m 22,5 km/h (4 Bft) N 360 0 min 0,0 UV-I 0 W/m -4,0 C -13,9 C 32,2 km/h (5 Bft)
22.01.2023 01:32 -2,4 C -2,8 C 89 % 1031,8 hPa 0,0 l/m 24,1 km/h (4 Bft) N 360 0 min 0,0 UV-I 0 W/m -4,0 C -14,6 C 30,6 km/h (5 Bft)
22.01.2023 01:33 -2,4 C -2,8 C 89 % 1031,8 hPa 0,0 l/m 22,5 km/h (4 Bft) N 360 0 min 0,0 UV-I 0 W/m -4,0 C -13,9 C 32,2 km/h (5 Bft)
22.01.2023 01:34 -2,4 C -2,8 C 89 % 1032,0 hPa 0,0 l/m 20,9 km/h (4 Bft) N 360 0 min 0,0 UV-I 0 W/m -4,0 C -13,2 C 24,1 km/h (4 Bft)
22.01.2023 01:35 -2,4 C -2,8 C 89 % 1032,0 hPa 0,0 l/m 16,1 km/h (3 Bft) N 360 0 min 0,0 UV-I 0 W/m -4,0 C -10,6 C 25,7 km/h (4 Bft)
22.01.2023 01:36 -2,4 C -2,8 C 89 % 1031,8 hPa 0,0 l/m 16,1 km/h (3 Bft) N 360 0 min 0,0 UV-I 0 W/m -4,0 C -10,6 C 24,1 km/h (4 Bft)
22.01.2023 01:37 -2,4 C -2,2 C 89 % 1031,7 hPa 0,0 l/m 19,3 km/h (3 Bft) N 360 0 min 0,0 UV-I 0 W/m -4,0 C -12,4 C 25,7 km/h (4 Bft)
22.01.2023 01:38 -2,4 C -2,2 C 89 % 1031,9 hPa 0,0 l/m 25,7 km/h (4 Bft) N 360 0 min 0,0 UV-I 0 W/m -4,0 C -15,2 C 33,8 km/h (5 Bft)
22.01.2023 01:39 -2,4 C -2,8 C 89 % 1031,8 hPa 0,0 l/m 20,9 km/h (4 Bft) N 360 0 min 0,0 UV-I 0 W/m -4,0 C -13,2 C 30,6 km/h (5 Bft)
22.01.2023 01:40 -2,4 C -2,8 C 89 % 1031,8 hPa 0,0 l/m 20,9 km/h (4 Bft) N 360 0 min 0,0 UV-I 0 W/m -4,0 C -13,2 C 25,7 km/h (4 Bft)
22.01.2023 01:41 -2,4 C -2,2 C 89 % 1031,8 hPa 0,0 l/m 16,1 km/h (3 Bft) N 360 0 min 0,0 UV-I 0 W/m -4,0 C -10,6 C 22,5 km/h (4 Bft)
22.01.2023 01:42 -2,4 C -2,2 C 89 % 1031,7 hPa 0,0 l/m 17,7 km/h (3 Bft) N 360 0 min 0,0 UV-I 0 W/m -4,0 C -11,5 C 25,7 km/h (4 Bft)
22.01.2023 01:43 -2,4 C -2,2 C 89 % 1031,6 hPa 0,0 l/m 16,1 km/h (3 Bft) N 360 0 min 0,0 UV-I 0 W/m -4,0 C -10,6 C 20,9 km/h (4 Bft)
22.01.2023 01:44 -2,4 C -2,2 C 89 % 1031,6 hPa 0,0 l/m 11,3 km/h (2 Bft) N 360 0 min 0,0 UV-I 0 W/m -4,0 C -7,2 C 16,1 km/h (3 Bft)
22.01.2023 01:45 -2,4 C -2,2 C 89 % 1031,7 hPa 0,0 l/m 20,9 km/h (4 Bft) N 360 0 min 0,0 UV-I 0 W/m -4,0 C -13,2 C 27,4 km/h (4 Bft)
22.01.2023 01:46 -2,4 C -2,2 C 89 % 1031,6 hPa 0,0 l/m 24,1 km/h (4 Bft) N 360 0 min 0,0 UV-I 0 W/m -4,0 C -14,6 C 29,0 km/h (5 Bft)
22.01.2023 01:47 -2,4 C -2,8 C 89 % 1031,5 hPa 0,0 l/m 29,0 km/h (5 Bft) N 360 0 min 0,0 UV-I 0 W/m -4,0 C -16,4 C 35,4 km/h (5 Bft)
22.01.2023 01:48 -2,4 C -2,8 C 89 % 1031,6 hPa 0,0 l/m 20,9 km/h (4 Bft) N 360 0 min 0,0 UV-I 0 W/m -4,0 C -13,2 C 27,4 km/h (4 Bft)
22.01.2023 01:49 -2,4 C -2,8 C 89 % 1031,5 hPa 0,0 l/m 20,9 km/h (4 Bft) N 360 0 min 0,0 UV-I 0 W/m -4,0 C -13,2 C 35,4 km/h (5 Bft)
22.01.2023 01:50 -2,4 C -2,8 C 89 % 1031,5 hPa 0,0 l/m 20,9 km/h (4 Bft) N 360 0 min 0,0 UV-I 0 W/m -4,0 C -13,2 C 29,0 km/h (5 Bft)
22.01.2023 01:51 -2,4 C -2,8 C 89 % 1031,5 hPa 0,0 l/m 19,3 km/h (3 Bft) N 360 0 min 0,0 UV-I 0 W/m -4,0 C -12,4 C 24,1 km/h (4 Bft)
22.01.2023 01:52 -2,4 C -2,8 C 89 % 1031,5 hPa 0,0 l/m 24,1 km/h (4 Bft) N 360 0 min 0,0 UV-I 0 W/m -4,0 C -14,6 C 33,8 km/h (5 Bft)
22.01.2023 01:53 -2,4 C -2,8 C 89 % 1031,5 hPa 0,0 l/m 20,9 km/h (4 Bft) N 360 0 min 0,0 UV-I 0 W/m -4,0 C -13,2 C 24,1 km/h (4 Bft)
22.01.2023 01:54 -2,4 C -2,8 C 89 % 1031,7 hPa 0,0 l/m 20,9 km/h (4 Bft) N 360 0 min 0,0 UV-I 0 W/m -4,0 C -13,2 C 24,1 km/h (4 Bft)
22.01.2023 01:55 -2,4 C -2,8 C 89 % 1031,5 hPa 0,0 l/m 22,5 km/h (4 Bft) N 360 0 min 0,0 UV-I 0 W/m -4,0 C -13,9 C 30,6 km/h (5 Bft)
22.01.2023 01:56 -2,4 C -2,8 C 89 % 1031,5 hPa 0,0 l/m 20,9 km/h (4 Bft) N 360 0 min 0,0 UV-I 0 W/m -4,0 C -13,2 C 30,6 km/h (5 Bft)
22.01.2023 01:57 -2,4 C -2,8 C 89 % 1031,4 hPa 0,0 l/m 20,9 km/h (4 Bft) N 360 0 min 0,0 UV-I 0 W/m -4,0 C -13,2 C 30,6 km/h (5 Bft)
22.01.2023 01:58 -2,4 C -2,8 C 89 % 1031,2 hPa 0,0 l/m 19,3 km/h (3 Bft) N 360 0 min 0,0 UV-I 0 W/m -4,0 C -12,4 C 27,4 km/h (4 Bft)
22.01.2023 01:59 -2,4 C -2,8 C 89 % 1031,3 hPa 0,0 l/m 20,9 km/h (4 Bft) N 360 0 min 0,0 UV-I 0 W/m -4,0 C -13,2 C 27,4 km/h (4 Bft)
22.01.2023 02:00 -2,4 C -2,8 C 89 % 1031,3 hPa 0,0 l/m 17,7 km/h (3 Bft) N 360 0 min 0,0 UV-I 0 W/m -4,0 C -11,5 C 25,7 km/h (4 Bft)
22.01.2023 02:01 -2,4 C -2,8 C 89 % 1031,2 hPa 0,0 l/m 27,4 km/h (4 Bft) N 360 0 min 0,0 UV-I 0 W/m -4,0 C -15,9 C 38,6 km/h (5 Bft)
22.01.2023 02:02 -2,4 C -2,8 C 89 % 1031,3 hPa 0,0 l/m 32,2 km/h (5 Bft) N-NW 337 0 min 0,0 UV-I 0 W/m -4,0 C -17,5 C 41,8 km/h (6 Bft)
22.01.2023 02:03 -2,4 C -2,8 C 89 % 1031,3 hPa 0,0 l/m 22,5 km/h (4 Bft) N 360 0 min 0,0 UV-I 0 W/m -4,0 C -13,9 C 41,8 km/h (6 Bft)
22.01.2023 02:04 -2,4 C -2,8 C 89 % 1031,3 hPa 0,0 l/m 20,9 km/h (4 Bft) N 360 0 min 0,0 UV-I 0 W/m -4,0 C -13,2 C 27,4 km/h (4 Bft)
22.01.2023 02:05 -2,4 C -2,8 C 89 % 1031,2 hPa 0,0 l/m 17,7 km/h (3 Bft) N 360 0 min 0,0 UV-I 0 W/m -4,0 C -11,5 C 27,4 km/h (4 Bft)
22.01.2023 02:06 -2,4 C -2,8 C 89 % 1031,2 hPa 0,0 l/m 20,9 km/h (4 Bft) N 360 0 min 0,0 UV-I 0 W/m -4,0 C -13,2 C 25,7 km/h (4 Bft)
22.01.2023 02:07 -2,4 C -2,8 C 89 % 1031,2 hPa 0,0 l/m 22,5 km/h (4 Bft) N-NW 337 0 min 0,0 UV-I 0 W/m -4,0 C -13,9 C 33,8 km/h (5 Bft)
22.01.2023 02:08 -2,4 C -2,8 C 89 % 1031,2 hPa 0,0 l/m 30,6 km/h (5 Bft) N-NW 337 0 min 0,0 UV-I 0 W/m -4,0 C -17,0 C 38,6 km/h (5 Bft)
22.01.2023 02:09 -2,4 C -2,8 C 89 % 1031,2 hPa 0,0 l/m 24,1 km/h (4 Bft) N-NW 337 0 min 0,0 UV-I 0 W/m -4,0 C -14,6 C 29,0 km/h (5 Bft)
22.01.2023 02:10 -2,4 C -2,8 C 89 % 1031,2 hPa 0,0 l/m 19,3 km/h (3 Bft) N 360 0 min 0,0 UV-I 0 W/m -4,0 C -12,4 C 25,7 km/h (4 Bft)
22.01.2023 02:11 -2,4 C -2,8 C 89 % 1031,2 hPa 0,0 l/m 24,1 km/h (4 Bft) N 360 0 min 0,0 UV-I 0 W/m -4,0 C -14,6 C 32,2 km/h (5 Bft)
22.01.2023 02:12 -2,4 C -2,8 C 89 % 1031,2 hPa 0,0 l/m 25,7 km/h (4 Bft) N 360 0 min 0,0 UV-I 0 W/m -4,0 C -15,2 C 35,4 km/h (5 Bft)
22.01.2023 02:13 -2,4 C -2,8 C 89 % 1031,2 hPa 0,0 l/m 20,9 km/h (4 Bft) N 360 0 min 0,0 UV-I 0 W/m -4,0 C -13,2 C 32,2 km/h (5 Bft)
22.01.2023 02:14 -2,4 C -2,8 C 89 % 1031,2 hPa 0,0 l/m 27,4 km/h (4 Bft) N 360 0 min 0,0 UV-I 0 W/m -4,0 C -15,9 C 33,8 km/h (5 Bft)
22.01.2023 02:15 -2,4 C -2,8 C 89 % 1031,1 hPa 0,0 l/m 22,5 km/h (4 Bft) N 360 0 min 0,0 UV-I 0 W/m -4,0 C -13,9 C 33,8 km/h (5 Bft)
22.01.2023 02:16 -2,4 C -2,8 C 89 % 1031,1 hPa 0,0 l/m 22,5 km/h (4 Bft) N 360 0 min 0,0 UV-I 0 W/m -4,0 C -13,9 C 30,6 km/h (5 Bft)
22.01.2023 02:17 -2,4 C -2,8 C 89 % 1031,1 hPa 0,0 l/m 20,9 km/h (4 Bft) N 360 0 min 0,0 UV-I 0 W/m -4,0 C -13,2 C 27,4 km/h (4 Bft)
22.01.2023 02:18 -2,4 C -2,8 C 89 % 1031,1 hPa 0,0 l/m 22,5 km/h (4 Bft) N 360 0 min 0,0 UV-I 0 W/m -4,0 C -13,9 C 27,4 km/h (4 Bft)
22.01.2023 02:19 -2,4 C -2,8 C 89 % 1031,0 hPa 0,0 l/m 22,5 km/h (4 Bft) N 360 0 min 0,0 UV-I 0 W/m -4,0 C -13,9 C 29,0 km/h (5 Bft)
22.01.2023 02:20 -2,4 C -2,2 C 89 % 1031,1 hPa 0,0 l/m 27,4 km/h (4 Bft) N 360 0 min 0,0 UV-I 0 W/m -4,0 C -15,9 C 33,8 km/h (5 Bft)
22.01.2023 02:21 -2,4 C -2,8 C 89 % 1031,1 hPa 0,0 l/m 24,1 km/h (4 Bft) N 360 0 min 0,0 UV-I 0 W/m -4,0 C -14,6 C 32,2 km/h (5 Bft)
22.01.2023 02:22 -2,4 C -2,8 C 89 % 1031,1 hPa 0,0 l/m 19,3 km/h (3 Bft) N 360 0 min 0,0 UV-I 0 W/m -4,0 C -12,4 C 25,7 km/h (4 Bft)
22.01.2023 02:23 -2,5 C -2,8 C 89 % 1031,1 hPa 0,0 l/m 24,1 km/h (4 Bft) N 360 0 min 0,0 UV-I 0 W/m -4,1 C -14,7 C 29,0 km/h (5 Bft)
22.01.2023 02:24 -2,5 C -2,2 C 89 % 1031,1 hPa 0,0 l/m 22,5 km/h (4 Bft) N 360 0 min 0,0 UV-I 0 W/m -4,1 C -14,0 C 29,0 km/h (5 Bft)
22.01.2023 02:25 -2,5 C -2,2 C 89 % 1031,1 hPa 0,0 l/m 19,3 km/h (3 Bft) N-NW 337 0 min 0,0 UV-I 0 W/m -4,1 C -12,5 C 24,1 km/h (4 Bft)
22.01.2023 02:26 -2,5 C -2,2 C 89 % 1031,2 hPa 0,0 l/m 27,4 km/h (4 Bft) N-NW 337 0 min 0,0 UV-I 0 W/m -4,1 C -16,0 C 30,6 km/h (5 Bft)
22.01.2023 02:27 -2,6 C -2,2 C 90 % 1031,2 hPa 0,0 l/m 25,7 km/h (4 Bft) N 360 0 min 0,0 UV-I 0 W/m -4,0 C -15,5 C 29,0 km/h (5 Bft)
22.01.2023 02:28 -2,6 C -2,2 C 89 % 1031,2 hPa 0,0 l/m 14,5 km/h (3 Bft) N 360 0 min 0,0 UV-I 0 W/m -4,2 C -9,8 C 19,3 km/h (3 Bft)
22.01.2023 02:29 -2,6 C -2,2 C 89 % 1031,1 hPa 0,0 l/m 17,7 km/h (3 Bft) N 360 0 min 0,0 UV-I 0 W/m -4,2 C -11,8 C 24,1 km/h (4 Bft)
22.01.2023 02:30 -2,6 C -2,2 C 90 % 1031,0 hPa 0,0 l/m 17,7 km/h (3 Bft) N 360 0 min 0,0 UV-I 0 W/m -4,0 C -11,8 C 20,9 km/h (4 Bft)
22.01.2023 02:31 -2,6 C -2,2 C 90 % 1031,2 hPa 0,0 l/m 16,1 km/h (3 Bft) N 360 0 min 0,0 UV-I 0 W/m -4,0 C -10,8 C 22,5 km/h (4 Bft)
22.01.2023 02:32 -2,6 C -2,2 C 90 % 1031,1 hPa 0,0 l/m 17,7 km/h (3 Bft) N 360 0 min 0,0 UV-I 0 W/m -4,0 C -11,8 C 32,2 km/h (5 Bft)
22.01.2023 02:33 -2,6 C -1,7 C 90 % 1031,2 hPa 0,0 l/m 24,1 km/h (4 Bft) N 360 0 min 0,0 UV-I 0 W/m -4,0 C -14,9 C 27,4 km/h (4 Bft)
22.01.2023 02:34 -2,6 C -1,7 C 90 % 1031,2 hPa 0,0 l/m 20,9 km/h (4 Bft) N 360 0 min 0,0 UV-I 0 W/m -4,0 C -13,4 C 24,1 km/h (4 Bft)
22.01.2023 02:35 -2,7 C -1,7 C 90 % 1031,2 hPa 0,0 l/m 19,3 km/h (3 Bft) N 360 0 min 0,0 UV-I 0 W/m -4,1 C -12,8 C 24,1 km/h (4 Bft)
22.01.2023 02:36 -2,6 C -1,7 C 90 % 1031,1 hPa 0,0 l/m 19,3 km/h (3 Bft) N 360 0 min 0,0 UV-I 0 W/m -4,0 C -12,6 C 25,7 km/h (4 Bft)
22.01.2023 02:37 -2,6 C -1,7 C 90 % 1031,1 hPa 0,0 l/m 19,3 km/h (3 Bft) N 360 0 min 0,0 UV-I 0 W/m -4,0 C -12,6 C 24,1 km/h (4 Bft)
22.01.2023 02:38 -2,7 C -1,7 C 90 % 1031,1 hPa 0,0 l/m 20,9 km/h (4 Bft) N 360 0 min 0,0 UV-I 0 W/m -4,1 C -13,6 C 29,0 km/h (5 Bft)
22.01.2023 02:39 -2,7 C -1,7 C 90 % 1031,2 hPa 0,0 l/m 24,1 km/h (4 Bft) N-NW 337 0 min 0,0 UV-I 0 W/m -4,1 C -15,0 C 29,0 km/h (5 Bft)
22.01.2023 02:40 -2,7 C -1,7 C 90 % 1031,1 hPa 0,0 l/m 16,1 km/h (3 Bft) N 360 0 min 0,0 UV-I 0 W/m -4,1 C -10,9 C 20,9 km/h (4 Bft)
22.01.2023 02:41 -2,7 C -1,1 C 90 % 1031,2 hPa 0,0 l/m 16,1 km/h (3 Bft) N 360 0 min 0,0 UV-I 0 W/m -4,1 C -10,9 C 20,9 km/h (4 Bft)
22.01.2023 02:42 -2,7 C -1,1 C 90 % 1031,1 hPa 0,0 l/m 16,1 km/h (3 Bft) N 360 0 min 0,0 UV-I 0 W/m -4,1 C -10,9 C 20,9 km/h (4 Bft)
22.01.2023 02:43 -2,7 C -1,1 C 90 % 1031,2 hPa 0,0 l/m 14,5 km/h (3 Bft) N 360 0 min 0,0 UV-I 0 W/m -4,1 C -9,9 C 17,7 km/h (3 Bft)
22.01.2023 02:44 -2,7 C -1,1 C 90 % 1031,1 hPa 0,0 l/m 17,7 km/h (3 Bft) N-NW 337 0 min 0,0 UV-I 0 W/m -4,1 C -11,9 C 22,5 km/h (4 Bft)
22.01.2023 02:45 -2,7 C -1,1 C 90 % 1031,1 hPa 0,0 l/m 16,1 km/h (3 Bft) N-NW 337 0 min 0,0 UV-I 0 W/m -4,1 C -10,9 C 19,3 km/h (3 Bft)
22.01.2023 02:46 -2,7 C -1,1 C 91 % 1031,2 hPa 0,0 l/m 14,5 km/h (3 Bft) N 360 0 min 0,0 UV-I 0 W/m -4,0 C -9,9 C 20,9 km/h (4 Bft)
22.01.2023 02:47 -2,7 C -1,1 C 91 % 1031,1 hPa 0,0 l/m 17,7 km/h (3 Bft) N-NW 337 0 min 0,0 UV-I 0 W/m -4,0 C -11,9 C 30,6 km/h (5 Bft)
22.01.2023 02:48 -2,7 C -1,1 C 91 % 1031,2 hPa 0,0 l/m 16,1 km/h (3 Bft) N 360 0 min 0,0 UV-I 0 W/m -4,0 C -10,9 C 20,9 km/h (4 Bft)
22.01.2023 02:49 -2,7 C -1,1 C 91 % 1031,2 hPa 0,0 l/m 19,3 km/h (3 Bft) N 360 0 min 0,0 UV-I 0 W/m -4,0 C -12,8 C 20,9 km/h (4 Bft)
22.01.2023 02:50 -2,7 C -1,1 C 91 % 1031,2 hPa 0,0 l/m 20,9 km/h (4 Bft) N 360 0 min 0,0 UV-I 0 W/m -4,0 C -13,6 C 25,7 km/h (4 Bft)
22.01.2023 02:51 -2,7 C -1,1 C 91 % 1031,1 hPa 0,0 l/m 17,7 km/h (3 Bft) N 360 0 min 0,0 UV-I 0 W/m -4,0 C -11,9 C 19,3 km/h (3 Bft)
22.01.2023 02:52 -2,7 C -1,1 C 91 % 1031,2 hPa 0,0 l/m 17,7 km/h (3 Bft) N-NW 337 0 min 0,0 UV-I 0 W/m -4,0 C -11,9 C 20,9 km/h (4 Bft)
22.01.2023 02:53 -2,7 C -1,1 C 91 % 1031,1 hPa 0,0 l/m 19,3 km/h (3 Bft) N 360 0 min 0,0 UV-I 0 W/m -4,0 C -12,8 C 24,1 km/h (4 Bft)
22.01.2023 02:54 -2,7 C -1,1 C 91 % 1031,2 hPa 0,0 l/m 19,3 km/h (3 Bft) N 360 0 min 0,0 UV-I 0 W/m -4,0 C -12,8 C 22,5 km/h (4 Bft)
22.01.2023 02:55 -2,7 C -1,1 C 91 % 1031,1 hPa 0,0 l/m 19,3 km/h (3 Bft) N 360 0 min 0,0 UV-I 0 W/m -4,0 C -12,8 C 22,5 km/h (4 Bft)
22.01.2023 02:56 -2,7 C -1,1 C 91 % 1031,2 hPa 0,0 l/m 16,1 km/h (3 Bft) N 360 0 min 0,0 UV-I 0 W/m -4,0 C -10,9 C 19,3 km/h (3 Bft)
22.01.2023 02:57 -2,8 C -1,1 C 91 % 1031,2 hPa 0,0 l/m 14,5 km/h (3 Bft) N 360 0 min 0,0 UV-I 0 W/m -4,1 C -10,0 C 19,3 km/h (3 Bft)
22.01.2023 02:58 -2,7 C -1,1 C 91 % 1031,2 hPa 0,0 l/m 16,1 km/h (3 Bft) N 360 0 min 0,0 UV-I 0 W/m -4,0 C -10,9 C 19,3 km/h (3 Bft)
22.01.2023 02:59 -2,7 C -1,1 C 91 % 1031,3 hPa 0,0 l/m 20,9 km/h (4 Bft) N 360 0 min 0,0 UV-I 0 W/m -4,0 C -13,6 C 27,4 km/h (4 Bft)
22.01.2023 03:00 -2,8 C -1,1 C 91 % 1031,2 hPa 0,0 l/m 19,3 km/h (3 Bft) N-NW 337 0 min 0,0 UV-I 0 W/m -4,1 C -12,9 C 27,4 km/h (4 Bft)
22.01.2023 03:01 -2,7 C -0,6 C 91 % 1031,2 hPa 0,0 l/m 19,3 km/h (3 Bft) N 360 0 min 0,0 UV-I 0 W/m -4,0 C -12,8 C 25,7 km/h (4 Bft)
22.01.2023 03:02 -2,7 C -0,6 C 91 % 1031,3 hPa 0,0 l/m 17,7 km/h (3 Bft) N 360 0 min 0,0 UV-I 0 W/m -4,0 C -11,9 C 20,9 km/h (4 Bft)
22.01.2023 03:03 -2,8 C -0,6 C 91 % 1031,2 hPa 0,0 l/m 17,7 km/h (3 Bft) N 360 0 min 0,0 UV-I 0 W/m -4,1 C -12,0 C 24,1 km/h (4 Bft)
22.01.2023 03:04 -2,7 C -0,6 C 91 % 1031,3 hPa 0,0 l/m 17,7 km/h (3 Bft) N 360 0 min 0,0 UV-I 0 W/m -4,0 C -11,9 C 22,5 km/h (4 Bft)
22.01.2023 03:05 -2,7 C -0,6 C 91 % 1031,2 hPa 0,0 l/m 17,7 km/h (3 Bft) N-NW 337 0 min 0,0 UV-I 0 W/m -4,0 C -11,9 C 29,0 km/h (5 Bft)
22.01.2023 03:06 -2,8 C -0,6 C 91 % 1031,2 hPa 0,0 l/m 20,9 km/h (4 Bft) N-NW 337 0 min 0,0 UV-I 0 W/m -4,1 C -13,7 C 24,1 km/h (4 Bft)
22.01.2023 03:07 -2,8 C -0,6 C 91 % 1031,3 hPa 0,0 l/m 17,7 km/h (3 Bft) N-NW 337 0 min 0,0 UV-I 0 W/m -4,1 C -12,0 C 22,5 km/h (4 Bft)
22.01.2023 03:08 -2,8 C -0,6 C 91 % 1031,3 hPa 0,0 l/m 19,3 km/h (3 Bft) N-NW 337 0 min 0,0 UV-I 0 W/m -4,1 C -12,9 C 25,7 km/h (4 Bft)
22.01.2023 03:09 -2,8 C -0,6 C 91 % 1031,2 hPa 0,0 l/m 20,9 km/h (4 Bft) N 360 0 min 0,0 UV-I 0 W/m -4,1 C -13,7 C 25,7 km/h (4 Bft)
22.01.2023 03:10 -2,8 C -0,6 C 91 % 1031,2 hPa 0,0 l/m 19,3 km/h (3 Bft) N-NW 337 0 min 0,0 UV-I 0 W/m -4,1 C -12,9 C 22,5 km/h (4 Bft)
22.01.2023 03:11 -2,8 C -0,6 C 91 % 1031,2 hPa 0,2 l/m 17,7 km/h (3 Bft) N 360 0 min 0,0 UV-I 0 W/m -4,1 C -12,0 C 22,5 km/h (4 Bft)
22.01.2023 03:12 -2,8 C -0,6 C 91 % 1031,2 hPa 0,0 l/m 14,5 km/h (3 Bft) N 360 0 min 0,0 UV-I 0 W/m -4,1 C -10,0 C 20,9 km/h (4 Bft)
22.01.2023 03:13 -2,8 C -0,6 C 91 % 1031,3 hPa 0,0 l/m 17,7 km/h (3 Bft) N 360 0 min 0,0 UV-I 0 W/m -4,1 C -12,0 C 20,9 km/h (4 Bft)
22.01.2023 03:14 -2,8 C -0,6 C 91 % 1031,3 hPa 0,0 l/m 17,7 km/h (3 Bft) N 360 0 min 0,0 UV-I 0 W/m -4,1 C -12,0 C 24,1 km/h (4 Bft)
22.01.2023 03:15 -2,8 C -0,6 C 91 % 1031,3 hPa 0,0 l/m 22,5 km/h (4 Bft) N 360 0 min 0,0 UV-I 0 W/m -4,1 C -14,4 C 27,4 km/h (4 Bft)
22.01.2023 03:16 -2,7 C -0,6 C 91 % 1031,2 hPa 0,0 l/m 24,1 km/h (4 Bft) N 360 0 min 0,0 UV-I 0 W/m -4,0 C -15,0 C 29,0 km/h (5 Bft)
22.01.2023 03:17 -2,8 C -0,6 C 91 % 1031,2 hPa 0,0 l/m 16,1 km/h (3 Bft) N 360 0 min 0,0 UV-I 0 W/m -4,1 C -11,1 C 20,9 km/h (4 Bft)
22.01.2023 03:18 -2,8 C -0,6 C 91 % 1031,3 hPa 0,0 l/m 19,3 km/h (3 Bft) N 360 0 min 0,0 UV-I 0 W/m -4,1 C -12,9 C 25,7 km/h (4 Bft)
22.01.2023 03:19 -2,8 C -0,6 C 91 % 1031,3 hPa 0,0 l/m 22,5 km/h (4 Bft) N 360 0 min 0,0 UV-I 0 W/m -4,1 C -14,4 C 24,1 km/h (4 Bft)
22.01.2023 03:20 -2,8 C -0,6 C 91 % 1031,3 hPa 0,0 l/m 17,7 km/h (3 Bft) N-NW 337 0 min 0,0 UV-I 0 W/m -4,1 C -12,0 C 24,1 km/h (4 Bft)
22.01.2023 03:21 -2,8 C -0,6 C 91 % 1031,3 hPa 0,0 l/m 24,1 km/h (4 Bft) N-NW 337 0 min 0,0 UV-I 0 W/m -4,1 C -15,1 C 32,2 km/h (5 Bft)
22.01.2023 03:22 -2,8 C -0,6 C 91 % 1031,2 hPa 0,0 l/m 17,7 km/h (3 Bft) N-NW 337 0 min 0,0 UV-I 0 W/m -4,1 C -12,0 C 25,7 km/h (4 Bft)
22.01.2023 03:23 -2,8 C -0,6 C 91 % 1031,2 hPa 0,0 l/m 17,7 km/h (3 Bft) N 360 0 min 0,0 UV-I 0 W/m -4,1 C -12,0 C 25,7 km/h (4 Bft)
22.01.2023 03:24 -2,8 C -0,6 C 91 % 1031,2 hPa 0,0 l/m 17,7 km/h (3 Bft) N 360 0 min 0,0 UV-I 0 W/m -4,1 C -12,0 C 22,5 km/h (4 Bft)
22.01.2023 03:25 -2,8 C -0,6 C 91 % 1031,3 hPa 0,0 l/m 22,5 km/h (4 Bft) N 360 0 min 0,0 UV-I 0 W/m -4,1 C -14,4 C 30,6 km/h (5 Bft)
22.01.2023 03:26 -2,8 C -0,6 C 91 % 1031,2 hPa 0,0 l/m 19,3 km/h (3 Bft) N 360 0 min 0,0 UV-I 0 W/m -4,1 C -12,9 C 22,5 km/h (4 Bft)
22.01.2023 03:27 -2,8 C -0,6 C 91 % 1031,3 hPa 0,0 l/m 19,3 km/h (3 Bft) N 360 0 min 0,0 UV-I 0 W/m -4,1 C -12,9 C 27,4 km/h (4 Bft)
22.01.2023 03:28 -2,8 C -0,6 C 91 % 1031,2 hPa 0,0 l/m 17,7 km/h (3 Bft) N 360 0 min 0,0 UV-I 0 W/m -4,1 C -12,0 C 24,1 km/h (4 Bft)
22.01.2023 03:29 -2,8 C -0,6 C 91 % 1031,3 hPa 0,0 l/m 22,5 km/h (4 Bft) N-NW 337 0 min 0,0 UV-I 0 W/m -4,1 C -14,4 C 27,4 km/h (4 Bft)
22.01.2023 03:30 -2,8 C -0,6 C 91 % 1031,2 hPa 0,0 l/m 20,9 km/h (4 Bft) N-NW 337 0 min 0,0 UV-I 0 W/m -4,1 C -13,7 C 29,0 km/h (5 Bft)
22.01.2023 03:31 -2,8 C -0,6 C 91 % 1031,2 hPa 0,0 l/m 25,7 km/h (4 Bft) N-NW 337 0 min 0,0 UV-I 0 W/m -4,1 C -15,8 C 35,4 km/h (5 Bft)
22.01.2023 03:32 -2,8 C -0,6 C 91 % 1031,1 hPa 0,0 l/m 24,1 km/h (4 Bft) N-NW 337 0 min 0,0 UV-I 0 W/m -4,1 C -15,1 C 29,0 km/h (5 Bft)
22.01.2023 03:33 -2,8 C -0,6 C 91 % 1031,2 hPa 0,0 l/m 25,7 km/h (4 Bft) N-NW 337 0 min 0,0 UV-I 0 W/m -4,1 C -15,8 C 30,6 km/h (5 Bft)
22.01.2023 03:34 -2,9 C -0,6 C 91 % 1031,2 hPa 0,0 l/m 19,3 km/h (3 Bft) N 360 0 min 0,0 UV-I 0 W/m -4,2 C -13,0 C 25,7 km/h (4 Bft)
22.01.2023 03:35 -2,8 C -0,6 C 91 % 1031,1 hPa 0,0 l/m 17,7 km/h (3 Bft) N 360 0 min 0,0 UV-I 0 W/m -4,1 C -12,0 C 20,9 km/h (4 Bft)
22.01.2023 03:36 -2,9 C -0,6 C 91 % 1031,2 hPa 0,0 l/m 19,3 km/h (3 Bft) N 360 0 min 0,0 UV-I 0 W/m -4,2 C -13,0 C 24,1 km/h (4 Bft)
22.01.2023 03:37 -2,9 C -0,6 C 91 % 1031,2 hPa 0,0 l/m 22,5 km/h (4 Bft) N 360 0 min 0,0 UV-I 0 W/m -4,2 C -14,6 C 25,7 km/h (4 Bft)
22.01.2023 03:38 -2,9 C -0,6 C 91 % 1031,2 hPa 0,0 l/m 20,9 km/h (4 Bft) N 360 0 min 0,0 UV-I 0 W/m -4,2 C -13,8 C 27,4 km/h (4 Bft)
22.01.2023 03:39 -2,9 C -0,6 C 91 % 1031,2 hPa 0,0 l/m 19,3 km/h (3 Bft) N-NW 337 0 min 0,0 UV-I 0 W/m -4,2 C -13,0 C 25,7 km/h (4 Bft)
22.01.2023 03:40 -2,9 C -0,6 C 91 % 1031,2 hPa 0,0 l/m 20,9 km/h (4 Bft) N 360 0 min 0,0 UV-I 0 W/m -4,2 C -13,8 C 24,1 km/h (4 Bft)
22.01.2023 03:41 -2,9 C -0,6 C 91 % 1031,2 hPa 0,0 l/m 24,1 km/h (4 Bft) N 360 0 min 0,0 UV-I 0 W/m -4,2 C -15,3 C 32,2 km/h (5 Bft)
22.01.2023 03:42 -2,9 C -0,6 C 91 % 1031,2 hPa 0,0 l/m 20,9 km/h (4 Bft) N 360 0 min 0,0 UV-I 0 W/m -4,2 C -13,8 C 27,4 km/h (4 Bft)
22.01.2023 03:43 -2,9 C -0,6 C 91 % 1031,2 hPa 0,0 l/m 24,1 km/h (4 Bft) N-NW 337 0 min 0,0 UV-I 0 W/m -4,2 C -15,3 C 32,2 km/h (5 Bft)
22.01.2023 03:44 -2,9 C -0,6 C 91 % 1031,1 hPa 0,0 l/m 20,9 km/h (4 Bft) N 360 0 min 0,0 UV-I 0 W/m -4,2 C -13,8 C 25,7 km/h (4 Bft)
22.01.2023 03:45 -2,9 C -0,6 C 91 % 1031,2 hPa 0,0 l/m 17,7 km/h (3 Bft) N 360 0 min 0,0 UV-I 0 W/m -4,2 C -12,1 C 24,1 km/h (4 Bft)
22.01.2023 03:46 -2,9 C -0,6 C 91 % 1031,3 hPa 0,0 l/m 20,9 km/h (4 Bft) N 360 0 min 0,0 UV-I 0 W/m -4,2 C -13,8 C 24,1 km/h (4 Bft)
22.01.2023 03:47 -2,9 C -0,6 C 91 % 1031,2 hPa 0,0 l/m 24,1 km/h (4 Bft) N 360 0 min 0,0 UV-I 0 W/m -4,2 C -15,3 C 30,6 km/h (5 Bft)
22.01.2023 03:48 -2,9 C -0,6 C 91 % 1031,1 hPa 0,0 l/m 25,7 km/h (4 Bft) N 360 0 min 0,0 UV-I 0 W/m -4,2 C -15,9 C 32,2 km/h (5 Bft)
22.01.2023 03:49 -2,9 C -0,6 C 91 % 1031,1 hPa 0,0 l/m 22,5 km/h (4 Bft) N 360 0 min 0,0 UV-I 0 W/m -4,2 C -14,6 C 29,0 km/h (5 Bft)
22.01.2023 03:50 -2,9 C -0,6 C 91 % 1031,1 hPa 0,0 l/m 25,7 km/h (4 Bft) N-NW 337 0 min 0,0 UV-I 0 W/m -4,2 C -15,9 C 30,6 km/h (5 Bft)
22.01.2023 03:51 -2,9 C -0,6 C 91 % 1031,3 hPa 0,0 l/m 29,0 km/h (5 Bft) N-NW 337 0 min 0,0 UV-I 0 W/m -4,2 C -17,1 C 37,0 km/h (5 Bft)
22.01.2023 03:52 -2,9 C -0,6 C 91 % 1031,1 hPa 0,0 l/m 27,4 km/h (4 Bft) N-NW 337 0 min 0,0 UV-I 0 W/m -4,2 C -16,6 C 32,2 km/h (5 Bft)
22.01.2023 03:53 -2,9 C -0,6 C 91 % 1031,2 hPa 0,0 l/m 24,1 km/h (4 Bft) N 360 0 min 0,0 UV-I 0 W/m -4,2 C -15,3 C 32,2 km/h (5 Bft)
22.01.2023 03:54 -2,9 C -0,6 C 91 % 1031,2 hPa 0,0 l/m 22,5 km/h (4 Bft) N 360 0 min 0,0 UV-I 0 W/m -4,2 C -14,6 C 27,4 km/h (4 Bft)
22.01.2023 03:55 -2,9 C -0,6 C 91 % 1031,2 hPa 0,0 l/m 22,5 km/h (4 Bft) N 360 0 min 0,0 UV-I 0 W/m -4,2 C -14,6 C 32,2 km/h (5 Bft)
22.01.2023 03:56 -2,9 C -0,6 C 92 % 1031,2 hPa 0,0 l/m 20,9 km/h (4 Bft) N-NW 337 0 min 0,0 UV-I 0 W/m -4,0 C -13,8 C 29,0 km/h (5 Bft)
22.01.2023 03:57 -3,0 C -0,6 C 91 % 1031,2 hPa 0,0 l/m 22,5 km/h (4 Bft) N 360 0 min 0,0 UV-I 0 W/m -4,3 C -14,7 C 29,0 km/h (5 Bft)
22.01.2023 03:58 -3,0 C -0,6 C 92 % 1031,2 hPa 0,0 l/m 20,9 km/h (4 Bft) N 360 0 min 0,0 UV-I 0 W/m -4,1 C -14,0 C 27,4 km/h (4 Bft)
22.01.2023 03:59 -3,0 C -0,6 C 92 % 1031,2 hPa 0,0 l/m 24,1 km/h (4 Bft) N 360 0 min 0,0 UV-I 0 W/m -4,1 C -15,4 C 29,0 km/h (5 Bft)
22.01.2023 04:00 -3,0 C -0,6 C 92 % 1031,1 hPa 0,0 l/m 14,5 km/h (3 Bft) N 360 0 min 0,0 UV-I 0 W/m -4,1 C -10,3 C 19,3 km/h (3 Bft)
22.01.2023 04:01 -3,0 C -0,6 C 92 % 1031,2 hPa 0,0 l/m 20,9 km/h (4 Bft) N 360 0 min 0,0 UV-I 0 W/m -4,1 C -14,0 C 29,0 km/h (5 Bft)
22.01.2023 04:02 -3,0 C -0,6 C 92 % 1031,2 hPa 0,0 l/m 19,3 km/h (3 Bft) N 360 0 min 0,0 UV-I 0 W/m -4,1 C -13,1 C 27,4 km/h (4 Bft)
22.01.2023 04:03 -3,0 C -0,6 C 92 % 1031,3 hPa 0,0 l/m 22,5 km/h (4 Bft) N 360 0 min 0,0 UV-I 0 W/m -4,1 C -14,7 C 27,4 km/h (4 Bft)
22.01.2023 04:04 -3,0 C -0,6 C 92 % 1031,2 hPa 0,0 l/m 22,5 km/h (4 Bft) N 360 0 min 0,0 UV-I 0 W/m -4,1 C -14,7 C 27,4 km/h (4 Bft)
22.01.2023 04:05 -3,0 C -0,6 C 92 % 1031,3 hPa 0,0 l/m 19,3 km/h (3 Bft) N 360 0 min 0,0 UV-I 0 W/m -4,1 C -13,1 C 25,7 km/h (4 Bft)
22.01.2023 04:06 -3,0 C -0,6 C 92 % 1031,2 hPa 0,0 l/m 22,5 km/h (4 Bft) N 360 0 min 0,0 UV-I 0 W/m -4,1 C -14,7 C 29,0 km/h (5 Bft)
22.01.2023 04:07 -3,0 C -0,6 C 92 % 1031,2 hPa 0,0 l/m 17,7 km/h (3 Bft) N 360 0 min 0,0 UV-I 0 W/m -4,1 C -12,3 C 22,5 km/h (4 Bft)
22.01.2023 04:08 -3,1 C -0,6 C 92 % 1031,3 hPa 0,0 l/m 17,7 km/h (3 Bft) N 360 0 min 0,0 UV-I 0 W/m -4,2 C -12,4 C 22,5 km/h (4 Bft)
22.01.2023 04:09 -3,0 C -0,6 C 92 % 1031,2 hPa 0,0 l/m 17,7 km/h (3 Bft) N 360 0 min 0,0 UV-I 0 W/m -4,1 C -12,3 C 20,9 km/h (4 Bft)
22.01.2023 04:10 -3,0 C -0,6 C 92 % 1031,2 hPa 0,0 l/m 11,3 km/h (2 Bft) N 360 0 min 0,0 UV-I 0 W/m -4,1 C -7,9 C 24,1 km/h (4 Bft)
22.01.2023 04:11 -3,0 C -0,6 C 92 % 1031,3 hPa 0,0 l/m 17,7 km/h (3 Bft) N 360 0 min 0,0 UV-I 0 W/m -4,1 C -12,3 C 29,0 km/h (5 Bft)
22.01.2023 04:12 -3,0 C -0,6 C 92 % 1031,2 hPa 0,0 l/m 17,7 km/h (3 Bft) N 360 0 min 0,0 UV-I 0 W/m -4,1 C -12,3 C 24,1 km/h (4 Bft)
22.01.2023 04:13 -3,0 C -0,6 C 92 % 1031,2 hPa 0,0 l/m 17,7 km/h (3 Bft) N 360 0 min 0,0 UV-I 0 W/m -4,1 C -12,3 C 25,7 km/h (4 Bft)
22.01.2023 04:14 -3,0 C -0,6 C 92 % 1031,2 hPa 0,0 l/m 17,7 km/h (3 Bft) N 360 0 min 0,0 UV-I 0 W/m -4,1 C -12,3 C 25,7 km/h (4 Bft)
22.01.2023 04:15 -3,0 C -0,6 C 92 % 1031,2 hPa 0,0 l/m 25,7 km/h (4 Bft) N 360 0 min 0,0 UV-I 0 W/m -4,1 C -16,1 C 33,8 km/h (5 Bft)
22.01.2023 04:16 -3,0 C -0,6 C 92 % 1031,1 hPa 0,0 l/m 16,1 km/h (3 Bft) N 360 0 min 0,0 UV-I 0 W/m -4,1 C -11,3 C 19,3 km/h (3 Bft)
22.01.2023 04:17 -3,0 C -0,6 C 92 % 1031,1 hPa 0,0 l/m 14,5 km/h (3 Bft) N 360 0 min 0,0 UV-I 0 W/m -4,1 C -10,3 C 19,3 km/h (3 Bft)
22.01.2023 04:18 -3,0 C -0,6 C 92 % 1031,0 hPa 0,0 l/m 19,3 km/h (3 Bft) N 360 0 min 0,0 UV-I 0 W/m -4,1 C -13,1 C 22,5 km/h (4 Bft)
22.01.2023 04:19 -3,0 C -0,6 C 92 % 1031,1 hPa 0,2 l/m 22,5 km/h (4 Bft) N-NW 337 0 min 0,0 UV-I 0 W/m -4,1 C -14,7 C 30,6 km/h (5 Bft)
22.01.2023 04:20 -3,0 C -0,6 C 92 % 1031,0 hPa 0,0 l/m 19,3 km/h (3 Bft) N-NW 337 0 min 0,0 UV-I 0 W/m -4,1 C -13,1 C 27,4 km/h (4 Bft)
22.01.2023 04:21 -3,0 C -0,6 C 92 % 1031,0 hPa 0,0 l/m 14,5 km/h (3 Bft) N 360 0 min 0,0 UV-I 0 W/m -4,1 C -10,3 C 20,9 km/h (4 Bft)
22.01.2023 04:22 -3,0 C -0,6 C 92 % 1031,1 hPa 0,0 l/m 20,9 km/h (4 Bft) N 360 0 min 0,0 UV-I 0 W/m -4,1 C -14,0 C 30,6 km/h (5 Bft)
22.01.2023 04:23 -3,0 C -0,6 C 92 % 1031,0 hPa 0,0 l/m 17,7 km/h (3 Bft) N 360 0 min 0,0 UV-I 0 W/m -4,1 C -12,3 C 25,7 km/h (4 Bft)
22.01.2023 04:24 -3,1 C -0,6 C 92 % 1031,0 hPa 0,0 l/m 19,3 km/h (3 Bft) N 360 0 min 0,0 UV-I 0 W/m -4,2 C -13,3 C 30,6 km/h (5 Bft)
22.01.2023 04:25 -3,0 C -0,6 C 92 % 1031,0 hPa 0,0 l/m 20,9 km/h (4 Bft) N 360 0 min 0,0 UV-I 0 W/m -4,1 C -14,0 C 27,4 km/h (4 Bft)
22.01.2023 04:26 -3,0 C -0,6 C 92 % 1030,8 hPa 0,0 l/m 17,7 km/h (3 Bft) N 360 0 min 0,0 UV-I 0 W/m -4,1 C -12,3 C 22,5 km/h (4 Bft)
22.01.2023 04:27 -3,0 C -0,6 C 92 % 1030,9 hPa 0,0 l/m 16,1 km/h (3 Bft) N 360 0 min 0,0 UV-I 0 W/m -4,1 C -11,3 C 24,1 km/h (4 Bft)
22.01.2023 04:28 -3,0 C -0,6 C 92 % 1030,9 hPa 0,0 l/m 14,5 km/h (3 Bft) N 360 0 min 0,0 UV-I 0 W/m -4,1 C -10,3 C 20,9 km/h (4 Bft)
22.01.2023 04:29 -3,1 C -0,6 C 92 % 1030,9 hPa 0,0 l/m 12,9 km/h (3 Bft) N 360 0 min 0,0 UV-I 0 W/m -4,2 C -9,3 C 16,1 km/h (3 Bft)
22.01.2023 04:30 -3,0 C -0,6 C 92 % 1031,0 hPa 0,0 l/m 11,3 km/h (2 Bft) N 360 0 min 0,0 UV-I 0 W/m -4,1 C -7,9 C 16,1 km/h (3 Bft)
22.01.2023 04:31 -3,1 C -0,6 C 92 % 1031,0 hPa 0,0 l/m 11,3 km/h (2 Bft) N 360 0 min 0,0 UV-I 0 W/m -4,2 C -8,0 C 16,1 km/h (3 Bft)
22.01.2023 04:32 -3,0 C -0,6 C 92 % 1031,0 hPa 0,0 l/m 12,9 km/h (3 Bft) N 360 0 min 0,0 UV-I 0 W/m -4,1 C -9,1 C 17,7 km/h (3 Bft)
22.01.2023 04:33 -3,0 C -0,6 C 92 % 1031,0 hPa 0,0 l/m 24,1 km/h (4 Bft) N 360 0 min 0,0 UV-I 0 W/m -4,1 C -15,4 C 27,4 km/h (4 Bft)
22.01.2023 04:34 -3,0 C -0,6 C 92 % 1031,0 hPa 0,0 l/m 17,7 km/h (3 Bft) N 360 0 min 0,0 UV-I 0 W/m -4,1 C -12,3 C 27,4 km/h (4 Bft)
22.01.2023 04:35 -3,0 C -0,6 C 92 % 1031,1 hPa 0,0 l/m 17,7 km/h (3 Bft) N 360 0 min 0,0 UV-I 0 W/m -4,1 C -12,3 C 24,1 km/h (4 Bft)
22.01.2023 04:36 -3,0 C -0,6 C 92 % 1031,0 hPa 0,0 l/m 16,1 km/h (3 Bft) N 360 0 min 0,0 UV-I 0 W/m -4,1 C -11,3 C 22,5 km/h (4 Bft)
22.01.2023 04:37 -3,0 C -0,6 C 92 % 1031,0 hPa 0,0 l/m 17,7 km/h (3 Bft) N 360 0 min 0,0 UV-I 0 W/m -4,1 C -12,3 C 24,1 km/h (4 Bft)
22.01.2023 04:38 -3,0 C -0,6 C 92 % 1030,9 hPa 0,0 l/m 14,5 km/h (3 Bft) N 360 0 min 0,0 UV-I 0 W/m -4,1 C -10,3 C 19,3 km/h (3 Bft)
22.01.2023 04:39 -3,0 C -0,6 C 92 % 1030,8 hPa 0,0 l/m 16,1 km/h (3 Bft) N 360 0 min 0,0 UV-I 0 W/m -4,1 C -11,3 C 22,5 km/h (4 Bft)
22.01.2023 04:40 -3,0 C -0,6 C 92 % 1031,0 hPa 0,0 l/m 19,3 km/h (3 Bft) N 360 0 min 0,0 UV-I 0 W/m -4,1 C -13,1 C 25,7 km/h (4 Bft)
22.01.2023 04:41 -3,1 C -0,6 C 92 % 1031,0 hPa 0,0 l/m 17,7 km/h (3 Bft) N 360 0 min 0,0 UV-I 0 W/m -4,2 C -12,4 C 20,9 km/h (4 Bft)
22.01.2023 04:42 -3,0 C -0,6 C 92 % 1031,0 hPa 0,0 l/m 17,7 km/h (3 Bft) N 360 0 min 0,0 UV-I 0 W/m -4,1 C -12,3 C 22,5 km/h (4 Bft)
22.01.2023 04:43 -3,0 C -0,6 C 92 % 1031,0 hPa 0,0 l/m 17,7 km/h (3 Bft) N 360 0 min 0,0 UV-I 0 W/m -4,1 C -12,3 C 25,7 km/h (4 Bft)
22.01.2023 04:44 -3,0 C -0,6 C 92 % 1031,0 hPa 0,0 l/m 16,1 km/h (3 Bft) N 360 0 min 0,0 UV-I 0 W/m -4,1 C -11,3 C 19,3 km/h (3 Bft)
22.01.2023 04:45 -3,0 C -0,6 C 92 % 1031,0 hPa 0,0 l/m 19,3 km/h (3 Bft) N 360 0 min 0,0 UV-I 0 W/m -4,1 C -13,1 C 25,7 km/h (4 Bft)
22.01.2023 04:46 -3,0 C -0,6 C 92 % 1031,0 hPa 0,0 l/m 16,1 km/h (3 Bft) N 360 0 min 0,0 UV-I 0 W/m -4,1 C -11,3 C 22,5 km/h (4 Bft)
22.01.2023 04:47 -3,0 C -0,6 C 92 % 1031,1 hPa 0,0 l/m 19,3 km/h (3 Bft) N-NO 22 0 min 0,0 UV-I 0 W/m -4,1 C -13,1 C 24,1 km/h (4 Bft)
22.01.2023 04:48 -3,0 C -0,6 C 92 % 1031,1 hPa 0,0 l/m 22,5 km/h (4 Bft) N-NW 337 0 min 0,0 UV-I 0 W/m -4,1 C -14,7 C 29,0 km/h (5 Bft)
22.01.2023 04:49 -3,0 C -0,6 C 92 % 1031,1 hPa 0,0 l/m 20,9 km/h (4 Bft) N 360 0 min 0,0 UV-I 0 W/m -4,1 C -14,0 C 25,7 km/h (4 Bft)
22.01.2023 04:50 -3,0 C -0,6 C 92 % 1031,0 hPa 0,0 l/m 25,7 km/h (4 Bft) N-NW 337 0 min 0,0 UV-I 0 W/m -4,1 C -16,1 C 29,0 km/h (5 Bft)
22.01.2023 04:51 -3,0 C -0,6 C 92 % 1030,9 hPa 0,0 l/m 22,5 km/h (4 Bft) N 360 0 min 0,0 UV-I 0 W/m -4,1 C -14,7 C 27,4 km/h (4 Bft)
22.01.2023 04:52 -3,0 C -0,6 C 92 % 1030,8 hPa 0,0 l/m 14,5 km/h (3 Bft) N 360 0 min 0,0 UV-I 0 W/m -4,1 C -10,3 C 19,3 km/h (3 Bft)
22.01.2023 04:53 -3,0 C -0,6 C 92 % 1031,0 hPa 0,0 l/m 19,3 km/h (3 Bft) N 360 0 min 0,0 UV-I 0 W/m -4,1 C -13,1 C 29,0 km/h (5 Bft)
22.01.2023 04:54 -3,0 C -0,6 C 92 % 1030,9 hPa 0,0 l/m 22,5 km/h (4 Bft) N 360 0 min 0,0 UV-I 0 W/m -4,1 C -14,7 C 30,6 km/h (5 Bft)
22.01.2023 04:55 -3,0 C -0,6 C 92 % 1031,0 hPa 0,0 l/m 14,5 km/h (3 Bft) N 360 0 min 0,0 UV-I 0 W/m -4,1 C -10,3 C 20,9 km/h (4 Bft)
22.01.2023 04:56 -3,0 C -0,6 C 92 % 1031,0 hPa 0,0 l/m 17,7 km/h (3 Bft) N-NW 337 0 min 0,0 UV-I 0 W/m -4,1 C -12,3 C 22,5 km/h (4 Bft)
22.01.2023 04:57 -3,0 C -0,6 C 92 % 1031,0 hPa 0,0 l/m 14,5 km/h (3 Bft) N 360 0 min 0,0 UV-I 0 W/m -4,1 C -10,3 C 20,9 km/h (4 Bft)
22.01.2023 04:58 -3,0 C -0,6 C 92 % 1031,1 hPa 0,0 l/m 16,1 km/h (3 Bft) N 360 0 min 0,0 UV-I 0 W/m -4,1 C -11,3 C 19,3 km/h (3 Bft)
22.01.2023 04:59 -3,0 C -0,6 C 92 % 1031,0 hPa 0,0 l/m 14,5 km/h (3 Bft) N 360 0 min 0,0 UV-I 0 W/m -4,1 C -10,3 C 19,3 km/h (3 Bft)
22.01.2023 05:00 -3,0 C -0,6 C 92 % 1031,0 hPa 0,0 l/m 17,7 km/h (3 Bft) N 360 0 min 0,0 UV-I 0 W/m -4,1 C -12,3 C 22,5 km/h (4 Bft)
22.01.2023 05:01 -3,0 C -0,6 C 92 % 1031,0 hPa 0,0 l/m 17,7 km/h (3 Bft) N 360 0 min 0,0 UV-I 0 W/m -4,1 C -12,3 C 20,9 km/h (4 Bft)
22.01.2023 05:02 -3,0 C -0,6 C 92 % 1031,0 hPa 0,0 l/m 12,9 km/h (3 Bft) N 360 0 min 0,0 UV-I 0 W/m -4,1 C -9,1 C 17,7 km/h (3 Bft)
22.01.2023 05:03 -3,0 C -0,6 C 92 % 1031,0 hPa 0,0 l/m 14,5 km/h (3 Bft) N 360 0 min 0,0 UV-I 0 W/m -4,1 C -10,3 C 17,7 km/h (3 Bft)
22.01.2023 05:04 -3,0 C -0,6 C 92 % 1031,0 hPa 0,0 l/m 17,7 km/h (3 Bft) N 360 0 min 0,0 UV-I 0 W/m -4,1 C -12,3 C 25,7 km/h (4 Bft)
22.01.2023 05:05 -3,0 C -0,6 C 92 % 1031,1 hPa 0,0 l/m 16,1 km/h (3 Bft) N 360 0 min 0,0 UV-I 0 W/m -4,1 C -11,3 C 20,9 km/h (4 Bft)
22.01.2023 05:06 -3,0 C -0,6 C 92 % 1031,1 hPa 0,0 l/m 17,7 km/h (3 Bft) N 360 0 min 0,0 UV-I 0 W/m -4,1 C -12,3 C 24,1 km/h (4 Bft)
22.01.2023 05:07 -3,0 C -0,6 C 92 % 1031,1 hPa 0,0 l/m 16,1 km/h (3 Bft) N-NO 22 0 min 0,0 UV-I 0 W/m -4,1 C -11,3 C 20,9 km/h (4 Bft)
22.01.2023 05:08 -3,0 C -0,6 C 92 % 1031,0 hPa 0,0 l/m 14,5 km/h (3 Bft) N-NW 337 0 min 0,0 UV-I 0 W/m -4,1 C -10,3 C 17,7 km/h (3 Bft)
22.01.2023 05:09 -3,0 C -0,6 C 92 % 1031,1 hPa 0,0 l/m 16,1 km/h (3 Bft) N 360 0 min 0,0 UV-I 0 W/m -4,1 C -11,3 C 19,3 km/h (3 Bft)
22.01.2023 05:10 -3,0 C -0,6 C 92 % 1031,0 hPa 0,0 l/m 14,5 km/h (3 Bft) N 360 0 min 0,0 UV-I 0 W/m -4,1 C -10,3 C 19,3 km/h (3 Bft)
22.01.2023 05:11 -3,1 C -0,6 C 92 % 1031,0 hPa 0,0 l/m 12,9 km/h (3 Bft) N 360 0 min 0,0 UV-I 0 W/m -4,2 C -9,3 C 17,7 km/h (3 Bft)
22.01.2023 05:12 -3,0 C -0,6 C 92 % 1031,0 hPa 0,0 l/m 6,4 km/h (2 Bft) N 360 0 min 0,0 UV-I 0 W/m -4,1 C -3,0 C 12,9 km/h (3 Bft)
22.01.2023 05:13 -3,0 C -0,6 C 92 % 1031,0 hPa 0,0 l/m 12,9 km/h (3 Bft) N-NW 337 0 min 0,0 UV-I 0 W/m -4,1 C -9,1 C 19,3 km/h (3 Bft)
22.01.2023 05:14 -3,0 C -0,6 C 92 % 1031,1 hPa 0,0 l/m 19,3 km/h (3 Bft) N 360 0 min 0,0 UV-I 0 W/m -4,1 C -13,1 C 24,1 km/h (4 Bft)
22.01.2023 05:15 -3,0 C -0,6 C 92 % 1031,0 hPa 0,0 l/m 20,9 km/h (4 Bft) N-NW 337 0 min 0,0 UV-I 0 W/m -4,1 C -14,0 C 25,7 km/h (4 Bft)
22.01.2023 05:16 -3,0 C -0,6 C 92 % 1031,1 hPa 0,0 l/m 17,7 km/h (3 Bft) N 360 0 min 0,0 UV-I 0 W/m -4,1 C -12,3 C 19,3 km/h (3 Bft)
22.01.2023 05:17 -3,0 C -0,6 C 92 % 1030,9 hPa 0,0 l/m 12,9 km/h (3 Bft) N 360 0 min 0,0 UV-I 0 W/m -4,1 C -9,1 C 20,9 km/h (4 Bft)
22.01.2023 05:18 -3,0 C -0,6 C 92 % 1031,0 hPa 0,0 l/m 17,7 km/h (3 Bft) N 360 0 min 0,0 UV-I 0 W/m -4,1 C -12,3 C 22,5 km/h (4 Bft)
22.01.2023 05:19 -3,0 C -0,6 C 92 % 1031,0 hPa 0,0 l/m 11,3 km/h (2 Bft) N 360 0 min 0,0 UV-I 0 W/m -4,1 C -7,9 C 17,7 km/h (3 Bft)
22.01.2023 05:20 -3,0 C -0,6 C 92 % 1031,0 hPa 0,0 l/m 11,3 km/h (2 Bft) N 360 0 min 0,0 UV-I 0 W/m -4,1 C -7,9 C 14,5 km/h (3 Bft)
22.01.2023 05:21 -3,0 C -0,6 C 92 % 1031,1 hPa 0,0 l/m 8,0 km/h (2 Bft) N 360 0 min 0,0 UV-I 0 W/m -4,1 C -4,8 C 12,9 km/h (3 Bft)
22.01.2023 05:22 -3,0 C -0,6 C 92 % 1031,0 hPa 0,0 l/m 9,7 km/h (2 Bft) N 360 0 min 0,0 UV-I 0 W/m -4,1 C -6,5 C 12,9 km/h (3 Bft)
22.01.2023 05:23 -3,0 C -0,6 C 92 % 1031,1 hPa 0,0 l/m 11,3 km/h (2 Bft) N 360 0 min 0,0 UV-I 0 W/m -4,1 C -7,9 C 16,1 km/h (3 Bft)
22.01.2023 05:24 -3,0 C -0,6 C 92 % 1031,0 hPa 0,0 l/m 12,9 km/h (3 Bft) N 360 0 min 0,0 UV-I 0 W/m -4,1 C -9,1 C 16,1 km/h (3 Bft)
22.01.2023 05:25 -3,0 C -0,6 C 92 % 1031,1 hPa 0,0 l/m 17,7 km/h (3 Bft) N-NW 337 0 min 0,0 UV-I 0 W/m -4,1 C -12,3 C 25,7 km/h (4 Bft)
22.01.2023 05:26 -3,0 C -0,6 C 92 % 1031,0 hPa 0,0 l/m 17,7 km/h (3 Bft) N 360 0 min 0,0 UV-I 0 W/m -4,1 C -12,3 C 29,0 km/h (5 Bft)
22.01.2023 05:27 -3,0 C -0,6 C 92 % 1031,0 hPa 0,0 l/m 14,5 km/h (3 Bft) N 360 0 min 0,0 UV-I 0 W/m -4,1 C -10,3 C 17,7 km/h (3 Bft)
22.01.2023 05:28 -3,1 C -0,6 C 92 % 1031,1 hPa 0,0 l/m 11,3 km/h (2 Bft) N 360 0 min 0,0 UV-I 0 W/m -4,2 C -8,0 C 16,1 km/h (3 Bft)
22.01.2023 05:29 -3,0 C -0,6 C 92 % 1031,0 hPa 0,0 l/m 12,9 km/h (3 Bft) N-NW 337 0 min 0,0 UV-I 0 W/m -4,1 C -9,1 C 17,7 km/h (3 Bft)
22.01.2023 05:30 -3,1 C -0,6 C 92 % 1031,0 hPa 0,0 l/m 11,3 km/h (2 Bft) N 360 0 min 0,0 UV-I 0 W/m -4,2 C -8,0 C 16,1 km/h (3 Bft)
22.01.2023 05:31 -3,1 C -0,6 C 92 % 1031,0 hPa 0,0 l/m 9,7 km/h (2 Bft) N-NO 22 0 min 0,0 UV-I 0 W/m -4,2 C -6,6 C 14,5 km/h (3 Bft)
22.01.2023 05:32 -3,0 C -0,6 C 92 % 1031,0 hPa 0,0 l/m 16,1 km/h (3 Bft) N 360 0 min 0,0 UV-I 0 W/m -4,1 C -11,3 C 20,9 km/h (4 Bft)
22.01.2023 05:33 -3,0 C -0,6 C 92 % 1031,1 hPa 0,0 l/m 14,5 km/h (3 Bft) N 360 0 min 0,0 UV-I 0 W/m -4,1 C -10,3 C 19,3 km/h (3 Bft)
22.01.2023 05:34 -3,0 C -0,6 C 92 % 1031,1 hPa 0,0 l/m 14,5 km/h (3 Bft) N 360 0 min 0,0 UV-I 0 W/m -4,1 C -10,3 C 20,9 km/h (4 Bft)
22.01.2023 05:35 -3,1 C -0,6 C 92 % 1031,1 hPa 0,0 l/m 11,3 km/h (2 Bft) N 360 0 min 0,0 UV-I 0 W/m -4,2 C -8,0 C 19,3 km/h (3 Bft)
22.01.2023 05:36 -3,0 C -0,6 C 92 % 1031,2 hPa 0,0 l/m 17,7 km/h (3 Bft) N 360 0 min 0,0 UV-I 0 W/m -4,1 C -12,3 C 24,1 km/h (4 Bft)
22.01.2023 05:37 -3,1 C -0,6 C 92 % 1031,1 hPa 0,0 l/m 17,7 km/h (3 Bft) N-NW 337 0 min 0,0 UV-I 0 W/m -4,2 C -12,4 C 25,7 km/h (4 Bft)
22.01.2023 05:38 -3,1 C -0,6 C 92 % 1031,1 hPa 0,0 l/m 22,5 km/h (4 Bft) N-NW 337 0 min 0,0 UV-I 0 W/m -4,2 C -14,8 C 27,4 km/h (4 Bft)
22.01.2023 05:39 -3,1 C -0,6 C 92 % 1031,1 hPa 0,0 l/m 19,3 km/h (3 Bft) N 360 0 min 0,0 UV-I 0 W/m -4,2 C -13,3 C 24,1 km/h (4 Bft)
22.01.2023 05:40 -3,1 C -0,6 C 92 % 1031,2 hPa 0,0 l/m 16,1 km/h (3 Bft) N 360 0 min 0,0 UV-I 0 W/m -4,2 C -11,4 C 25,7 km/h (4 Bft)
22.01.2023 05:41 -3,1 C -0,6 C 92 % 1031,1 hPa 0,0 l/m 11,3 km/h (2 Bft) N 360 0 min 0,0 UV-I 0 W/m -4,2 C -8,0 C 17,7 km/h (3 Bft)
22.01.2023 05:42 -3,1 C -0,6 C 92 % 1031,1 hPa 0,0 l/m 12,9 km/h (3 Bft) N 360 0 min 0,0 UV-I 0 W/m -4,2 C -9,3 C 19,3 km/h (3 Bft)
22.01.2023 05:43 -3,1 C -0,6 C 92 % 1031,1 hPa 0,0 l/m 17,7 km/h (3 Bft) N-NW 337 0 min 0,0 UV-I 0 W/m -4,2 C -12,4 C 20,9 km/h (4 Bft)
22.01.2023 05:44 -3,1 C -0,6 C 92 % 1031,1 hPa 0,0 l/m 16,1 km/h (3 Bft) N 360 0 min 0,0 UV-I 0 W/m -4,2 C -11,4 C 17,7 km/h (3 Bft)
22.01.2023 05:45 -3,0 C -0,6 C 92 % 1031,2 hPa 0,0 l/m 14,5 km/h (3 Bft) N 360 0 min 0,0 UV-I 0 W/m -4,1 C -10,3 C 24,1 km/h (4 Bft)
22.01.2023 05:46 -3,0 C -0,6 C 92 % 1031,2 hPa 0,0 l/m 16,1 km/h (3 Bft) N 360 0 min 0,0 UV-I 0 W/m -4,1 C -11,3 C 20,9 km/h (4 Bft)
22.01.2023 05:47 -3,0 C -0,6 C 92 % 1031,1 hPa 0,0 l/m 16,1 km/h (3 Bft) N 360 0 min 0,0 UV-I 0 W/m -4,1 C -11,3 C 20,9 km/h (4 Bft)
22.01.2023 05:48 -3,1 C -0,6 C 92 % 1031,1 hPa 0,0 l/m 12,9 km/h (3 Bft) N 360 0 min 0,0 UV-I 0 W/m -4,2 C -9,3 C 19,3 km/h (3 Bft)
22.01.2023 05:49 -3,1 C -0,6 C 92 % 1031,1 hPa 0,0 l/m 14,5 km/h (3 Bft) N 360 0 min 0,0 UV-I 0 W/m -4,2 C -10,4 C 20,9 km/h (4 Bft)
22.01.2023 05:50 -3,1 C -0,6 C 92 % 1031,1 hPa 0,0 l/m 17,7 km/h (3 Bft) N 360 0 min 0,0 UV-I 0 W/m -4,2 C -12,4 C 25,7 km/h (4 Bft)
22.01.2023 05:51 -3,0 C -0,6 C 92 % 1031,2 hPa 0,0 l/m 11,3 km/h (2 Bft) N 360 0 min 0,0 UV-I 0 W/m -4,1 C -7,9 C 16,1 km/h (3 Bft)
22.01.2023 05:52 -3,1 C -0,6 C 92 % 1031,2 hPa 0,0 l/m 16,1 km/h (3 Bft) N 360 0 min 0,0 UV-I 0 W/m -4,2 C -11,4 C 17,7 km/h (3 Bft)
22.01.2023 05:53 -3,1 C -0,6 C 92 % 1031,2 hPa 0,0 l/m 11,3 km/h (2 Bft) N 360 0 min 0,0 UV-I 0 W/m -4,2 C -8,0 C 17,7 km/h (3 Bft)
22.01.2023 05:54 -3,1 C -0,6 C 92 % 1031,2 hPa 0,0 l/m 14,5 km/h (3 Bft) N-NW 337 0 min 0,0 UV-I 0 W/m -4,2 C -10,4 C 20,9 km/h (4 Bft)
22.01.2023 05:55 -3,1 C -0,6 C 92 % 1031,1 hPa 0,0 l/m 14,5 km/h (3 Bft) N 360 0 min 0,0 UV-I 0 W/m -4,2 C -10,4 C 19,3 km/h (3 Bft)
22.01.2023 05:56 -3,1 C -0,6 C 92 % 1031,2 hPa 0,0 l/m 11,3 km/h (2 Bft) N 360 0 min 0,0 UV-I 0 W/m -4,2 C -8,0 C 20,9 km/h (4 Bft)
22.01.2023 05:57 -3,1 C -0,6 C 92 % 1031,2 hPa 0,0 l/m 16,1 km/h (3 Bft) N 360 0 min 0,0 UV-I 0 W/m -4,2 C -11,4 C 20,9 km/h (4 Bft)
22.01.2023 05:58 -3,1 C -0,6 C 92 % 1031,2 hPa 0,0 l/m 14,5 km/h (3 Bft) N 360 0 min 0,0 UV-I 0 W/m -4,2 C -10,4 C 17,7 km/h (3 Bft)
22.01.2023 05:59 -3,1 C -0,6 C 92 % 1031,1 hPa 0,0 l/m 19,3 km/h (3 Bft) N-NW 337 0 min 0,0 UV-I 0 W/m -4,2 C -13,3 C 22,5 km/h (4 Bft)
22.01.2023 06:00 -3,1 C -0,6 C 92 % 1031,2 hPa 0,0 l/m 17,7 km/h (3 Bft) N-NW 337 0 min 0,0 UV-I 0 W/m -4,2 C -12,4 C 20,9 km/h (4 Bft)
22.01.2023 06:01 -3,1 C -0,6 C 92 % 1031,2 hPa 0,0 l/m 16,1 km/h (3 Bft) N 360 0 min 0,0 UV-I 0 W/m -4,2 C -11,4 C 19,3 km/h (3 Bft)
22.01.2023 06:02 -3,1 C -0,6 C 92 % 1031,1 hPa 0,0 l/m 16,1 km/h (3 Bft) N-NW 337 0 min 0,0 UV-I 0 W/m -4,2 C -11,4 C 17,7 km/h (3 Bft)
22.01.2023 06:03 -3,1 C 0,0 C 92 % 1031,1 hPa 0,0 l/m 16,1 km/h (3 Bft) N 360 0 min 0,0 UV-I 0 W/m -4,2 C -11,4 C 22,5 km/h (4 Bft)
22.01.2023 06:04 -3,1 C 0,0 C 92 % 1031,1 hPa 0,0 l/m 14,5 km/h (3 Bft) N 360 0 min 0,0 UV-I 0 W/m -4,2 C -10,4 C 22,5 km/h (4 Bft)
22.01.2023 06:05 -3,1 C 0,0 C 92 % 1031,1 hPa 0,0 l/m 16,1 km/h (3 Bft) N 360 0 min 0,0 UV-I 0 W/m -4,2 C -11,4 C 22,5 km/h (4 Bft)
22.01.2023 06:06 -3,1 C 0,0 C 92 % 1031,1 hPa 0,0 l/m 16,1 km/h (3 Bft) N 360 0 min 0,0 UV-I 0 W/m -4,2 C -11,4 C 20,9 km/h (4 Bft)
22.01.2023 06:07 -3,1 C 0,0 C 92 % 1031,0 hPa 0,0 l/m 19,3 km/h (3 Bft) N-NW 337 0 min 0,0 UV-I 0 W/m -4,2 C -13,3 C 27,4 km/h (4 Bft)
22.01.2023 06:08 -3,1 C 0,0 C 92 % 1031,1 hPa 0,0 l/m 14,5 km/h (3 Bft) N 360 0 min 0,0 UV-I 0 W/m -4,2 C -10,4 C 17,7 km/h (3 Bft)
22.01.2023 06:09 -3,1 C 0,0 C 92 % 1031,0 hPa 0,0 l/m 14,5 km/h (3 Bft) N 360 0 min 0,0 UV-I 0 W/m -4,2 C -10,4 C 20,9 km/h (4 Bft)
22.01.2023 06:10 -3,1 C 0,0 C 92 % 1031,0 hPa 0,0 l/m 12,9 km/h (3 Bft) N 360 0 min 0,0 UV-I 0 W/m -4,2 C -9,3 C 17,7 km/h (3 Bft)
22.01.2023 06:11 -3,1 C 0,0 C 92 % 1031,1 hPa 0,0 l/m 17,7 km/h (3 Bft) N 360 0 min 0,0 UV-I 0 W/m -4,2 C -12,4 C 24,1 km/h (4 Bft)
22.01.2023 06:12 -3,1 C -0,6 C 92 % 1031,1 hPa 0,0 l/m 16,1 km/h (3 Bft) N 360 0 min 0,0 UV-I 0 W/m -4,2 C -11,4 C 20,9 km/h (4 Bft)
22.01.2023 06:13 -3,1 C -0,6 C 92 % 1031,1 hPa 0,0 l/m 14,5 km/h (3 Bft) N 360 0 min 0,0 UV-I 0 W/m -4,2 C -10,4 C 19,3 km/h (3 Bft)
22.01.2023 06:14 -3,1 C -0,6 C 92 % 1031,2 hPa 0,0 l/m 19,3 km/h (3 Bft) N 360 0 min 0,0 UV-I 0 W/m -4,2 C -13,3 C 25,7 km/h (4 Bft)
22.01.2023 06:15 -3,1 C -0,6 C 92 % 1031,1 hPa 0,0 l/m 16,1 km/h (3 Bft) N 360 0 min 0,0 UV-I 0 W/m -4,2 C -11,4 C 20,9 km/h (4 Bft)
22.01.2023 06:16 -3,1 C -0,6 C 92 % 1031,1 hPa 0,0 l/m 12,9 km/h (3 Bft) N 360 0 min 0,0 UV-I 0 W/m -4,2 C -9,3 C 19,3 km/h (3 Bft)
22.01.2023 06:17 -3,1 C -0,6 C 92 % 1031,2 hPa 0,0 l/m 14,5 km/h (3 Bft) N-NW 337 0 min 0,0 UV-I 0 W/m -4,2 C -10,4 C 16,1 km/h (3 Bft)
22.01.2023 06:18 -3,1 C -0,6 C 92 % 1031,2 hPa 0,0 l/m 17,7 km/h (3 Bft) N 360 0 min 0,0 UV-I 0 W/m -4,2 C -12,4 C 20,9 km/h (4 Bft)
22.01.2023 06:19 -3,1 C 0,0 C 92 % 1031,2 hPa 0,0 l/m 17,7 km/h (3 Bft) N 360 0 min 0,0 UV-I 0 W/m -4,2 C -12,4 C 22,5 km/h (4 Bft)
22.01.2023 06:20 -3,1 C 0,0 C 92 % 1031,1 hPa 0,0 l/m 16,1 km/h (3 Bft) N 360 0 min 0,0 UV-I 0 W/m -4,2 C -11,4 C 20,9 km/h (4 Bft)
22.01.2023 06:21 -3,1 C 0,0 C 92 % 1031,1 hPa 0,0 l/m 14,5 km/h (3 Bft) N 360 0 min 0,0 UV-I 0 W/m -4,2 C -10,4 C 17,7 km/h (3 Bft)
22.01.2023 06:22 -3,1 C 0,0 C 92 % 1031,2 hPa 0,0 l/m 16,1 km/h (3 Bft) N 360 0 min 0,0 UV-I 0 W/m -4,2 C -11,4 C 19,3 km/h (3 Bft)
22.01.2023 06:23 -3,1 C 0,0 C 92 % 1031,2 hPa 0,0 l/m 16,1 km/h (3 Bft) N 360 0 min 0,0 UV-I 0 W/m -4,2 C -11,4 C 20,9 km/h (4 Bft)
22.01.2023 06:24 -3,1 C 0,0 C 92 % 1031,2 hPa 0,0 l/m 16,1 km/h (3 Bft) N 360 0 min 0,0 UV-I 0 W/m -4,2 C -11,4 C 22,5 km/h (4 Bft)
22.01.2023 06:25 -3,1 C 0,0 C 92 % 1031,2 hPa 0,0 l/m 9,7 km/h (2 Bft) N 360 0 min 0,0 UV-I 0 W/m -4,2 C -6,6 C 14,5 km/h (3 Bft)
22.01.2023 06:26 -3,1 C 0,0 C 92 % 1031,2 hPa 0,0 l/m 8,0 km/h (2 Bft) N-NW 337 0 min 0,0 UV-I 0 W/m -4,2 C -4,9 C 12,9 km/h (3 Bft)
22.01.2023 06:27 -3,1 C 0,0 C 92 % 1031,2 hPa 0,0 l/m 12,9 km/h (3 Bft) N-NW 337 0 min 0,0 UV-I 0 W/m -4,2 C -9,3 C 17,7 km/h (3 Bft)
22.01.2023 06:28 -3,1 C 0,0 C 92 % 1031,1 hPa 0,0 l/m 14,5 km/h (3 Bft) N 360 0 min 0,0 UV-I 0 W/m -4,2 C -10,4 C 16,1 km/h (3 Bft)
22.01.2023 06:29 -3,1 C 0,0 C 92 % 1031,2 hPa 0,0 l/m 14,5 km/h (3 Bft) N 360 0 min 0,0 UV-I 0 W/m -4,2 C -10,4 C 17,7 km/h (3 Bft)
22.01.2023 06:30 -3,1 C -0,6 C 92 % 1031,2 hPa 0,0 l/m 16,1 km/h (3 Bft) N-NW 337 0 min 0,0 UV-I 0 W/m -4,2 C -11,4 C 19,3 km/h (3 Bft)
22.01.2023 06:31 -3,1 C 0,0 C 92 % 1031,2 hPa 0,0 l/m 16,1 km/h (3 Bft) N 360 0 min 0,0 UV-I 0 W/m -4,2 C -11,4 C 19,3 km/h (3 Bft)
22.01.2023 06:32 -3,1 C 0,0 C 92 % 1031,2 hPa 0,0 l/m 17,7 km/h (3 Bft) N-NW 337 0 min 0,0 UV-I 0 W/m -4,2 C -12,4 C 22,5 km/h (4 Bft)
22.01.2023 06:33 -3,1 C 0,0 C 92 % 1031,2 hPa 0,0 l/m 19,3 km/h (3 Bft) N 360 0 min 0,0 UV-I 0 W/m -4,2 C -13,3 C 24,1 km/h (4 Bft)
22.01.2023 06:34 -3,1 C 0,0 C 92 % 1031,2 hPa 0,0 l/m 20,9 km/h (4 Bft) N 360 0 min 0,0 UV-I 0 W/m -4,2 C -14,1 C 24,1 km/h (4 Bft)
22.01.2023 06:35 -3,1 C 0,0 C 92 % 1031,2 hPa 0,0 l/m 16,1 km/h (3 Bft) N 360 0 min 0,0 UV-I 0 W/m -4,2 C -11,4 C 22,5 km/h (4 Bft)
22.01.2023 06:36 -3,1 C 0,0 C 92 % 1031,2 hPa 0,0 l/m 14,5 km/h (3 Bft) N 360 0 min 0,0 UV-I 0 W/m -4,2 C -10,4 C 19,3 km/h (3 Bft)
22.01.2023 06:37 -3,1 C 0,0 C 92 % 1031,2 hPa 0,0 l/m 14,5 km/h (3 Bft) N 360 0 min 0,0 UV-I 0 W/m -4,2 C -10,4 C 19,3 km/h (3 Bft)
22.01.2023 06:38 -3,1 C 0,0 C 92 % 1031,2 hPa 0,0 l/m 14,5 km/h (3 Bft) N-NW 337 0 min 0,0 UV-I 0 W/m -4,2 C -10,4 C 19,3 km/h (3 Bft)
22.01.2023 06:39 -3,1 C 0,0 C 92 % 1031,2 hPa 0,0 l/m 16,1 km/h (3 Bft) N-NW 337 0 min 0,0 UV-I 0 W/m -4,2 C -11,4 C 19,3 km/h (3 Bft)
22.01.2023 06:40 -3,1 C 0,0 C 92 % 1031,2 hPa 0,0 l/m 16,1 km/h (3 Bft) N-NW 337 0 min 0,0 UV-I 0 W/m -4,2 C -11,4 C 20,9 km/h (4 Bft)
22.01.2023 06:41 -3,1 C 0,0 C 92 % 1031,2 hPa 0,0 l/m 16,1 km/h (3 Bft) N 360 0 min 0,0 UV-I 0 W/m -4,2 C -11,4 C 17,7 km/h (3 Bft)
22.01.2023 06:42 -3,1 C 0,0 C 92 % 1031,2 hPa 0,0 l/m 19,3 km/h (3 Bft) N-NW 337 0 min 0,0 UV-I 0 W/m -4,2 C -13,3 C 22,5 km/h (4 Bft)
22.01.2023 06:43 -3,1 C 0,0 C 92 % 1031,2 hPa 0,0 l/m 16,1 km/h (3 Bft) N 360 0 min 0,0 UV-I 0 W/m -4,2 C -11,4 C 22,5 km/h (4 Bft)
22.01.2023 06:44 -3,1 C 0,0 C 92 % 1031,2 hPa 0,0 l/m 16,1 km/h (3 Bft) N 360 0 min 0,0 UV-I 0 W/m -4,2 C -11,4 C 20,9 km/h (4 Bft)
22.01.2023 06:45 -3,1 C 0,0 C 92 % 1031,2 hPa 0,0 l/m 11,3 km/h (2 Bft) NW 315 0 min 0,0 UV-I 0 W/m -4,2 C -8,0 C 19,3 km/h (3 Bft)
22.01.2023 06:46 -3,1 C 0,0 C 92 % 1031,2 hPa 0,0 l/m 12,9 km/h (3 Bft) N-NW 337 0 min 0,0 UV-I 0 W/m -4,2 C -9,3 C 22,5 km/h (4 Bft)
22.01.2023 06:47 -3,1 C 0,0 C 92 % 1031,2 hPa 0,0 l/m 16,1 km/h (3 Bft) N-NW 337 0 min 0,0 UV-I 0 W/m -4,2 C -11,4 C 19,3 km/h (3 Bft)
22.01.2023 06:48 -3,1 C 0,0 C 92 % 1031,2 hPa 0,0 l/m 12,9 km/h (3 Bft) N 360 0 min 0,0 UV-I 0 W/m -4,2 C -9,3 C 17,7 km/h (3 Bft)
22.01.2023 06:49 -3,1 C 0,0 C 92 % 1031,2 hPa 0,0 l/m 14,5 km/h (3 Bft) N-NW 337 0 min 0,0 UV-I 0 W/m -4,2 C -10,4 C 19,3 km/h (3 Bft)
22.01.2023 06:50 -3,1 C 0,0 C 92 % 1031,2 hPa 0,0 l/m 12,9 km/h (3 Bft) N 360 0 min 0,0 UV-I 0 W/m -4,2 C -9,3 C 17,7 km/h (3 Bft)
22.01.2023 06:51 -3,1 C 0,0 C 92 % 1031,2 hPa 0,0 l/m 11,3 km/h (2 Bft) N 360 0 min 0,0 UV-I 0 W/m -4,2 C -8,0 C 16,1 km/h (3 Bft)
22.01.2023 06:52 -3,1 C 0,0 C 92 % 1031,2 hPa 0,0 l/m 16,1 km/h (3 Bft) N-NW 337 0 min 0,0 UV-I 0 W/m -4,2 C -11,4 C 20,9 km/h (4 Bft)
22.01.2023 06:53 -3,1 C 0,0 C 92 % 1031,3 hPa 0,0 l/m 16,1 km/h (3 Bft) N 360 0 min 0,0 UV-I 0 W/m -4,2 C -11,4 C 19,3 km/h (3 Bft)
22.01.2023 06:54 -3,1 C 0,0 C 92 % 1031,3 hPa 0,0 l/m 16,1 km/h (3 Bft) N-NW 337 0 min 0,0 UV-I 0 W/m -4,2 C -11,4 C 19,3 km/h (3 Bft)
22.01.2023 06:55 -3,1 C 0,0 C 92 % 1031,2 hPa 0,0 l/m 14,5 km/h (3 Bft) N-NW 337 0 min 0,0 UV-I 0 W/m -4,2 C -10,4 C 19,3 km/h (3 Bft)
22.01.2023 06:56 -3,1 C 0,0 C 92 % 1031,3 hPa 0,0 l/m 12,9 km/h (3 Bft) N-NW 337 0 min 0,0 UV-I 0 W/m -4,2 C -9,3 C 19,3 km/h (3 Bft)
22.01.2023 06:57 -3,1 C 0,0 C 92 % 1031,2 hPa 0,0 l/m 12,9 km/h (3 Bft) N 360 0 min 0,0 UV-I 0 W/m -4,2 C -9,3 C 17,7 km/h (3 Bft)
22.01.2023 06:58 -3,1 C 0,0 C 92 % 1031,1 hPa 0,0 l/m 9,7 km/h (2 Bft) N-NW 337 0 min 0,0 UV-I 0 W/m -4,2 C -6,6 C 14,5 km/h (3 Bft)
22.01.2023 06:59 -3,1 C 0,0 C 92 % 1031,1 hPa 0,0 l/m 12,9 km/h (3 Bft) N 360 0 min 0,0 UV-I 0 W/m -4,2 C -9,3 C 16,1 km/h (3 Bft)
22.01.2023 07:00 -3,1 C 0,0 C 92 % 1031,2 hPa 0,0 l/m 12,9 km/h (3 Bft) N-NW 337 0 min 0,0 UV-I 0 W/m -4,2 C -9,3 C 17,7 km/h (3 Bft)
22.01.2023 07:01 -3,1 C 0,0 C 92 % 1031,2 hPa 0,0 l/m 11,3 km/h (2 Bft) N 360 0 min 0,0 UV-I 0 W/m -4,2 C -8,0 C 16,1 km/h (3 Bft)
22.01.2023 07:02 -3,1 C 0,0 C 92 % 1031,2 hPa 0,0 l/m 11,3 km/h (2 Bft) N 360 0 min 0,0 UV-I 0 W/m -4,2 C -8,0 C 16,1 km/h (3 Bft)
22.01.2023 07:03 -3,1 C 0,0 C 92 % 1031,2 hPa 0,0 l/m 9,7 km/h (2 Bft) N-NW 337 0 min 0,0 UV-I 0 W/m -4,2 C -6,6 C 16,1 km/h (3 Bft)
22.01.2023 07:04 -3,1 C 0,0 C 92 % 1031,2 hPa 0,0 l/m 11,3 km/h (2 Bft) N 360 0 min 0,0 UV-I 0 W/m -4,2 C -8,0 C 14,5 km/h (3 Bft)
22.01.2023 07:05 -3,1 C 0,0 C 92 % 1031,3 hPa 0,0 l/m 12,9 km/h (3 Bft) N 360 0 min 0,0 UV-I 0 W/m -4,2 C -9,3 C 17,7 km/h (3 Bft)
22.01.2023 07:06 -3,1 C 0,0 C 92 % 1031,2 hPa 0,0 l/m 14,5 km/h (3 Bft) N-NW 337 0 min 0,0 UV-I 0 W/m -4,2 C -10,4 C 19,3 km/h (3 Bft)
22.01.2023 07:07 -3,1 C 0,0 C 92 % 1031,2 hPa 0,0 l/m 14,5 km/h (3 Bft) N 360 0 min 0,0 UV-I 0 W/m -4,2 C -10,4 C 17,7 km/h (3 Bft)
22.01.2023 07:08 -3,1 C 0,0 C 92 % 1031,2 hPa 0,0 l/m 12,9 km/h (3 Bft) N 360 0 min 0,0 UV-I 0 W/m -4,2 C -9,3 C 14,5 km/h (3 Bft)
22.01.2023 07:09 -3,1 C 0,0 C 92 % 1031,2 hPa 0,0 l/m 12,9 km/h (3 Bft) N 360 0 min 0,0 UV-I 0 W/m -4,2 C -9,3 C 16,1 km/h (3 Bft)
22.01.2023 07:10 -3,1 C 0,0 C 92 % 1031,2 hPa 0,0 l/m 8,0 km/h (2 Bft) N 360 0 min 0,0 UV-I 0 W/m -4,2 C -4,9 C 12,9 km/h (3 Bft)
22.01.2023 07:11 -3,1 C 0,0 C 92 % 1031,2 hPa 0,0 l/m 17,7 km/h (3 Bft) N 360 0 min 0,0 UV-I 0 W/m -4,2 C -12,4 C 22,5 km/h (4 Bft)
22.01.2023 07:12 -3,1 C 0,0 C 92 % 1031,3 hPa 0,0 l/m 16,1 km/h (3 Bft) N 360 0 min 0,0 UV-I 0 W/m -4,2 C -11,4 C 19,3 km/h (3 Bft)
22.01.2023 07:13 -3,1 C 0,0 C 92 % 1031,2 hPa 0,0 l/m 12,9 km/h (3 Bft) N 360 0 min 0,0 UV-I 0 W/m -4,2 C -9,3 C 14,5 km/h (3 Bft)
22.01.2023 07:14 -3,1 C 0,0 C 92 % 1031,3 hPa 0,0 l/m 14,5 km/h (3 Bft) N-NW 337 0 min 0,0 UV-I 0 W/m -4,2 C -10,4 C 17,7 km/h (3 Bft)
22.01.2023 07:15 -3,1 C 0,0 C 92 % 1031,2 hPa 0,0 l/m 12,9 km/h (3 Bft) N 360 0 min 0,0 UV-I 0 W/m -4,2 C -9,3 C 17,7 km/h (3 Bft)
22.01.2023 07:16 -3,1 C 0,0 C 92 % 1031,2 hPa 0,0 l/m 12,9 km/h (3 Bft) N 360 0 min 0,0 UV-I 0 W/m -4,2 C -9,3 C 19,3 km/h (3 Bft)
22.01.2023 07:17 -3,1 C 0,0 C 92 % 1031,2 hPa 0,0 l/m 14,5 km/h (3 Bft) N-NW 337 0 min 0,0 UV-I 0 W/m -4,2 C -10,4 C 22,5 km/h (4 Bft)
22.01.2023 07:18 -3,1 C 0,0 C 92 % 1031,2 hPa 0,0 l/m 14,5 km/h (3 Bft) N-NW 337 0 min 0,0 UV-I 0 W/m -4,2 C -10,4 C 19,3 km/h (3 Bft)
22.01.2023 07:19 -3,1 C 0,0 C 92 % 1031,2 hPa 0,0 l/m 17,7 km/h (3 Bft) N 360 0 min 0,0 UV-I 0 W/m -4,2 C -12,4 C 24,1 km/h (4 Bft)
22.01.2023 07:20 -3,1 C 0,0 C 92 % 1031,1 hPa 0,0 l/m 17,7 km/h (3 Bft) N-NW 337 0 min 0,0 UV-I 0 W/m -4,2 C -12,4 C 20,9 km/h (4 Bft)
22.01.2023 07:21 -3,1 C 0,0 C 92 % 1031,1 hPa 0,0 l/m 19,3 km/h (3 Bft) N-NW 337 0 min 0,0 UV-I 0 W/m -4,2 C -13,3 C 22,5 km/h (4 Bft)
22.01.2023 07:22 -3,1 C 0,0 C 92 % 1031,2 hPa 0,0 l/m 17,7 km/h (3 Bft) N 360 0 min 0,0 UV-I 0 W/m -4,2 C -12,4 C 22,5 km/h (4 Bft)
22.01.2023 07:23 -3,1 C 0,0 C 92 % 1031,2 hPa 0,0 l/m 22,5 km/h (4 Bft) N-NW 337 0 min 0,0 UV-I 0 W/m -4,2 C -14,8 C 29,0 km/h (5 Bft)
22.01.2023 07:24 -3,1 C 0,0 C 92 % 1031,2 hPa 0,0 l/m 16,1 km/h (3 Bft) N-NW 337 0 min 0,0 UV-I 0 W/m -4,2 C -11,4 C 20,9 km/h (4 Bft)
22.01.2023 07:25 -3,1 C 0,0 C 92 % 1031,2 hPa 0,0 l/m 14,5 km/h (3 Bft) N-NW 337 0 min 0,0 UV-I 0 W/m -4,2 C -10,4 C 22,5 km/h (4 Bft)
22.01.2023 07:26 -3,1 C 0,0 C 92 % 1031,2 hPa 0,0 l/m 11,3 km/h (2 Bft) N 360 0 min 0,0 UV-I 0 W/m -4,2 C -8,0 C 14,5 km/h (3 Bft)
22.01.2023 07:27 -3,1 C 0,0 C 92 % 1031,2 hPa 0,0 l/m 12,9 km/h (3 Bft) N-NW 337 0 min 0,0 UV-I 0 W/m -4,2 C -9,3 C 17,7 km/h (3 Bft)
22.01.2023 07:28 -3,1 C 0,0 C 92 % 1031,2 hPa 0,0 l/m 14,5 km/h (3 Bft) N-NW 337 0 min 0,0 UV-I 0 W/m -4,2 C -10,4 C 20,9 km/h (4 Bft)
22.01.2023 07:29 -3,1 C 0,0 C 92 % 1031,2 hPa 0,0 l/m 9,7 km/h (2 Bft) N 360 0 min 0,0 UV-I 0 W/m -4,2 C -6,6 C 12,9 km/h (3 Bft)
22.01.2023 07:30 -3,1 C 0,0 C 92 % 1031,2 hPa 0,0 l/m 14,5 km/h (3 Bft) N-NW 337 0 min 0,0 UV-I 0 W/m -4,2 C -10,4 C 19,3 km/h (3 Bft)
22.01.2023 07:31 -3,1 C 0,0 C 92 % 1031,2 hPa 0,0 l/m 16,1 km/h (3 Bft) N 360 0 min 0,0 UV-I 0 W/m -4,2 C -11,4 C 20,9 km/h (4 Bft)
22.01.2023 07:32 -3,1 C 0,0 C 92 % 1031,2 hPa 0,0 l/m 14,5 km/h (3 Bft) N-NW 337 0 min 0,0 UV-I 0 W/m -4,2 C -10,4 C 20,9 km/h (4 Bft)
22.01.2023 07:33 -3,1 C 0,0 C 92 % 1031,2 hPa 0,0 l/m 17,7 km/h (3 Bft) N-NW 337 0 min 0,0 UV-I 0 W/m -4,2 C -12,4 C 20,9 km/h (4 Bft)
22.01.2023 07:34 -3,1 C 0,0 C 92 % 1031,2 hPa 0,0 l/m 12,9 km/h (3 Bft) N-NW 337 0 min 0,0 UV-I 0 W/m -4,2 C -9,3 C 17,7 km/h (3 Bft)
22.01.2023 07:35 -3,1 C 0,0 C 92 % 1031,3 hPa 0,0 l/m 14,5 km/h (3 Bft) N-NW 337 0 min 0,0 UV-I 0 W/m -4,2 C -10,4 C 17,7 km/h (3 Bft)
22.01.2023 07:36 -3,1 C 0,0 C 92 % 1031,2 hPa 0,0 l/m 14,5 km/h (3 Bft) N-NW 337 0 min 0,0 UV-I 0 W/m -4,2 C -10,4 C 20,9 km/h (4 Bft)
22.01.2023 07:37 -3,1 C 0,0 C 92 % 1031,2 hPa 0,0 l/m 17,7 km/h (3 Bft) N-NW 337 0 min 0,0 UV-I 0 W/m -4,2 C -12,4 C 22,5 km/h (4 Bft)
22.01.2023 07:38 -3,0 C 0,0 C 92 % 1031,2 hPa 0,0 l/m 17,7 km/h (3 Bft) N-NW 337 0 min 0,0 UV-I 0 W/m -4,1 C -12,3 C 22,5 km/h (4 Bft)
22.01.2023 07:39 -3,1 C 0,0 C 92 % 1031,3 hPa 0,0 l/m 16,1 km/h (3 Bft) N 360 0 min 0,0 UV-I 0 W/m -4,2 C -11,4 C 19,3 km/h (3 Bft)
22.01.2023 07:40 -3,1 C 0,0 C 92 % 1031,2 hPa 0,0 l/m 16,1 km/h (3 Bft) N-NW 337 0 min 0,0 UV-I 0 W/m -4,2 C -11,4 C 17,7 km/h (3 Bft)
22.01.2023 07:41 -3,1 C 0,0 C 92 % 1031,3 hPa 0,0 l/m 11,3 km/h (2 Bft) N-NW 337 0 min 0,0 UV-I 0 W/m -4,2 C -8,0 C 14,5 km/h (3 Bft)
22.01.2023 07:42 -3,1 C 0,0 C 92 % 1031,3 hPa 0,0 l/m 12,9 km/h (3 Bft) N 360 0 min 0,0 UV-I 0 W/m -4,2 C -9,3 C 17,7 km/h (3 Bft)
22.01.2023 07:43 -3,1 C 0,0 C 92 % 1031,3 hPa 0,0 l/m 16,1 km/h (3 Bft) N 360 0 min 0,0 UV-I 0 W/m -4,2 C -11,4 C 19,3 km/h (3 Bft)
22.01.2023 07:44 -3,1 C 0,0 C 92 % 1031,2 hPa 0,0 l/m 16,1 km/h (3 Bft) N 360 0 min 0,0 UV-I 0 W/m -4,2 C -11,4 C 19,3 km/h (3 Bft)
22.01.2023 07:45 -3,1 C 0,0 C 92 % 1031,3 hPa 0,0 l/m 9,7 km/h (2 Bft) N 360 0 min 0,0 UV-I 0 W/m -4,2 C -6,6 C 14,5 km/h (3 Bft)
22.01.2023 07:46 -3,1 C 0,0 C 92 % 1031,3 hPa 0,0 l/m 9,7 km/h (2 Bft) N 360 0 min 0,0 UV-I 0 W/m -4,2 C -6,6 C 12,9 km/h (3 Bft)
22.01.2023 07:47 -3,1 C 0,0 C 92 % 1031,3 hPa 0,0 l/m 14,5 km/h (3 Bft) N-NW 337 0 min 0,0 UV-I 0 W/m -4,2 C -10,4 C 19,3 km/h (3 Bft)
22.01.2023 07:48 -3,1 C 0,0 C 92 % 1031,3 hPa 0,0 l/m 17,7 km/h (3 Bft) N-NW 337 0 min 0,0 UV-I 0 W/m -4,2 C -12,4 C 22,5 km/h (4 Bft)
22.01.2023 07:49 -3,1 C 0,0 C 92 % 1031,3 hPa 0,0 l/m 17,7 km/h (3 Bft) N 360 0 min 0,0 UV-I 0 W/m -4,2 C -12,4 C 20,9 km/h (4 Bft)
22.01.2023 07:50 -3,1 C 0,0 C 92 % 1031,3 hPa 0,0 l/m 12,9 km/h (3 Bft) N-NW 337 0 min 0,0 UV-I 0 W/m -4,2 C -9,3 C 20,9 km/h (4 Bft)
22.01.2023 07:51 -3,1 C 0,0 C 92 % 1031,4 hPa 0,0 l/m 19,3 km/h (3 Bft) N 360 0 min 0,0 UV-I 0 W/m -4,2 C -13,3 C 22,5 km/h (4 Bft)
22.01.2023 07:52 -3,1 C 0,0 C 93 % 1031,2 hPa 0,0 l/m 16,1 km/h (3 Bft) N-NW 337 0 min 0,0 UV-I 0 W/m -4,1 C -11,4 C 20,9 km/h (4 Bft)
22.01.2023 07:53 -3,1 C 0,0 C 93 % 1031,3 hPa 0,0 l/m 16,1 km/h (3 Bft) N-NW 337 0 min 0,0 UV-I 0 W/m -4,1 C -11,4 C 22,5 km/h (4 Bft)
22.01.2023 07:54 -3,1 C 0,0 C 92 % 1031,4 hPa 0,0 l/m 20,9 km/h (4 Bft) N-NW 337 0 min 0,0 UV-I 0 W/m -4,2 C -14,1 C 25,7 km/h (4 Bft)
22.01.2023 07:55 -3,1 C 0,0 C 93 % 1031,3 hPa 0,0 l/m 16,1 km/h (3 Bft) N 360 0 min 0,0 UV-I 0 W/m -4,1 C -11,4 C 22,5 km/h (4 Bft)
22.01.2023 07:56 -3,1 C 0,0 C 92 % 1031,4 hPa 0,0 l/m 20,9 km/h (4 Bft) N-NW 337 0 min 0,0 UV-I 0 W/m -4,2 C -14,1 C 25,7 km/h (4 Bft)
22.01.2023 07:57 -3,1 C 0,0 C 92 % 1031,5 hPa 0,0 l/m 17,7 km/h (3 Bft) N 360 0 min 0,0 UV-I 0 W/m -4,2 C -12,4 C 20,9 km/h (4 Bft)
22.01.2023 07:58 -3,1 C 0,0 C 93 % 1031,3 hPa 0,0 l/m 16,1 km/h (3 Bft) N 360 0 min 0,0 UV-I 0 W/m -4,1 C -11,4 C 19,3 km/h (3 Bft)
22.01.2023 07:59 -3,1 C 0,0 C 93 % 1031,5 hPa 0,0 l/m 14,5 km/h (3 Bft) N 360 0 min 0,0 UV-I 0 W/m -4,1 C -10,4 C 19,3 km/h (3 Bft)
22.01.2023 08:00 -3,1 C 0,0 C 93 % 1031,5 hPa 0,0 l/m 12,9 km/h (3 Bft) N 360 0 min 0,0 UV-I 0 W/m -4,1 C -9,3 C 19,3 km/h (3 Bft)
22.01.2023 08:01 -3,1 C 0,0 C 93 % 1031,5 hPa 0,0 l/m 16,1 km/h (3 Bft) N 360 0 min 0,0 UV-I 0 W/m -4,1 C -11,4 C 20,9 km/h (4 Bft)
22.01.2023 08:02 -3,1 C 0,0 C 93 % 1031,5 hPa 0,0 l/m 11,3 km/h (2 Bft) N 360 0 min 0,0 UV-I 0 W/m -4,1 C -8,0 C 19,3 km/h (3 Bft)
22.01.2023 08:03 -3,1 C 0,0 C 93 % 1031,5 hPa 0,0 l/m 14,5 km/h (3 Bft) N 360 0 min 0,0 UV-I 0 W/m -4,1 C -10,4 C 19,3 km/h (3 Bft)
22.01.2023 08:04 -3,1 C 0,0 C 93 % 1031,5 hPa 0,0 l/m 16,1 km/h (3 Bft) N 360 0 min 0,0 UV-I 0 W/m -4,1 C -11,4 C 22,5 km/h (4 Bft)
22.01.2023 08:05 -3,0 C 0,0 C 93 % 1031,6 hPa 0,0 l/m 12,9 km/h (3 Bft) N 360 0 min 0,0 UV-I 0 W/m -4,0 C -9,1 C 17,7 km/h (3 Bft)
22.01.2023 08:06 -3,1 C 0,0 C 93 % 1031,5 hPa 0,0 l/m 14,5 km/h (3 Bft) N 360 0 min 0,0 UV-I 0 W/m -4,1 C -10,4 C 19,3 km/h (3 Bft)
22.01.2023 08:07 -3,1 C 0,0 C 93 % 1031,6 hPa 0,0 l/m 12,9 km/h (3 Bft) N-NW 337 0 min 0,0 UV-I 0 W/m -4,1 C -9,3 C 19,3 km/h (3 Bft)
22.01.2023 08:08 -3,1 C 0,0 C 93 % 1031,5 hPa 0,0 l/m 11,3 km/h (2 Bft) N-NW 337 0 min 0,0 UV-I 0 W/m -4,1 C -8,0 C 17,7 km/h (3 Bft)
22.01.2023 08:09 -3,1 C 0,0 C 93 % 1031,6 hPa 0,0 l/m 12,9 km/h (3 Bft) N 360 0 min 0,0 UV-I 0 W/m -4,1 C -9,3 C 17,7 km/h (3 Bft)
22.01.2023 08:10 -3,0 C 0,0 C 93 % 1031,5 hPa 0,0 l/m 11,3 km/h (2 Bft) N 360 0 min 0,0 UV-I 0 W/m -4,0 C -7,9 C 16,1 km/h (3 Bft)
22.01.2023 08:11 -3,1 C 0,0 C 93 % 1031,5 hPa 0,0 l/m 14,5 km/h (3 Bft) N-NW 337 0 min 0,0 UV-I 0 W/m -4,1 C -10,4 C 19,3 km/h (3 Bft)
22.01.2023 08:12 -3,1 C 0,0 C 93 % 1031,6 hPa 0,0 l/m 11,3 km/h (2 Bft) N 360 0 min 0,0 UV-I 0 W/m -4,1 C -8,0 C 16,1 km/h (3 Bft)
22.01.2023 08:13 -3,1 C 0,0 C 93 % 1031,6 hPa 0,0 l/m 14,5 km/h (3 Bft) N 360 0 min 0,0 UV-I 0 W/m -4,1 C -10,4 C 19,3 km/h (3 Bft)
22.01.2023 08:14 -3,1 C 0,0 C 93 % 1031,5 hPa 0,0 l/m 12,9 km/h (3 Bft) N-NW 337 0 min 0,0 UV-I 0 W/m -4,1 C -9,3 C 17,7 km/h (3 Bft)
22.01.2023 08:15 -3,1 C 0,0 C 93 % 1031,5 hPa 0,0 l/m 14,5 km/h (3 Bft) N 360 0 min 0,0 UV-I 0 W/m -4,1 C -10,4 C 17,7 km/h (3 Bft)
22.01.2023 08:16 -3,1 C 0,0 C 93 % 1031,5 hPa 0,0 l/m 12,9 km/h (3 Bft) N 360 0 min 0,0 UV-I 0 W/m -4,1 C -9,3 C 19,3 km/h (3 Bft)
22.01.2023 08:17 -3,1 C 0,0 C 93 % 1031,6 hPa 0,0 l/m 16,1 km/h (3 Bft) N-NW 337 0 min 0,0 UV-I 0 W/m -4,1 C -11,4 C 17,7 km/h (3 Bft)
22.01.2023 08:18 -3,1 C 0,0 C 93 % 1031,6 hPa 0,0 l/m 17,7 km/h (3 Bft) N-NW 337 0 min 0,0 UV-I 0 W/m -4,1 C -12,4 C 20,9 km/h (4 Bft)
22.01.2023 08:19 -3,1 C 0,0 C 93 % 1031,5 hPa 0,0 l/m 19,3 km/h (3 Bft) N 360 0 min 0,0 UV-I 0 W/m -4,1 C -13,3 C 24,1 km/h (4 Bft)
22.01.2023 08:20 -3,1 C 0,0 C 93 % 1031,6 hPa 0,0 l/m 14,5 km/h (3 Bft) N 360 0 min 0,0 UV-I 0 W/m -4,1 C -10,4 C 17,7 km/h (3 Bft)
22.01.2023 08:21 -3,1 C 0,0 C 93 % 1031,6 hPa 0,0 l/m 12,9 km/h (3 Bft) N-NW 337 0 min 0,0 UV-I 0 W/m -4,1 C -9,3 C 20,9 km/h (4 Bft)
22.01.2023 08:22 -3,0 C 0,0 C 93 % 1031,5 hPa 0,0 l/m 9,7 km/h (2 Bft) N 360 0 min 0,0 UV-I 0 W/m -4,0 C -6,5 C 14,5 km/h (3 Bft)
22.01.2023 08:23 -3,1 C 0,0 C 93 % 1031,5 hPa 0,0 l/m 8,0 km/h (2 Bft) N 360 0 min 0,0 UV-I 0 W/m -4,1 C -4,9 C 14,5 km/h (3 Bft)
22.01.2023 08:24 -3,1 C 0,0 C 93 % 1031,5 hPa 0,0 l/m 9,7 km/h (2 Bft) N 360 0 min 0,0 UV-I 0 W/m -4,1 C -6,6 C 12,9 km/h (3 Bft)
22.01.2023 08:25 -3,1 C 0,0 C 93 % 1031,5 hPa 0,0 l/m 9,7 km/h (2 Bft) N 360 0 min 0,0 UV-I 0 W/m -4,1 C -6,6 C 16,1 km/h (3 Bft)
22.01.2023 08:26 -3,1 C 0,0 C 93 % 1031,5 hPa 0,0 l/m 14,5 km/h (3 Bft) N-NW 337 0 min 0,0 UV-I 0 W/m -4,1 C -10,4 C 19,3 km/h (3 Bft)
22.01.2023 08:27 -3,1 C 0,0 C 93 % 1031,5 hPa 0,0 l/m 12,9 km/h (3 Bft) N-NW 337 0 min 0,0 UV-I 0 W/m -4,1 C -9,3 C 17,7 km/h (3 Bft)
22.01.2023 08:28 -3,1 C 0,0 C 93 % 1031,5 hPa 0,0 l/m 16,1 km/h (3 Bft) N 360 0 min 0,0 UV-I 0 W/m -4,1 C -11,4 C 20,9 km/h (4 Bft)
22.01.2023 08:29 -3,1 C 0,0 C 93 % 1031,6 hPa 0,0 l/m 17,7 km/h (3 Bft) N-NW 337 0 min 0,0 UV-I 0 W/m -4,1 C -12,4 C 20,9 km/h (4 Bft)
22.01.2023 08:30 -3,1 C 0,0 C 93 % 1031,6 hPa 0,0 l/m 19,3 km/h (3 Bft) N-NW 337 0 min 0,0 UV-I 0 W/m -4,1 C -13,3 C 27,4 km/h (4 Bft)
22.01.2023 08:31 -3,1 C 0,0 C 93 % 1031,6 hPa 0,0 l/m 17,7 km/h (3 Bft) N 360 0 min 0,0 UV-I 0 W/m -4,1 C -12,4 C 24,1 km/h (4 Bft)
22.01.2023 08:32 -3,1 C 0,0 C 93 % 1031,7 hPa 0,0 l/m 16,1 km/h (3 Bft) N 360 0 min 0,0 UV-I 0 W/m -4,1 C -11,4 C 20,9 km/h (4 Bft)
22.01.2023 08:33 -3,1 C 0,0 C 93 % 1031,7 hPa 0,0 l/m 16,1 km/h (3 Bft) N 360 0 min 0,0 UV-I 0 W/m -4,1 C -11,4 C 20,9 km/h (4 Bft)
22.01.2023 08:34 -3,1 C 0,0 C 93 % 1031,7 hPa 0,0 l/m 14,5 km/h (3 Bft) N 360 0 min 0,0 UV-I 0 W/m -4,1 C -10,4 C 19,3 km/h (3 Bft)
22.01.2023 08:35 -3,1 C 0,0 C 93 % 1031,6 hPa 0,0 l/m 14,5 km/h (3 Bft) N 360 0 min 0,0 UV-I 0 W/m -4,1 C -10,4 C 16,1 km/h (3 Bft)
22.01.2023 08:36 -3,1 C 0,0 C 93 % 1031,6 hPa 0,0 l/m 12,9 km/h (3 Bft) N 360 0 min 0,0 UV-I 0 W/m -4,1 C -9,3 C 17,7 km/h (3 Bft)
22.01.2023 08:37 -3,1 C 0,0 C 93 % 1031,6 hPa 0,0 l/m 12,9 km/h (3 Bft) N 360 0 min 0,0 UV-I 0 W/m -4,1 C -9,3 C 19,3 km/h (3 Bft)
22.01.2023 08:38 -3,1 C 0,0 C 93 % 1031,6 hPa 0,0 l/m 17,7 km/h (3 Bft) N-NW 337 0 min 0,0 UV-I 0 W/m -4,1 C -12,4 C 20,9 km/h (4 Bft)
22.01.2023 08:39 -3,1 C 0,0 C 93 % 1031,6 hPa 0,0 l/m 17,7 km/h (3 Bft) N-NW 337 0 min 0,0 UV-I 0 W/m -4,1 C -12,4 C 22,5 km/h (4 Bft)
22.01.2023 08:40 -3,1 C 0,0 C 93 % 1031,7 hPa 0,0 l/m 14,5 km/h (3 Bft) N 360 0 min 0,0 UV-I 0 W/m -4,1 C -10,4 C 20,9 km/h (4 Bft)
22.01.2023 08:41 -3,1 C 0,0 C 93 % 1031,7 hPa 0,0 l/m 14,5 km/h (3 Bft) N 360 0 min 0,0 UV-I 0 W/m -4,1 C -10,4 C 20,9 km/h (4 Bft)
22.01.2023 08:42 -3,1 C 0,0 C 93 % 1031,7 hPa 0,0 l/m 16,1 km/h (3 Bft) N 360 0 min 0,0 UV-I 0 W/m -4,1 C -11,4 C 20,9 km/h (4 Bft)
22.01.2023 08:43 -3,1 C 0,0 C 93 % 1031,7 hPa 0,0 l/m 11,3 km/h (2 Bft) N 360 0 min 0,0 UV-I 3 W/m -4,1 C -8,0 C 16,1 km/h (3 Bft)
22.01.2023 08:44 -3,1 C 0,0 C 93 % 1031,7 hPa 0,0 l/m 8,0 km/h (2 Bft) N 360 0 min 0,0 UV-I 5 W/m -4,1 C -4,9 C 11,3 km/h (2 Bft)
22.01.2023 08:45 -3,1 C 0,0 C 93 % 1031,7 hPa 0,0 l/m 16,1 km/h (3 Bft) N 360 0 min 0,0 UV-I 5 W/m -4,1 C -11,4 C 20,9 km/h (4 Bft)
22.01.2023 08:46 -3,1 C 0,0 C 93 % 1031,7 hPa 0,0 l/m 14,5 km/h (3 Bft) N 360 0 min 0,0 UV-I 5 W/m -4,1 C -10,4 C 17,7 km/h (3 Bft)
22.01.2023 08:47 -3,1 C 0,0 C 92 % 1031,7 hPa 0,0 l/m 14,5 km/h (3 Bft) N 360 0 min 0,0 UV-I 5 W/m -4,2 C -10,4 C 20,9 km/h (4 Bft)
22.01.2023 08:48 -3,1 C 0,0 C 93 % 1031,8 hPa 0,0 l/m 14,5 km/h (3 Bft) N-NW 337 0 min 0,0 UV-I 6 W/m -4,1 C -10,4 C 19,3 km/h (3 Bft)
22.01.2023 08:49 -3,1 C 0,0 C 93 % 1031,8 hPa 0,0 l/m 14,5 km/h (3 Bft) N-NW 337 0 min 0,0 UV-I 7 W/m -4,1 C -10,4 C 20,9 km/h (4 Bft)
22.01.2023 08:50 -3,1 C 0,0 C 93 % 1031,8 hPa 0,0 l/m 19,3 km/h (3 Bft) N-NW 337 0 min 0,0 UV-I 7 W/m -4,1 C -13,3 C 25,7 km/h (4 Bft)
22.01.2023 08:51 -3,1 C 0,0 C 93 % 1031,8 hPa 0,0 l/m 17,7 km/h (3 Bft) N 360 0 min 0,0 UV-I 9 W/m -4,1 C -12,4 C 20,9 km/h (4 Bft)
22.01.2023 08:52 -3,1 C 0,0 C 93 % 1031,8 hPa 0,0 l/m 17,7 km/h (3 Bft) N 360 0 min 0,0 UV-I 9 W/m -4,1 C -12,4 C 22,5 km/h (4 Bft)
22.01.2023 08:53 -3,1 C 0,0 C 93 % 1031,8 hPa 0,0 l/m 16,1 km/h (3 Bft) N-NW 337 0 min 0,0 UV-I 9 W/m -4,1 C -11,4 C 19,3 km/h (3 Bft)
22.01.2023 08:54 -3,1 C 0,0 C 93 % 1031,7 hPa 0,0 l/m 16,1 km/h (3 Bft) N 360 0 min 0,0 UV-I 10 W/m -4,1 C -11,4 C 19,3 km/h (3 Bft)
22.01.2023 08:55 -3,1 C 0,0 C 92 % 1031,7 hPa 0,0 l/m 16,1 km/h (3 Bft) N-NW 337 0 min 0,0 UV-I 11 W/m -4,2 C -11,4 C 19,3 km/h (3 Bft)
22.01.2023 08:56 -3,1 C 0,0 C 93 % 1031,8 hPa 0,0 l/m 16,1 km/h (3 Bft) N-NW 337 0 min 0,0 UV-I 11 W/m -4,1 C -11,4 C 19,3 km/h (3 Bft)
22.01.2023 08:57 -3,1 C 0,0 C 93 % 1031,8 hPa 0,0 l/m 12,9 km/h (3 Bft) N 360 0 min 0,0 UV-I 11 W/m -4,1 C -9,3 C 19,3 km/h (3 Bft)
22.01.2023 08:58 -3,1 C 0,0 C 93 % 1031,8 hPa 0,0 l/m 16,1 km/h (3 Bft) N 360 0 min 0,0 UV-I 11 W/m -4,1 C -11,4 C 22,5 km/h (4 Bft)
22.01.2023 08:59 -3,0 C 0,0 C 92 % 1031,8 hPa 0,0 l/m 14,5 km/h (3 Bft) N-NW 337 0 min 0,0 UV-I 12 W/m -4,1 C -10,3 C 20,9 km/h (4 Bft)
22.01.2023 09:00 -3,0 C 0,0 C 93 % 1031,9 hPa 0,0 l/m 16,1 km/h (3 Bft) N-NW 337 0 min 0,0 UV-I 12 W/m -4,0 C -11,3 C 19,3 km/h (3 Bft)
22.01.2023 09:01 -3,0 C 0,0 C 92 % 1031,8 hPa 0,0 l/m 16,1 km/h (3 Bft) N-NW 337 0 min 0,0 UV-I 12 W/m -4,1 C -11,3 C 20,9 km/h (4 Bft)
22.01.2023 09:02 -3,0 C 0,0 C 93 % 1031,9 hPa 0,0 l/m 14,5 km/h (3 Bft) N 360 0 min 0,0 UV-I 12 W/m -4,0 C -10,3 C 19,3 km/h (3 Bft)
22.01.2023 09:03 -3,1 C 0,0 C 93 % 1031,9 hPa 0,0 l/m 19,3 km/h (3 Bft) N 360 0 min 0,0 UV-I 12 W/m -4,1 C -13,3 C 22,5 km/h (4 Bft)
22.01.2023 09:04 -3,0 C 0,0 C 93 % 1031,9 hPa 0,0 l/m 14,5 km/h (3 Bft) N 360 0 min 0,0 UV-I 12 W/m -4,0 C -10,3 C 20,9 km/h (4 Bft)
22.01.2023 09:05 -3,0 C 0,0 C 93 % 1031,9 hPa 0,0 l/m 14,5 km/h (3 Bft) N 360 0 min 0,0 UV-I 12 W/m -4,0 C -10,3 C 17,7 km/h (3 Bft)
22.01.2023 09:06 -3,0 C 0,0 C 92 % 1032,0 hPa 0,0 l/m 11,3 km/h (2 Bft) N 360 0 min 0,0 UV-I 12 W/m -4,1 C -7,9 C 16,1 km/h (3 Bft)
22.01.2023 09:07 -3,0 C 0,0 C 93 % 1032,0 hPa 0,0 l/m 11,3 km/h (2 Bft) N 360 0 min 0,0 UV-I 12 W/m -4,0 C -7,9 C 14,5 km/h (3 Bft)
22.01.2023 09:08 -3,0 C 0,0 C 92 % 1032,0 hPa 0,0 l/m 8,0 km/h (2 Bft) N 360 0 min 0,0 UV-I 12 W/m -4,1 C -4,8 C 14,5 km/h (3 Bft)
22.01.2023 09:09 -3,0 C 0,0 C 92 % 1032,1 hPa 0,0 l/m 14,5 km/h (3 Bft) N 360 0 min 0,0 UV-I 14 W/m -4,1 C -10,3 C 22,5 km/h (4 Bft)
22.01.2023 09:10 -3,0 C 0,0 C 93 % 1032,0 hPa 0,0 l/m 14,5 km/h (3 Bft) N 360 0 min 0,0 UV-I 14 W/m -4,0 C -10,3 C 22,5 km/h (4 Bft)
22.01.2023 09:11 -3,0 C 0,0 C 92 % 1032,0 hPa 0,0 l/m 12,9 km/h (3 Bft) N 360 0 min 0,0 UV-I 14 W/m -4,1 C -9,1 C 19,3 km/h (3 Bft)
22.01.2023 09:12 -3,0 C 0,0 C 92 % 1032,0 hPa 0,0 l/m 19,3 km/h (3 Bft) N-NW 337 0 min 0,0 UV-I 14 W/m -4,1 C -13,1 C 20,9 km/h (4 Bft)
22.01.2023 09:13 -3,0 C 0,0 C 93 % 1031,9 hPa 0,0 l/m 12,9 km/h (3 Bft) N 360 0 min 0,0 UV-I 16 W/m -4,0 C -9,1 C 17,7 km/h (3 Bft)
22.01.2023 09:14 -3,0 C 0,0 C 92 % 1031,9 hPa 0,0 l/m 16,1 km/h (3 Bft) N 360 0 min 0,0 UV-I 16 W/m -4,1 C -11,3 C 19,3 km/h (3 Bft)
22.01.2023 09:15 -3,0 C 0,0 C 92 % 1031,9 hPa 0,0 l/m 12,9 km/h (3 Bft) N 360 0 min 0,0 UV-I 16 W/m -4,1 C -9,1 C 17,7 km/h (3 Bft)
22.01.2023 09:16 -3,0 C 0,0 C 93 % 1032,0 hPa 0,0 l/m 12,9 km/h (3 Bft) N 360 0 min 0,0 UV-I 16 W/m -4,0 C -9,1 C 17,7 km/h (3 Bft)
22.01.2023 09:17 -3,0 C 0,0 C 93 % 1032,0 hPa 0,0 l/m 19,3 km/h (3 Bft) N 360 0 min 0,0 UV-I 18 W/m -4,0 C -13,1 C 24,1 km/h (4 Bft)
22.01.2023 09:18 -3,0 C 0,0 C 93 % 1032,0 hPa 0,0 l/m 17,7 km/h (3 Bft) N 360 0 min 0,0 UV-I 18 W/m -4,0 C -12,3 C 24,1 km/h (4 Bft)
22.01.2023 09:19 -2,9 C 0,0 C 93 % 1032,0 hPa 0,0 l/m 16,1 km/h (3 Bft) N 360 0 min 0,0 UV-I 18 W/m -3,9 C -11,2 C 24,1 km/h (4 Bft)
22.01.2023 09:20 -3,0 C 0,0 C 93 % 1032,0 hPa 0,0 l/m 20,9 km/h (4 Bft) N 360 0 min 0,0 UV-I 18 W/m -4,0 C -14,0 C 25,7 km/h (4 Bft)
22.01.2023 09:21 -2,9 C 0,0 C 93 % 1032,0 hPa 0,0 l/m 14,5 km/h (3 Bft) N 360 0 min 0,0 UV-I 18 W/m -3,9 C -10,2 C 17,7 km/h (3 Bft)
22.01.2023 09:22 -3,0 C 0,0 C 93 % 1032,0 hPa 0,0 l/m 16,1 km/h (3 Bft) N-NW 337 0 min 0,0 UV-I 19 W/m -4,0 C -11,3 C 19,3 km/h (3 Bft)
22.01.2023 09:23 -3,0 C 0,0 C 92 % 1032,0 hPa 0,0 l/m 16,1 km/h (3 Bft) N 360 0 min 0,0 UV-I 19 W/m -4,1 C -11,3 C 24,1 km/h (4 Bft)
22.01.2023 09:24 -3,0 C 0,0 C 93 % 1031,9 hPa 0,0 l/m 14,5 km/h (3 Bft) N 360 0 min 0,0 UV-I 19 W/m -4,0 C -10,3 C 20,9 km/h (4 Bft)
22.01.2023 09:25 -3,0 C 0,0 C 92 % 1032,0 hPa 0,0 l/m 14,5 km/h (3 Bft) N 360 0 min 0,0 UV-I 19 W/m -4,1 C -10,3 C 17,7 km/h (3 Bft)
22.01.2023 09:26 -3,0 C 0,0 C 93 % 1031,9 hPa 0,0 l/m 9,7 km/h (2 Bft) N 360 0 min 0,0 UV-I 19 W/m -4,0 C -6,5 C 16,1 km/h (3 Bft)
22.01.2023 09:27 -3,0 C 0,0 C 93 % 1031,9 hPa 0,0 l/m 8,0 km/h (2 Bft) N 360 0 min 0,0 UV-I 19 W/m -4,0 C -4,8 C 12,9 km/h (3 Bft)
22.01.2023 09:28 -3,0 C 0,0 C 93 % 1032,0 hPa 0,0 l/m 11,3 km/h (2 Bft) N 360 0 min 0,0 UV-I 21 W/m -4,0 C -7,9 C 14,5 km/h (3 Bft)
22.01.2023 09:29 -3,0 C 0,0 C 93 % 1031,9 hPa 0,0 l/m 11,3 km/h (2 Bft) N 360 0 min 0,0 UV-I 24 W/m -4,0 C -7,9 C 16,1 km/h (3 Bft)
22.01.2023 09:30 -3,0 C 0,0 C 93 % 1031,9 hPa 0,0 l/m 16,1 km/h (3 Bft) N 360 0 min 0,0 UV-I 26 W/m -4,0 C -11,3 C 22,5 km/h (4 Bft)
22.01.2023 09:31 -2,9 C 0,0 C 93 % 1031,9 hPa 0,0 l/m 19,3 km/h (3 Bft) N-NW 337 0 min 0,0 UV-I 25 W/m -3,9 C -13,0 C 22,5 km/h (4 Bft)
22.01.2023 09:32 -2,9 C 0,0 C 93 % 1032,0 hPa 0,0 l/m 14,5 km/h (3 Bft) N 360 0 min 0,0 UV-I 25 W/m -3,9 C -10,2 C 20,9 km/h (4 Bft)
22.01.2023 09:33 -2,9 C 0,0 C 93 % 1032,0 hPa 0,0 l/m 16,1 km/h (3 Bft) N-NW 337 0 min 0,0 UV-I 26 W/m -3,9 C -11,2 C 19,3 km/h (3 Bft)
22.01.2023 09:34 -3,0 C 0,0 C 93 % 1032,0 hPa 0,0 l/m 12,9 km/h (3 Bft) N 360 0 min 0,0 UV-I 28 W/m -4,0 C -9,1 C 16,1 km/h (3 Bft)
22.01.2023 09:35 -2,9 C 0,0 C 93 % 1032,0 hPa 0,0 l/m 11,3 km/h (2 Bft) N-NO 22 0 min 0,0 UV-I 29 W/m -3,9 C -7,8 C 17,7 km/h (3 Bft)
22.01.2023 09:36 -2,9 C 0,0 C 93 % 1031,9 hPa 0,0 l/m 14,5 km/h (3 Bft) N 360 0 min 0,0 UV-I 32 W/m -3,9 C -10,2 C 20,9 km/h (4 Bft)
22.01.2023 09:39 -3,0 C 0,0 C 93 % 1032,1 hPa 0,0 l/m 12,6 km/h (3 Bft) N-NW 345 0 min 0,0 UV-I 32 W/m -4,0 C -8,9 C 19,3 km/h (3 Bft)
22.01.2023 09:42 -2,9 C 0,0 C 93 % 1032,1 hPa 0,0 l/m 13,0 km/h (3 Bft) N 11 0 min 0,0 UV-I 37 W/m -3,9 C -9,1 C 22,5 km/h (4 Bft)
22.01.2023 09:45 -2,9 C 0,0 C 93 % 1032,1 hPa 0,0 l/m 12,1 km/h (2 Bft) N-NO 15 0 min 0,0 UV-I 37 W/m -3,9 C -8,4 C 20,9 km/h (4 Bft)
22.01.2023 09:48 -2,9 C 0,0 C 93 % 1032,1 hPa 0,0 l/m 14,5 km/h (3 Bft) N-NW 347 0 min 0,0 UV-I 42 W/m -3,9 C -10,2 C 25,7 km/h (4 Bft)
22.01.2023 09:51 -2,9 C 0,0 C 93 % 1032,1 hPa 0,0 l/m 16,5 km/h (3 Bft) N-NO 16 0 min 0,0 UV-I 52 W/m -3,9 C -11,4 C 22,5 km/h (4 Bft)
22.01.2023 09:54 -2,9 C 0,0 C 93 % 1032,2 hPa 0,0 l/m 12,8 km/h (3 Bft) N 10 0 min 0,0 UV-I 58 W/m -3,9 C -9,0 C 20,9 km/h (4 Bft)
22.01.2023 09:57 -2,9 C 0,0 C 93 % 1032,1 hPa 0,0 l/m 9,8 km/h (2 Bft) N 5 0 min 0,0 UV-I 60 W/m -3,9 C -6,5 C 17,7 km/h (3 Bft)
22.01.2023 10:00 -2,8 C 0,0 C 93 % 1032,2 hPa 0,0 l/m 10,5 km/h (2 Bft) N 5 0 min 0,0 UV-I 56 W/m -3,8 C -7,0 C 16,1 km/h (3 Bft)
22.01.2023 10:03 -2,8 C 0,0 C 93 % 1032,2 hPa 0,0 l/m 10,4 km/h (2 Bft) N 355 0 min 0,0 UV-I 50 W/m -3,8 C -6,9 C 17,7 km/h (3 Bft)
22.01.2023 10:06 -2,8 C 0,0 C 93 % 1032,3 hPa 0,0 l/m 11,6 km/h (2 Bft) N 5 0 min 0,0 UV-I 48 W/m -3,8 C -7,9 C 16,1 km/h (3 Bft)
22.01.2023 10:09 -2,8 C 0,0 C 93 % 1032,3 hPa 0,0 l/m 11,1 km/h (2 Bft) N 355 0 min 0,0 UV-I 46 W/m -3,8 C -7,5 C 19,3 km/h (3 Bft)
22.01.2023 10:12 -2,8 C 0,0 C 93 % 1032,2 hPa 0,0 l/m 8,6 km/h (2 Bft) N 350 0 min 0,0 UV-I 49 W/m -3,8 C -5,2 C 14,5 km/h (3 Bft)
22.01.2023 10:15 -2,8 C 0,0 C 93 % 1032,3 hPa 0,0 l/m 8,9 km/h (2 Bft) N-NO 19 0 min 0,0 UV-I 50 W/m -3,8 C -5,5 C 14,5 km/h (3 Bft)
22.01.2023 10:18 -2,8 C 0,0 C 93 % 1032,2 hPa 0,0 l/m 14,8 km/h (3 Bft) N 5 0 min 0,0 UV-I 55 W/m -3,8 C -10,2 C 20,9 km/h (4 Bft)
22.01.2023 10:21 -2,8 C 0,0 C 93 % 1032,2 hPa 0,0 l/m 14,9 km/h (3 Bft) N 355 0 min 0,0 UV-I 59 W/m -3,8 C -10,3 C 22,5 km/h (4 Bft)
22.01.2023 10:24 -2,8 C 0,0 C 93 % 1032,2 hPa 0,0 l/m 9,3 km/h (2 Bft) N-NW 343 0 min 0,0 UV-I 65 W/m -3,8 C -5,9 C 14,5 km/h (3 Bft)
22.01.2023 10:27 -2,8 C 0,0 C 93 % 1032,3 hPa 0,0 l/m 9,0 km/h (2 Bft) N-NW 343 0 min 0,0 UV-I 64 W/m -3,8 C -5,6 C 17,7 km/h (3 Bft)
22.01.2023 10:30 -2,7 C 0,0 C 93 % 1032,3 hPa 0,0 l/m 12,3 km/h (3 Bft) N-NO 13 0 min 0,0 UV-I 61 W/m -3,7 C -8,3 C 19,3 km/h (3 Bft)
22.01.2023 10:33 -2,7 C 0,0 C 93 % 1032,2 hPa 0,0 l/m 11,6 km/h (2 Bft) N-NW 346 0 min 0,0 UV-I 64 W/m -3,7 C -7,8 C 19,3 km/h (3 Bft)
22.01.2023 10:36 -2,7 C 0,0 C 93 % 1032,2 hPa 0,0 l/m 13,3 km/h (3 Bft) N-NW 344 0 min 0,0 UV-I 62 W/m -3,7 C -9,1 C 17,7 km/h (3 Bft)
22.01.2023 10:37 -2,7 C 0,0 C 93 % 1032,3 hPa 0,0 l/m 9,7 km/h (2 Bft) N 360 0 min 0,0 UV-I 63 W/m -3,7 C -6,2 C 14,5 km/h (3 Bft)
22.01.2023 10:38 -2,7 C 0,0 C 93 % 1032,3 hPa 0,0 l/m 8,0 km/h (2 Bft) N 360 0 min 0,0 UV-I 63 W/m -3,7 C -4,5 C 9,7 km/h (2 Bft)
22.01.2023 10:39 -2,7 C 0,0 C 93 % 1032,2 hPa 0,0 l/m 14,5 km/h (3 Bft) N-NW 337 0 min 0,0 UV-I 65 W/m -3,7 C -9,9 C 22,5 km/h (4 Bft)
22.01.2023 10:40 -2,7 C 0,0 C 93 % 1032,2 hPa 0,0 l/m 12,9 km/h (3 Bft) N-NW 337 0 min 0,0 UV-I 67 W/m -3,7 C -8,8 C 17,7 km/h (3 Bft)
22.01.2023 10:42 -2,7 C 0,0 C 93 % 1032,3 hPa 0,0 l/m 17,8 km/h (3 Bft) N-NO 13 0 min 0,0 UV-I 66 W/m -3,7 C -11,9 C 20,9 km/h (4 Bft)
22.01.2023 10:45 -2,7 C 0,0 C 93 % 1032,3 hPa 0,0 l/m 17,8 km/h (3 Bft) N 350 0 min 0,0 UV-I 75 W/m -3,7 C -11,9 C 22,5 km/h (4 Bft)
22.01.2023 10:48 -2,7 C 0,0 C 93 % 1032,3 hPa 0,0 l/m 17,1 km/h (3 Bft) N 355 0 min 0,0 UV-I 73 W/m -3,7 C -11,5 C 22,5 km/h (4 Bft)
22.01.2023 10:51 -2,7 C 0,0 C 93 % 1032,3 hPa 0,0 l/m 17,2 km/h (3 Bft) N 350 0 min 0,0 UV-I 78 W/m -3,7 C -11,6 C 20,9 km/h (4 Bft)
22.01.2023 10:54 -2,7 C 0,0 C 93 % 1032,2 hPa 0,0 l/m 14,3 km/h (3 Bft) N 355 0 min 0,0 UV-I 90 W/m -3,7 C -9,8 C 25,7 km/h (4 Bft)
22.01.2023 10:57 -2,7 C 0,0 C 93 % 1032,4 hPa 0,0 l/m 13,0 km/h (3 Bft) N-NO 14 0 min 0,0 UV-I 87 W/m -3,7 C -8,9 C 17,7 km/h (3 Bft)
22.01.2023 11:00 -2,6 C 0,0 C 93 % 1032,4 hPa 0,0 l/m 15,4 km/h (3 Bft) N 5 0 min 0,0 UV-I 85 W/m -3,6 C -10,4 C 22,5 km/h (4 Bft)
22.01.2023 11:03 -2,6 C 0,0 C 93 % 1032,4 hPa 0,0 l/m 17,5 km/h (3 Bft) N 350 0 min 0,0 UV-I 79 W/m -3,6 C -11,7 C 22,5 km/h (4 Bft)
22.01.2023 11:06 -2,6 C 0,0 C 93 % 1032,4 hPa 0,0 l/m 15,7 km/h (3 Bft) N 11 0 min 0,0 UV-I 74 W/m -3,6 C -10,6 C 22,5 km/h (4 Bft)
22.01.2023 11:09 -2,6 C 0,0 C 93 % 1032,5 hPa 0,0 l/m 16,1 km/h (3 Bft) N-NW 334 0 min 0,0 UV-I 74 W/m -3,6 C -10,8 C 20,9 km/h (4 Bft)
22.01.2023 11:12 -2,6 C 0,0 C 93 % 1032,4 hPa 0,0 l/m 17,1 km/h (3 Bft) N-NO 18 0 min 0,0 UV-I 65 W/m -3,6 C -11,4 C 24,1 km/h (4 Bft)
22.01.2023 11:15 -2,7 C 0,0 C 93 % 1032,3 hPa 0,0 l/m 15,0 km/h (3 Bft) N 355 0 min 0,0 UV-I 63 W/m -3,7 C -10,3 C 20,9 km/h (4 Bft)
22.01.2023 11:18 -2,7 C 0,0 C 93 % 1032,2 hPa 0,0 l/m 17,6 km/h (3 Bft) N-NW 348 0 min 0,0 UV-I 66 W/m -3,7 C -11,8 C 24,1 km/h (4 Bft)
22.01.2023 11:21 -2,7 C 0,0 C 93 % 1032,2 hPa 0,0 l/m 16,0 km/h (3 Bft) N 5 0 min 0,0 UV-I 67 W/m -3,7 C -10,9 C 22,5 km/h (4 Bft)
22.01.2023 11:24 -2,6 C 0,0 C 93 % 1032,1 hPa 0,0 l/m 15,0 km/h (3 Bft) N 5 0 min 0,0 UV-I 63 W/m -3,6 C -10,1 C 20,9 km/h (4 Bft)
22.01.2023 11:27 -2,6 C 0,0 C 93 % 1032,1 hPa 0,0 l/m 13,7 km/h (3 Bft) N 355 0 min 0,0 UV-I 64 W/m -3,6 C -9,3 C 19,3 km/h (3 Bft)
22.01.2023 11:30 -2,7 C 0,0 C 93 % 1032,1 hPa 0,0 l/m 14,1 km/h (3 Bft) N-NW 346 0 min 0,0 UV-I 61 W/m -3,7 C -9,6 C 19,3 km/h (3 Bft)
22.01.2023 11:33 -2,6 C 0,0 C 93 % 1032,1 hPa 0,0 l/m 12,3 km/h (3 Bft) N-NW 339 0 min 0,0 UV-I 78 W/m -3,6 C -8,2 C 19,3 km/h (3 Bft)
22.01.2023 11:36 -2,6 C 0,0 C 93 % 1032,1 hPa 0,0 l/m 12,8 km/h (3 Bft) N 355 0 min 0,3 UV-I 81 W/m -3,6 C -8,6 C 17,7 km/h (3 Bft)
22.01.2023 11:39 -2,6 C 0,0 C 93 % 1032,0 hPa 0,0 l/m 10,2 km/h (2 Bft) N 9 0 min 0,0 UV-I 73 W/m -3,6 C -6,5 C 16,1 km/h (3 Bft)
22.01.2023 11:42 -2,5 C 0,0 C 93 % 1032,1 hPa 0,0 l/m 10,7 km/h (2 Bft) N 5 0 min 0,0 UV-I 77 W/m -3,5 C -6,8 C 17,7 km/h (3 Bft)
22.01.2023 11:45 -2,5 C 0,0 C 93 % 1032,1 hPa 0,0 l/m 9,6 km/h (2 Bft) N 355 0 min 0,0 UV-I 81 W/m -3,5 C -5,8 C 14,5 km/h (3 Bft)
22.01.2023 11:48 -2,4 C 0,0 C 93 % 1032,1 hPa 0,0 l/m 13,8 km/h (3 Bft) N-NW 342 0 min 0,0 UV-I 74 W/m -3,4 C -9,1 C 19,3 km/h (3 Bft)
22.01.2023 11:51 -2,5 C 0,0 C 93 % 1032,1 hPa 0,0 l/m 14,3 km/h (3 Bft) N-NO 13 0 min 0,0 UV-I 67 W/m -3,5 C -9,5 C 17,7 km/h (3 Bft)
22.01.2023 11:54 -2,5 C 0,0 C 93 % 1032,2 hPa 0,0 l/m 12,9 km/h (3 Bft) N-NW 340 0 min 0,0 UV-I 68 W/m -3,5 C -8,6 C 19,3 km/h (3 Bft)
22.01.2023 11:57 -2,5 C 0,0 C 93 % 1032,1 hPa 0,0 l/m 15,1 km/h (3 Bft) N 355 0 min 0,0 UV-I 71 W/m -3,5 C -10,1 C 19,3 km/h (3 Bft)
22.01.2023 12:00 -2,5 C 0,0 C 93 % 1032,1 hPa 0,0 l/m 13,5 km/h (3 Bft) N 355 0 min 0,0 UV-I 79 W/m -3,5 C -9,0 C 17,7 km/h (3 Bft)
22.01.2023 12:03 -2,5 C 0,0 C 93 % 1032,0 hPa 0,0 l/m 11,2 km/h (2 Bft) N 349 0 min 0,4 UV-I 100 W/m -3,5 C -7,2 C 17,7 km/h (3 Bft)
22.01.2023 12:06 -2,4 C 0,0 C 93 % 1032,0 hPa 0,0 l/m 12,6 km/h (3 Bft) N 360 0 min 0,5 UV-I 98 W/m -3,4 C -8,2 C 17,7 km/h (3 Bft)
22.01.2023 12:09 -2,4 C 0,6 C 93 % 1032,0 hPa 0,0 l/m 13,9 km/h (3 Bft) N 5 0 min 0,0 UV-I 85 W/m -3,4 C -9,2 C 20,9 km/h (4 Bft)
22.01.2023 12:12 -2,5 C 0,6 C 93 % 1032,0 hPa 0,0 l/m 17,7 km/h (3 Bft) N 360 0 min 0,1 UV-I 85 W/m -3,5 C -11,6 C 22,5 km/h (4 Bft)
22.01.2023 12:15 -2,4 C 0,6 C 93 % 1032,1 hPa 0,0 l/m 11,9 km/h (2 Bft) N 350 0 min 0,0 UV-I 78 W/m -3,4 C -7,7 C 16,1 km/h (3 Bft)
22.01.2023 12:18 -2,4 C 0,6 C 93 % 1032,1 hPa 0,0 l/m 11,3 km/h (2 Bft) N-NO 13 0 min 0,0 UV-I 83 W/m -3,4 C -7,2 C 16,1 km/h (3 Bft)
22.01.2023 12:21 -2,4 C 0,0 C 93 % 1032,1 hPa 0,0 l/m 10,4 km/h (2 Bft) N-NW 337 0 min 0,0 UV-I 85 W/m -3,4 C -6,5 C 17,7 km/h (3 Bft)
22.01.2023 12:24 -2,4 C 0,0 C 93 % 1032,0 hPa 0,0 l/m 10,5 km/h (2 Bft) N 360 0 min 0,5 UV-I 87 W/m -3,4 C -6,5 C 17,7 km/h (3 Bft)
22.01.2023 12:27 -2,3 C 0,6 C 93 % 1032,1 hPa 0,0 l/m 8,1 km/h (2 Bft) N 360 0 min 0,4 UV-I 84 W/m -3,3 C -4,2 C 12,9 km/h (3 Bft)
22.01.2023 12:30 -2,3 C 0,6 C 93 % 1032,0 hPa 0,0 l/m 11,0 km/h (2 Bft) N 355 0 min 0,5 UV-I 81 W/m -3,3 C -6,8 C 16,1 km/h (3 Bft)
22.01.2023 12:33 -2,3 C 0,6 C 93 % 1032,0 hPa 0,0 l/m 13,4 km/h (3 Bft) N 5 0 min 0,4 UV-I 82 W/m -3,3 C -8,7 C 19,3 km/h (3 Bft)
22.01.2023 12:36 -2,4 C 0,6 C 93 % 1032,1 hPa 0,0 l/m 13,2 km/h (3 Bft) N-NW 345 0 min 0,5 UV-I 82 W/m -3,4 C -8,7 C 17,7 km/h (3 Bft)
22.01.2023 12:39 -2,4 C 0,6 C 93 % 1032,0 hPa 0,0 l/m 12,1 km/h (2 Bft) N 350 0 min 0,5 UV-I 87 W/m -3,4 C -7,8 C 16,1 km/h (3 Bft)
22.01.2023 12:42 -2,4 C 0,6 C 93 % 1032,1 hPa 0,0 l/m 11,9 km/h (2 Bft) N-NW 348 0 min 0,2 UV-I 83 W/m -3,4 C -7,7 C 17,7 km/h (3 Bft)
22.01.2023 12:45 -2,3 C 0,6 C 93 % 1032,1 hPa 0,0 l/m 11,9 km/h (2 Bft) N-NW 346 0 min 0,0 UV-I 76 W/m -3,3 C -7,6 C 17,7 km/h (3 Bft)
22.01.2023 12:48 -2,3 C 0,6 C 93 % 1032,1 hPa 0,0 l/m 13,8 km/h (3 Bft) N 355 0 min 0,0 UV-I 77 W/m -3,3 C -9,0 C 19,3 km/h (3 Bft)
22.01.2023 12:51 -2,3 C 0,6 C 93 % 1032,0 hPa 0,0 l/m 13,4 km/h (3 Bft) N 355 0 min 0,0 UV-I 78 W/m -3,3 C -8,7 C 19,3 km/h (3 Bft)
22.01.2023 12:54 -2,4 C 0,6 C 93 % 1032,0 hPa 0,0 l/m 11,5 km/h (2 Bft) N 350 0 min 0,0 UV-I 78 W/m -3,4 C -7,4 C 17,7 km/h (3 Bft)
22.01.2023 12:57 -2,4 C 0,6 C 93 % 1031,9 hPa 0,0 l/m 12,1 km/h (2 Bft) N 355 0 min 0,0 UV-I 77 W/m -3,4 C -7,8 C 17,7 km/h (3 Bft)
22.01.2023 13:00 -2,4 C 0,6 C 93 % 1032,0 hPa 0,0 l/m 9,4 km/h (2 Bft) N 355 0 min 0,0 UV-I 75 W/m -3,4 C -5,6 C 14,5 km/h (3 Bft)
22.01.2023 13:03 -2,3 C 0,6 C 93 % 1032,0 hPa 0,0 l/m 7,9 km/h (2 Bft) N-NO 13 0 min 0,0 UV-I 73 W/m -3,3 C -4,0 C 12,9 km/h (3 Bft)
22.01.2023 13:06 -2,3 C 0,6 C 93 % 1032,0 hPa 0,0 l/m 6,9 km/h (2 Bft) N 5 0 min 0,0 UV-I 70 W/m -3,3 C -2,8 C 14,5 km/h (3 Bft)
22.01.2023 13:09 -2,3 C 0,6 C 93 % 1031,9 hPa 0,0 l/m 7,4 km/h (2 Bft) N 355 0 min 0,0 UV-I 71 W/m -3,3 C -3,4 C 12,9 km/h (3 Bft)
22.01.2023 13:12 -2,3 C 0,6 C 93 % 1032,0 hPa 0,0 l/m 13,8 km/h (3 Bft) N 350 0 min 0,0 UV-I 73 W/m -3,3 C -9,0 C 20,9 km/h (4 Bft)
22.01.2023 13:15 -2,3 C 0,6 C 93 % 1031,8 hPa 0,0 l/m 10,9 km/h (2 Bft) N 5 0 min 0,0 UV-I 69 W/m -3,3 C -6,8 C 17,7 km/h (3 Bft)
22.01.2023 13:18 -2,3 C 0,6 C 93 % 1031,9 hPa 0,0 l/m 9,3 km/h (2 Bft) N 5 0 min 0,0 UV-I 75 W/m -3,3 C -5,4 C 14,5 km/h (3 Bft)
22.01.2023 13:21 -2,3 C 0,6 C 93 % 1031,9 hPa 0,0 l/m 8,3 km/h (2 Bft) N 5 0 min 0,0 UV-I 70 W/m -3,3 C -4,4 C 12,9 km/h (3 Bft)
22.01.2023 13:24 -2,3 C 0,6 C 93 % 1031,9 hPa 0,0 l/m 5,6 km/h (1 Bft) N-NW 333 0 min 0,0 UV-I 70 W/m -3,3 C -2,3 C 9,7 km/h (2 Bft)
22.01.2023 13:27 -2,2 C 0,6 C 93 % 1031,9 hPa 0,0 l/m 8,5 km/h (2 Bft) N 9 0 min 0,0 UV-I 69 W/m -3,2 C -4,5 C 16,1 km/h (3 Bft)
22.01.2023 13:30 -2,2 C 0,6 C 93 % 1031,9 hPa 0,0 l/m 6,6 km/h (2 Bft) N 10 0 min 0,0 UV-I 64 W/m -3,2 C -2,4 C 12,9 km/h (3 Bft)
22.01.2023 13:33 -2,2 C 0,6 C 93 % 1031,9 hPa 0,0 l/m 5,0 km/h (1 Bft) N 355 0 min 0,0 UV-I 63 W/m -3,2 C -2,2 C 11,3 km/h (2 Bft)
22.01.2023 13:36 -2,2 C 0,6 C 93 % 1031,9 hPa 0,0 l/m 7,1 km/h (2 Bft) N 5 0 min 0,0 UV-I 62 W/m -3,2 C -3,0 C 11,3 km/h (2 Bft)
22.01.2023 13:39 -2,2 C 0,6 C 93 % 1031,9 hPa 0,0 l/m 8,5 km/h (2 Bft) N 349 0 min 0,0 UV-I 62 W/m -3,2 C -4,5 C 12,9 km/h (3 Bft)
22.01.2023 13:42 -2,3 C 0,6 C 93 % 1032,0 hPa 0,0 l/m 9,8 km/h (2 Bft) N 360 0 min 0,0 UV-I 57 W/m -3,3 C -5,8 C 16,1 km/h (3 Bft)
22.01.2023 13:45 -2,3 C 0,6 C 93 % 1032,1 hPa 0,0 l/m 9,7 km/h (2 Bft) N-NW 342 0 min 0,0 UV-I 55 W/m -3,3 C -5,7 C 16,1 km/h (3 Bft)
22.01.2023 13:48 -2,3 C 0,6 C 93 % 1032,1 hPa 0,0 l/m 7,5 km/h (2 Bft) N 360 0 min 0,0 UV-I 54 W/m -3,3 C -3,5 C 12,9 km/h (3 Bft)
22.01.2023 13:51 -2,3 C 0,0 C 93 % 1032,1 hPa 0,0 l/m 8,8 km/h (2 Bft) N 5 0 min 0,0 UV-I 53 W/m -3,3 C -4,9 C 14,5 km/h (3 Bft)
22.01.2023 13:54 -2,3 C 0,0 C 93 % 1032,1 hPa 0,0 l/m 9,1 km/h (2 Bft) N 349 0 min 0,0 UV-I 53 W/m -3,3 C -5,2 C 16,1 km/h (3 Bft)
22.01.2023 13:57 -2,3 C 0,0 C 93 % 1032,0 hPa 0,0 l/m 7,8 km/h (2 Bft) N 5 0 min 0,0 UV-I 53 W/m -3,3 C -3,8 C 14,5 km/h (3 Bft)
22.01.2023 14:00 -2,3 C 0,6 C 93 % 1032,0 hPa 0,0 l/m 11,4 km/h (2 Bft) N-NW 345 0 min 0,0 UV-I 53 W/m -3,3 C -7,2 C 16,1 km/h (3 Bft)
22.01.2023 14:03 -2,3 C 0,6 C 93 % 1032,0 hPa 0,0 l/m 12,9 km/h (3 Bft) N 350 0 min 0,0 UV-I 53 W/m -3,3 C -8,3 C 19,3 km/h (3 Bft)
22.01.2023 14:06 -2,3 C 0,6 C 93 % 1031,9 hPa 0,0 l/m 9,8 km/h (2 Bft) N 10 0 min 0,0 UV-I 54 W/m -3,3 C -5,8 C 14,5 km/h (3 Bft)
22.01.2023 14:09 -2,3 C 0,6 C 93 % 1032,0 hPa 0,0 l/m 9,8 km/h (2 Bft) N 349 0 min 0,0 UV-I 54 W/m -3,3 C -5,8 C 14,5 km/h (3 Bft)
22.01.2023 14:12 -2,3 C 0,6 C 93 % 1032,0 hPa 0,0 l/m 8,5 km/h (2 Bft) N 5 0 min 0,0 UV-I 54 W/m -3,3 C -4,6 C 12,9 km/h (3 Bft)
22.01.2023 14:15 -2,3 C 0,0 C 93 % 1032,0 hPa 0,0 l/m 10,5 km/h (2 Bft) N-NO 16 0 min 0,0 UV-I 54 W/m -3,3 C -6,4 C 14,5 km/h (3 Bft)
22.01.2023 14:18 -2,3 C 0,0 C 93 % 1031,9 hPa 0,0 l/m 12,0 km/h (2 Bft) N-NW 332 0 min 0,0 UV-I 54 W/m -3,3 C -7,6 C 17,7 km/h (3 Bft)
22.01.2023 14:21 -2,3 C 0,6 C 93 % 1032,0 hPa 0,0 l/m 10,3 km/h (2 Bft) N 355 0 min 0,0 UV-I 54 W/m -3,3 C -6,3 C 14,5 km/h (3 Bft)
22.01.2023 14:24 -2,3 C 0,6 C 93 % 1032,0 hPa 0,0 l/m 10,7 km/h (2 Bft) N 355 0 min 0,0 UV-I 53 W/m -3,3 C -6,6 C 16,1 km/h (3 Bft)
22.01.2023 14:27 -2,3 C 0,0 C 93 % 1032,0 hPa 0,0 l/m 11,0 km/h (2 Bft) N 355 0 min 0,0 UV-I 53 W/m -3,3 C -6,8 C 16,1 km/h (3 Bft)
22.01.2023 14:30 -2,3 C 0,0 C 93 % 1032,0 hPa 0,0 l/m 11,6 km/h (2 Bft) N 5 0 min 0,0 UV-I 49 W/m -3,3 C -7,3 C 16,1 km/h (3 Bft)
22.01.2023 14:33 -2,3 C 0,0 C 93 % 1032,0 hPa 0,0 l/m 8,4 km/h (2 Bft) N 5 0 min 0,0 UV-I 47 W/m -3,3 C -4,5 C 14,5 km/h (3 Bft)
22.01.2023 14:36 -2,3 C 0,6 C 93 % 1032,0 hPa 0,0 l/m 11,2 km/h (2 Bft) NW 319 0 min 0,0 UV-I 47 W/m -3,3 C -7,0 C 16,1 km/h (3 Bft)
22.01.2023 14:39 -2,3 C 0,6 C 93 % 1032,0 hPa 0,0 l/m 11,2 km/h (2 Bft) N 355 0 min 0,0 UV-I 46 W/m -3,3 C -7,0 C 17,7 km/h (3 Bft)
22.01.2023 14:42 -2,3 C 0,6 C 93 % 1032,0 hPa 0,0 l/m 12,4 km/h (3 Bft) N 355 0 min 0,0 UV-I 47 W/m -3,3 C -8,0 C 19,3 km/h (3 Bft)
22.01.2023 14:45 -2,3 C 0,6 C 93 % 1032,0 hPa 0,0 l/m 13,7 km/h (3 Bft) N 350 0 min 0,0 UV-I 46 W/m -3,3 C -8,9 C 19,3 km/h (3 Bft)
22.01.2023 14:48 -2,3 C 0,6 C 93 % 1032,1 hPa 0,0 l/m 10,2 km/h (2 Bft) N-NW 344 0 min 0,0 UV-I 46 W/m -3,3 C -6,2 C 16,1 km/h (3 Bft)
22.01.2023 14:51 -2,3 C 0,6 C 93 % 1032,2 hPa 0,0 l/m 14,2 km/h (3 Bft) N 355 0 min 0,0 UV-I 44 W/m -3,3 C -9,2 C 20,9 km/h (4 Bft)
22.01.2023 14:54 -2,3 C 0,6 C 93 % 1032,2 hPa 0,0 l/m 12,5 km/h (3 Bft) N 5 0 min 0,0 UV-I 44 W/m -3,3 C -8,0 C 20,9 km/h (4 Bft)
22.01.2023 14:57 -2,3 C 0,6 C 93 % 1032,2 hPa 0,0 l/m 13,6 km/h (3 Bft) N 355 0 min 0,0 UV-I 42 W/m -3,3 C -8,8 C 20,9 km/h (4 Bft)
22.01.2023 15:00 -2,3 C 0,6 C 93 % 1032,1 hPa 0,0 l/m 11,5 km/h (2 Bft) N-NW 338 0 min 0,0 UV-I 39 W/m -3,3 C -7,3 C 14,5 km/h (3 Bft)
22.01.2023 15:03 -2,3 C 0,0 C 93 % 1032,2 hPa 0,0 l/m 7,5 km/h (2 Bft) N 355 0 min 0,0 UV-I 40 W/m -3,3 C -3,5 C 16,1 km/h (3 Bft)
22.01.2023 15:06 -2,3 C 0,0 C 93 % 1032,1 hPa 0,0 l/m 12,1 km/h (2 Bft) N 355 0 min 0,0 UV-I 40 W/m -3,3 C -7,7 C 17,7 km/h (3 Bft)
22.01.2023 15:09 -2,3 C 0,6 C 93 % 1032,2 hPa 0,0 l/m 14,6 km/h (3 Bft) N 350 0 min 0,0 UV-I 40 W/m -3,3 C -9,5 C 20,9 km/h (4 Bft)
22.01.2023 15:12 -2,3 C 0,6 C 93 % 1032,2 hPa 0,0 l/m 15,2 km/h (3 Bft) N-NW 346 0 min 0,0 UV-I 38 W/m -3,3 C -9,9 C 20,9 km/h (4 Bft)
22.01.2023 15:15 -2,3 C 0,6 C 93 % 1032,2 hPa 0,0 l/m 14,4 km/h (3 Bft) N-NW 328 0 min 0,0 UV-I 37 W/m -3,3 C -9,4 C 19,3 km/h (3 Bft)
22.01.2023 15:18 -2,3 C 0,6 C 93 % 1032,2 hPa 0,0 l/m 13,0 km/h (3 Bft) N-NW 342 0 min 0,0 UV-I 34 W/m -3,3 C -8,4 C 19,3 km/h (3 Bft)
22.01.2023 15:21 -2,3 C 0,6 C 93 % 1032,2 hPa 0,0 l/m 15,7 km/h (3 Bft) N 351 0 min 0,0 UV-I 33 W/m -3,3 C -10,2 C 19,3 km/h (3 Bft)
22.01.2023 15:24 -2,3 C 0,6 C 93 % 1032,2 hPa 0,0 l/m 13,6 km/h (3 Bft) N-NW 344 0 min 0,0 UV-I 32 W/m -3,3 C -8,8 C 19,3 km/h (3 Bft)
22.01.2023 15:27 -2,3 C 0,6 C 93 % 1032,3 hPa 0,0 l/m 15,9 km/h (3 Bft) N-NW 333 0 min 0,0 UV-I 33 W/m -3,3 C -10,3 C 22,5 km/h (4 Bft)
22.01.2023 15:30 -2,3 C 0,6 C 93 % 1032,3 hPa 0,0 l/m 13,1 km/h (3 Bft) N-NW 346 0 min 0,0 UV-I 32 W/m -3,3 C -8,5 C 17,7 km/h (3 Bft)
22.01.2023 15:33 -2,3 C 0,6 C 93 % 1032,3 hPa 0,0 l/m 16,7 km/h (3 Bft) N-NW 341 0 min 0,0 UV-I 32 W/m -3,3 C -10,8 C 20,9 km/h (4 Bft)
22.01.2023 15:36 -2,3 C 0,6 C 93 % 1032,4 hPa 0,0 l/m 17,6 km/h (3 Bft) N-NW 341 0 min 0,0 UV-I 32 W/m -3,3 C -11,3 C 25,7 km/h (4 Bft)
22.01.2023 15:39 -2,3 C 0,6 C 93 % 1032,4 hPa 0,0 l/m 13,7 km/h (3 Bft) N 355 0 min 0,0 UV-I 33 W/m -3,3 C -8,9 C 22,5 km/h (4 Bft)
22.01.2023 15:42 -2,3 C 0,6 C 93 % 1032,5 hPa 0,0 l/m 13,3 km/h (3 Bft) N-NW 347 0 min 0,0 UV-I 31 W/m -3,3 C -8,6 C 17,7 km/h (3 Bft)
22.01.2023 15:45 -2,2 C 0,6 C 93 % 1032,6 hPa 0,0 l/m 9,9 km/h (2 Bft) N-NW 340 0 min 0,0 UV-I 30 W/m -3,2 C -5,8 C 14,5 km/h (3 Bft)
22.01.2023 15:48 -2,2 C 0,6 C 93 % 1032,6 hPa 0,0 l/m 14,9 km/h (3 Bft) N-NW 347 0 min 0,0 UV-I 30 W/m -3,2 C -9,6 C 19,3 km/h (3 Bft)
22.01.2023 15:51 -2,3 C 0,6 C 93 % 1032,7 hPa 0,0 l/m 16,1 km/h (3 Bft) N-NW 347 0 min 0,0 UV-I 29 W/m -3,3 C -10,5 C 22,5 km/h (4 Bft)
22.01.2023 15:54 -2,2 C 0,6 C 93 % 1032,7 hPa 0,0 l/m 8,4 km/h (2 Bft) N-NW 348 0 min 0,0 UV-I 28 W/m -3,2 C -4,4 C 16,1 km/h (3 Bft)
22.01.2023 15:57 -2,2 C 0,6 C 93 % 1032,7 hPa 0,0 l/m 16,1 km/h (3 Bft) N 5 0 min 0,0 UV-I 27 W/m -3,2 C -10,3 C 22,5 km/h (4 Bft)
22.01.2023 16:00 -2,2 C 0,6 C 93 % 1032,7 hPa 0,0 l/m 16,0 km/h (3 Bft) N 350 0 min 0,0 UV-I 25 W/m -3,2 C -10,3 C 19,3 km/h (3 Bft)
22.01.2023 16:03 -2,2 C 0,6 C 93 % 1032,8 hPa 0,0 l/m 14,8 km/h (3 Bft) N 355 0 min 0,0 UV-I 25 W/m -3,2 C -9,5 C 19,3 km/h (3 Bft)
22.01.2023 16:06 -2,2 C 0,6 C 93 % 1032,8 hPa 0,0 l/m 15,9 km/h (3 Bft) N-NW 348 0 min 0,0 UV-I 24 W/m -3,2 C -10,2 C 22,5 km/h (4 Bft)
22.01.2023 16:09 -2,3 C 0,6 C 93 % 1032,8 hPa 0,0 l/m 16,0 km/h (3 Bft) N 350 0 min 0,0 UV-I 21 W/m -3,3 C -10,4 C 22,5 km/h (4 Bft)
22.01.2023 16:12 -2,2 C 0,6 C 93 % 1032,8 hPa 0,0 l/m 15,4 km/h (3 Bft) N-NW 343 0 min 0,0 UV-I 20 W/m -3,2 C -9,9 C 20,9 km/h (4 Bft)
22.01.2023 16:15 -2,3 C 0,6 C 93 % 1033,0 hPa 0,0 l/m 15,0 km/h (3 Bft) N 355 0 min 0,0 UV-I 19 W/m -3,3 C -9,8 C 20,9 km/h (4 Bft)
22.01.2023 16:18 -2,2 C 0,6 C 93 % 1032,9 hPa 0,0 l/m 15,8 km/h (3 Bft) N 355 0 min 0,0 UV-I 19 W/m -3,2 C -10,2 C 20,9 km/h (4 Bft)
22.01.2023 16:21 -2,2 C 0,6 C 93 % 1033,0 hPa 0,0 l/m 15,1 km/h (3 Bft) N-NW 340 0 min 0,0 UV-I 17 W/m -3,2 C -9,7 C 20,9 km/h (4 Bft)
22.01.2023 16:24 -2,2 C 0,6 C 93 % 1033,1 hPa 0,0 l/m 14,0 km/h (3 Bft) N-NW 342 0 min 0,0 UV-I 16 W/m -3,2 C -9,0 C 20,9 km/h (4 Bft)
22.01.2023 16:27 -2,2 C 0,0 C 93 % 1033,1 hPa 0,0 l/m 12,2 km/h (2 Bft) N 360 0 min 0,0 UV-I 15 W/m -3,2 C -7,7 C 16,1 km/h (3 Bft)
22.01.2023 16:30 -2,2 C 0,6 C 93 % 1033,1 hPa 0,0 l/m 14,2 km/h (3 Bft) N-NW 341 0 min 0,0 UV-I 14 W/m -3,2 C -9,1 C 19,3 km/h (3 Bft)
22.01.2023 16:33 -2,2 C 0,6 C 93 % 1033,1 hPa 0,0 l/m 14,6 km/h (3 Bft) N-NW 337 0 min 0,0 UV-I 13 W/m -3,2 C -9,4 C 20,9 km/h (4 Bft)
22.01.2023 16:36 -2,2 C 0,0 C 93 % 1033,0 hPa 0,0 l/m 13,4 km/h (3 Bft) N-NW 345 0 min 0,0 UV-I 12 W/m -3,2 C -8,6 C 22,5 km/h (4 Bft)
22.01.2023 16:39 -2,2 C 0,6 C 93 % 1033,1 hPa 0,0 l/m 15,9 km/h (3 Bft) N 360 0 min 0,0 UV-I 12 W/m -3,2 C -10,2 C 20,9 km/h (4 Bft)
22.01.2023 16:42 -2,2 C 0,6 C 93 % 1033,1 hPa 0,0 l/m 15,8 km/h (3 Bft) N 355 0 min 0,0 UV-I 10 W/m -3,2 C -10,2 C 20,9 km/h (4 Bft)
22.01.2023 16:45 -2,2 C 0,6 C 93 % 1033,1 hPa 0,0 l/m 14,2 km/h (3 Bft) N-NW 343 0 min 0,0 UV-I 9 W/m -3,2 C -9,1 C 19,3 km/h (3 Bft)
22.01.2023 16:48 -2,2 C 0,6 C 93 % 1033,1 hPa 0,0 l/m 17,1 km/h (3 Bft) NW 315 0 min 0,0 UV-I 7 W/m -3,2 C -10,9 C 25,7 km/h (4 Bft)
22.01.2023 16:51 -2,2 C 0,6 C 93 % 1033,1 hPa 0,0 l/m 17,2 km/h (3 Bft) N-NW 348 0 min 0,0 UV-I 7 W/m -3,2 C -11,0 C 22,5 km/h (4 Bft)
22.01.2023 16:54 -2,2 C 0,6 C 93 % 1033,1 hPa 0,0 l/m 16,5 km/h (3 Bft) N-NW 348 0 min 0,0 UV-I 5 W/m -3,2 C -10,6 C 20,9 km/h (4 Bft)
22.01.2023 16:57 -2,2 C 0,6 C 93 % 1033,2 hPa 0,0 l/m 16,2 km/h (3 Bft) N 360 0 min 0,0 UV-I 4 W/m -3,2 C -10,4 C 22,5 km/h (4 Bft)
22.01.2023 17:00 -2,2 C 0,6 C 93 % 1033,2 hPa 0,0 l/m 13,5 km/h (3 Bft) N-NW 338 0 min 0,0 UV-I 0 W/m -3,2 C -8,6 C 19,3 km/h (3 Bft)
22.01.2023 17:03 -2,2 C 0,6 C 93 % 1033,1 hPa 0,0 l/m 13,8 km/h (3 Bft) N 351 0 min 0,0 UV-I 0 W/m -3,2 C -8,8 C 20,9 km/h (4 Bft)
22.01.2023 17:06 -2,2 C 0,6 C 93 % 1033,2 hPa 0,0 l/m 16,1 km/h (3 Bft) N-NW 348 0 min 0,0 UV-I 0 W/m -3,2 C -10,3 C 20,9 km/h (4 Bft)
22.01.2023 17:09 -2,2 C 0,6 C 93 % 1033,1 hPa 0,0 l/m 16,3 km/h (3 Bft) N 350 0 min 0,0 UV-I 0 W/m -3,2 C -10,5 C 22,5 km/h (4 Bft)
22.01.2023 17:12 -2,2 C 0,6 C 93 % 1033,1 hPa 0,0 l/m 17,5 km/h (3 Bft) N-NW 341 0 min 0,0 UV-I 0 W/m -3,2 C -11,2 C 22,5 km/h (4 Bft)
22.01.2023 17:13 -2,2 C 0,6 C 93 % 1033,2 hPa 0,0 l/m 17,7 km/h (3 Bft) N-NW 337 0 min 0,0 UV-I 0 W/m -3,2 C -11,3 C 22,5 km/h (4 Bft)
22.01.2023 17:14 -2,2 C 0,6 C 93 % 1033,0 hPa 0,0 l/m 14,5 km/h (3 Bft) N-NW 337 0 min 0,0 UV-I 0 W/m -3,2 C -9,3 C 17,7 km/h (3 Bft)
22.01.2023 17:15 -2,2 C 0,0 C 93 % 1033,2 hPa 0,0 l/m 14,5 km/h (3 Bft) N-NW 337 0 min 0,0 UV-I 0 W/m -3,2 C -9,3 C 20,9 km/h (4 Bft)
22.01.2023 17:18 -2,2 C 0,0 C 93 % 1033,2 hPa 0,0 l/m 18,1 km/h (3 Bft) N-NW 347 0 min 0,0 UV-I 0 W/m -3,2 C -11,5 C 24,1 km/h (4 Bft)
22.01.2023 17:21 -2,2 C 0,6 C 93 % 1033,1 hPa 0,0 l/m 15,8 km/h (3 Bft) N 351 0 min 0,0 UV-I 0 W/m -3,2 C -10,2 C 20,9 km/h (4 Bft)
22.01.2023 17:24 -2,2 C 0,6 C 93 % 1033,2 hPa 0,0 l/m 14,5 km/h (3 Bft) N-NW 344 0 min 0,0 UV-I 0 W/m -3,2 C -9,3 C 20,9 km/h (4 Bft)
22.01.2023 17:27 -2,2 C 0,6 C 93 % 1033,2 hPa 0,0 l/m 16,4 km/h (3 Bft) N 351 0 min 0,0 UV-I 0 W/m -3,2 C -10,5 C 19,3 km/h (3 Bft)
22.01.2023 17:30 -2,2 C 0,6 C 93 % 1033,2 hPa 0,0 l/m 16,9 km/h (3 Bft) N-NW 340 0 min 0,0 UV-I 0 W/m -3,2 C -10,8 C 20,9 km/h (4 Bft)
22.01.2023 17:33 -2,2 C 0,6 C 93 % 1033,1 hPa 0,0 l/m 12,8 km/h (3 Bft) N-NW 348 0 min 0,0 UV-I 0 W/m -3,2 C -8,1 C 17,7 km/h (3 Bft)
22.01.2023 17:36 -2,2 C 0,6 C 93 % 1033,2 hPa 0,0 l/m 12,1 km/h (2 Bft) N 5 0 min 0,0 UV-I 0 W/m -3,2 C -7,6 C 16,1 km/h (3 Bft)
22.01.2023 17:39 -2,2 C 0,6 C 93 % 1033,2 hPa 0,0 l/m 9,7 km/h (2 Bft) N-NO 20 0 min 0,0 UV-I 0 W/m -3,2 C -5,6 C 14,5 km/h (3 Bft)
22.01.2023 17:42 -2,2 C 0,6 C 93 % 1033,3 hPa 0,0 l/m 11,7 km/h (2 Bft) N 355 0 min 0,0 UV-I 0 W/m -3,2 C -7,3 C 17,7 km/h (3 Bft)
22.01.2023 17:45 -2,2 C 0,6 C 93 % 1033,3 hPa 0,0 l/m 14,3 km/h (3 Bft) N-NW 346 0 min 0,0 UV-I 0 W/m -3,2 C -9,2 C 17,7 km/h (3 Bft)
22.01.2023 17:48 -2,2 C 0,6 C 93 % 1033,3 hPa 0,0 l/m 12,5 km/h (3 Bft) N-NW 346 0 min 0,0 UV-I 0 W/m -3,2 C -7,9 C 16,1 km/h (3 Bft)
22.01.2023 17:51 -2,2 C 0,6 C 93 % 1033,3 hPa 0,0 l/m 12,0 km/h (2 Bft) N-NW 348 0 min 0,0 UV-I 0 W/m -3,2 C -7,5 C 17,7 km/h (3 Bft)
22.01.2023 17:54 -2,2 C 0,6 C 93 % 1033,3 hPa 0,0 l/m 13,2 km/h (3 Bft) N-NW 348 0 min 0,0 UV-I 0 W/m -3,2 C -8,4 C 19,3 km/h (3 Bft)
22.01.2023 17:57 -2,2 C 0,6 C 93 % 1033,1 hPa 0,0 l/m 11,4 km/h (2 Bft) N-NW 329 0 min 0,0 UV-I 0 W/m -3,2 C -7,1 C 17,7 km/h (3 Bft)
22.01.2023 18:00 -2,2 C 0,6 C 93 % 1033,1 hPa 0,0 l/m 9,9 km/h (2 Bft) N-NW 338 0 min 0,0 UV-I 0 W/m -3,2 C -5,8 C 17,7 km/h (3 Bft)
22.01.2023 18:03 -2,1 C 0,6 C 93 % 1033,1 hPa 0,0 l/m 12,0 km/h (2 Bft) N 349 0 min 0,0 UV-I 0 W/m -3,1 C -7,4 C 16,1 km/h (3 Bft)
22.01.2023 18:06 -2,2 C 0,6 C 93 % 1033,1 hPa 0,0 l/m 9,4 km/h (2 Bft) N-NW 339 0 min 0,0 UV-I 0 W/m -3,2 C -5,3 C 14,5 km/h (3 Bft)
22.01.2023 18:09 -2,2 C 0,6 C 93 % 1033,2 hPa 0,0 l/m 11,1 km/h (2 Bft) N-NW 338 0 min 0,0 UV-I 0 W/m -3,2 C -6,8 C 16,1 km/h (3 Bft)
22.01.2023 18:12 -2,1 C 0,6 C 93 % 1033,2 hPa 0,0 l/m 13,9 km/h (3 Bft) N 349 0 min 0,0 UV-I 0 W/m -3,1 C -8,8 C 19,3 km/h (3 Bft)
22.01.2023 18:15 -2,2 C 0,6 C 93 % 1033,2 hPa 0,0 l/m 13,4 km/h (3 Bft) N 5 0 min 0,0 UV-I 0 W/m -3,2 C -8,6 C 19,3 km/h (3 Bft)
22.01.2023 18:18 -2,2 C 0,6 C 93 % 1033,2 hPa 0,0 l/m 10,0 km/h (2 Bft) N 11 0 min 0,0 UV-I 0 W/m -3,2 C -5,9 C 17,7 km/h (3 Bft)
22.01.2023 18:21 -2,1 C 0,6 C 93 % 1033,2 hPa 0,0 l/m 10,6 km/h (2 Bft) N-NW 344 0 min 0,0 UV-I 0 W/m -3,1 C -6,3 C 16,1 km/h (3 Bft)
22.01.2023 18:24 -2,2 C 0,6 C 93 % 1033,1 hPa 0,0 l/m 13,0 km/h (3 Bft) N-NW 346 0 min 0,0 UV-I 0 W/m -3,2 C -8,3 C 17,7 km/h (3 Bft)
22.01.2023 18:27 -2,2 C 0,6 C 93 % 1033,2 hPa 0,0 l/m 9,1 km/h (2 Bft) N 360 0 min 0,0 UV-I 0 W/m -3,2 C -5,1 C 16,1 km/h (3 Bft)
22.01.2023 18:30 -2,1 C 0,0 C 93 % 1033,3 hPa 0,0 l/m 6,1 km/h (2 Bft) N-NO 20 0 min 0,0 UV-I 0 W/m -3,1 C -2,1 C 9,7 km/h (2 Bft)
22.01.2023 18:33 -2,1 C 0,0 C 93 % 1033,2 hPa 0,0 l/m 7,5 km/h (2 Bft) N-NO 12 0 min 0,0 UV-I 0 W/m -3,1 C -3,3 C 12,9 km/h (3 Bft)
22.01.2023 18:36 -2,1 C 0,0 C 93 % 1033,2 hPa 0,0 l/m 10,7 km/h (2 Bft) N 360 0 min 0,0 UV-I 0 W/m -3,1 C -6,4 C 17,7 km/h (3 Bft)
22.01.2023 18:39 -2,1 C 0,0 C 93 % 1033,3 hPa 0,0 l/m 11,2 km/h (2 Bft) N 5 0 min 0,0 UV-I 0 W/m -3,1 C -6,8 C 16,1 km/h (3 Bft)
22.01.2023 18:42 -2,1 C 0,0 C 93 % 1033,3 hPa 0,0 l/m 11,5 km/h (2 Bft) N 360 0 min 0,0 UV-I 0 W/m -3,1 C -7,0 C 19,3 km/h (3 Bft)
22.01.2023 18:45 -2,1 C 0,0 C 93 % 1033,3 hPa 0,0 l/m 9,5 km/h (2 Bft) N-NO 15 0 min 0,0 UV-I 0 W/m -3,1 C -5,3 C 14,5 km/h (3 Bft)
22.01.2023 18:48 -2,1 C 0,0 C 93 % 1033,3 hPa 0,0 l/m 8,8 km/h (2 Bft) N 5 0 min 0,0 UV-I 0 W/m -3,1 C -4,7 C 17,7 km/h (3 Bft)
22.01.2023 18:51 -2,1 C 0,0 C 93 % 1033,3 hPa 0,0 l/m 9,4 km/h (2 Bft) N 350 0 min 0,0 UV-I 0 W/m -3,1 C -5,2 C 16,1 km/h (3 Bft)
22.01.2023 18:54 -2,1 C 0,0 C 93 % 1033,4 hPa 0,0 l/m 7,0 km/h (2 Bft) N 5 0 min 0,0 UV-I 0 W/m -3,1 C -2,8 C 12,9 km/h (3 Bft)
22.01.2023 18:57 -2,1 C 0,0 C 93 % 1033,4 hPa 0,0 l/m 7,7 km/h (2 Bft) N 360 0 min 0,0 UV-I 0 W/m -3,1 C -3,5 C 14,5 km/h (3 Bft)
22.01.2023 19:00 -2,1 C 0,0 C 93 % 1033,5 hPa 0,0 l/m 7,4 km/h (2 Bft) N 9 0 min 0,0 UV-I 0 W/m -3,1 C -3,2 C 12,9 km/h (3 Bft)
22.01.2023 19:03 -2,1 C 0,0 C 93 % 1033,5 hPa 0,0 l/m 9,9 km/h (2 Bft) N 5 0 min 0,0 UV-I 0 W/m -3,1 C -5,7 C 14,5 km/h (3 Bft)
22.01.2023 19:06 -2,1 C 0,6 C 93 % 1033,6 hPa 0,0 l/m 8,5 km/h (2 Bft) N 355 0 min 0,0 UV-I 0 W/m -3,1 C -4,4 C 12,9 km/h (3 Bft)
22.01.2023 19:09 -2,1 C 0,6 C 93 % 1033,7 hPa 0,0 l/m 7,1 km/h (2 Bft) N 11 0 min 0,0 UV-I 0 W/m -3,1 C -2,9 C 12,9 km/h (3 Bft)
22.01.2023 19:12 -2,1 C 0,0 C 93 % 1033,7 hPa 0,0 l/m 5,1 km/h (1 Bft) N 11 0 min 0,0 UV-I 0 W/m -3,1 C -2,1 C 8,0 km/h (2 Bft)
22.01.2023 19:15 -2,1 C 0,0 C 93 % 1033,7 hPa 0,0 l/m 6,5 km/h (2 Bft) N-NW 346 0 min 0,0 UV-I 0 W/m -3,1 C -2,2 C 9,7 km/h (2 Bft)
22.01.2023 19:18 -2,1 C 0,6 C 93 % 1033,7 hPa 0,0 l/m 9,0 km/h (2 Bft) N 11 0 min 0,0 UV-I 0 W/m -3,1 C -4,8 C 12,9 km/h (3 Bft)
22.01.2023 19:21 -2,0 C 0,0 C 93 % 1033,7 hPa 0,0 l/m 7,8 km/h (2 Bft) N 9 0 min 0,0 UV-I 0 W/m -3,0 C -3,5 C 12,9 km/h (3 Bft)
22.01.2023 19:24 -2,1 C 0,0 C 93 % 1033,8 hPa 0,0 l/m 7,0 km/h (2 Bft) N-NO 23 0 min 0,0 UV-I 0 W/m -3,1 C -2,8 C 12,9 km/h (3 Bft)
22.01.2023 19:27 -2,0 C 0,0 C 93 % 1033,8 hPa 0,0 l/m 9,8 km/h (2 Bft) N 360 0 min 0,0 UV-I 0 W/m -3,0 C -5,5 C 16,1 km/h (3 Bft)
22.01.2023 19:30 -2,0 C 0,0 C 93 % 1033,7 hPa 0,0 l/m 8,2 km/h (2 Bft) N 5 0 min 0,0 UV-I 0 W/m -3,0 C -4,0 C 12,9 km/h (3 Bft)
22.01.2023 19:33 -2,1 C 0,0 C 93 % 1033,8 hPa 0,0 l/m 8,6 km/h (2 Bft) N 350 0 min 0,0 UV-I 0 W/m -3,1 C -4,5 C 14,5 km/h (3 Bft)
22.01.2023 19:36 -2,0 C 0,0 C 93 % 1033,8 hPa 0,0 l/m 6,9 km/h (2 Bft) N 355 0 min 0,0 UV-I 0 W/m -3,0 C -2,5 C 9,7 km/h (2 Bft)
22.01.2023 19:39 -2,0 C 0,0 C 93 % 1033,9 hPa 0,0 l/m 10,1 km/h (2 Bft) N 360 0 min 0,0 UV-I 0 W/m -3,0 C -5,7 C 14,5 km/h (3 Bft)
22.01.2023 19:42 -2,0 C 0,0 C 93 % 1033,9 hPa 0,0 l/m 7,8 km/h (2 Bft) N-NW 342 0 min 0,0 UV-I 0 W/m -3,0 C -3,5 C 11,3 km/h (2 Bft)
22.01.2023 19:45 -1,9 C 0,0 C 93 % 1034,0 hPa 0,0 l/m 9,7 km/h (2 Bft) N 349 0 min 0,0 UV-I 0 W/m -2,9 C -5,3 C 14,5 km/h (3 Bft)
22.01.2023 19:48 -2,0 C 0,0 C 93 % 1033,9 hPa 0,0 l/m 8,4 km/h (2 Bft) N 9 0 min 0,0 UV-I 0 W/m -3,0 C -4,2 C 14,5 km/h (3 Bft)
22.01.2023 19:51 -1,9 C 0,0 C 93 % 1034,0 hPa 0,0 l/m 10,7 km/h (2 Bft) N-NO 19 0 min 0,0 UV-I 0 W/m -2,9 C -6,1 C 16,1 km/h (3 Bft)
22.01.2023 19:54 -1,9 C 0,0 C 93 % 1034,0 hPa 0,0 l/m 6,8 km/h (2 Bft) N-NO 13 0 min 0,0 UV-I 0 W/m -2,9 C -2,3 C 12,9 km/h (3 Bft)
22.01.2023 19:57 -1,9 C 0,0 C 93 % 1034,0 hPa 0,0 l/m 9,1 km/h (2 Bft) N 10 0 min 0,0 UV-I 0 W/m -2,9 C -4,7 C 14,5 km/h (3 Bft)
22.01.2023 20:00 -1,9 C 0,0 C 93 % 1034,0 hPa 0,0 l/m 7,9 km/h (2 Bft) NW 323 0 min 0,0 UV-I 0 W/m -2,9 C -3,5 C 12,9 km/h (3 Bft)
22.01.2023 20:03 -1,9 C 0,0 C 93 % 1034,0 hPa 0,0 l/m 10,2 km/h (2 Bft) N-NO 18 0 min 0,0 UV-I 0 W/m -2,9 C -5,7 C 14,5 km/h (3 Bft)
22.01.2023 20:06 -1,9 C 0,6 C 93 % 1034,1 hPa 0,0 l/m 8,7 km/h (2 Bft) N 5 0 min 0,0 UV-I 0 W/m -2,9 C -4,3 C 12,9 km/h (3 Bft)
22.01.2023 20:09 -1,9 C 0,0 C 93 % 1034,1 hPa 0,0 l/m 9,3 km/h (2 Bft) N-NO 15 0 min 0,0 UV-I 0 W/m -2,9 C -4,9 C 14,5 km/h (3 Bft)
22.01.2023 20:12 -1,9 C 0,0 C 93 % 1034,1 hPa 0,0 l/m 5,9 km/h (2 Bft) N-NW 342 0 min 0,0 UV-I 0 W/m -2,9 C -1,9 C 9,7 km/h (2 Bft)
22.01.2023 20:15 -1,9 C 0,0 C 93 % 1034,0 hPa 0,0 l/m 7,4 km/h (2 Bft) N 355 0 min 0,0 UV-I 0 W/m -2,9 C -3,0 C 12,9 km/h (3 Bft)
22.01.2023 20:18 -1,9 C 0,0 C 93 % 1034,0 hPa 0,0 l/m 7,0 km/h (2 Bft) N 5 0 min 0,0 UV-I 0 W/m -2,9 C -2,6 C 12,9 km/h (3 Bft)
22.01.2023 20:21 -1,8 C 0,0 C 93 % 1033,9 hPa 0,0 l/m 7,7 km/h (2 Bft) N 5 0 min 0,0 UV-I 0 W/m -2,8 C -3,2 C 14,5 km/h (3 Bft)
22.01.2023 20:24 -1,8 C 0,0 C 93 % 1034,0 hPa 0,0 l/m 7,2 km/h (2 Bft) N 360 0 min 0,0 UV-I 0 W/m -2,8 C -2,7 C 12,9 km/h (3 Bft)
22.01.2023 20:27 -1,8 C 0,0 C 93 % 1033,9 hPa 0,0 l/m 5,9 km/h (2 Bft) N-NO 16 0 min 0,0 UV-I 0 W/m -2,8 C -1,8 C 8,0 km/h (2 Bft)
22.01.2023 20:30 -1,8 C 0,6 C 93 % 1034,0 hPa 0,0 l/m 6,1 km/h (2 Bft) NO 42 0 min 0,0 UV-I 0 W/m -2,8 C -1,8 C 14,5 km/h (3 Bft)
22.01.2023 20:33 -1,8 C 0,0 C 93 % 1034,1 hPa 0,0 l/m 7,9 km/h (2 Bft) N-NW 345 0 min 0,0 UV-I 0 W/m -2,8 C -3,4 C 12,9 km/h (3 Bft)
22.01.2023 20:36 -1,8 C 0,0 C 93 % 1034,0 hPa 0,0 l/m 9,1 km/h (2 Bft) N 350 0 min 0,0 UV-I 0 W/m -2,8 C -4,6 C 14,5 km/h (3 Bft)
22.01.2023 20:39 -1,8 C 0,6 C 93 % 1034,0 hPa 0,0 l/m 7,9 km/h (2 Bft) N-NW 342 0 min 0,0 UV-I 0 W/m -2,8 C -3,4 C 12,9 km/h (3 Bft)
22.01.2023 20:42 -1,8 C 0,0 C 93 % 1034,0 hPa 0,0 l/m 7,1 km/h (2 Bft) N-NW 334 0 min 0,0 UV-I 0 W/m -2,8 C -2,6 C 14,5 km/h (3 Bft)
22.01.2023 20:45 -1,8 C 0,6 C 93 % 1034,0 hPa 0,0 l/m 9,7 km/h (2 Bft) N-NW 345 0 min 0,0 UV-I 0 W/m -2,8 C -5,2 C 14,5 km/h (3 Bft)
22.01.2023 20:48 -1,8 C 0,6 C 93 % 1034,0 hPa 0,0 l/m 9,9 km/h (2 Bft) N 360 0 min 0,0 UV-I 0 W/m -2,8 C -5,4 C 14,5 km/h (3 Bft)
22.01.2023 20:51 -1,8 C 0,6 C 93 % 1034,2 hPa 0,0 l/m 8,0 km/h (2 Bft) N 5 0 min 0,0 UV-I 0 W/m -2,8 C -3,5 C 14,5 km/h (3 Bft)
22.01.2023 20:54 -1,8 C 0,6 C 93 % 1034,2 hPa 0,0 l/m 7,4 km/h (2 Bft) N 5 0 min 0,0 UV-I 0 W/m -2,8 C -2,9 C 12,9 km/h (3 Bft)
22.01.2023 20:57 -1,8 C 0,0 C 93 % 1034,2 hPa 0,0 l/m 7,6 km/h (2 Bft) N-NW 348 0 min 0,0 UV-I 0 W/m -2,8 C -3,1 C 12,9 km/h (3 Bft)
22.01.2023 21:00 -1,8 C 0,0 C 93 % 1034,4 hPa 0,0 l/m 8,5 km/h (2 Bft) N 351 0 min 0,0 UV-I 0 W/m -2,8 C -4,0 C 12,9 km/h (3 Bft)
22.01.2023 21:03 -1,8 C 0,6 C 93 % 1034,3 hPa 0,0 l/m 8,9 km/h (2 Bft) N-NW 347 0 min 0,0 UV-I 0 W/m -2,8 C -4,4 C 16,1 km/h (3 Bft)
22.01.2023 21:06 -1,8 C 0,6 C 93 % 1034,2 hPa 0,0 l/m 10,0 km/h (2 Bft) N-NO 13 0 min 0,0 UV-I 0 W/m -2,8 C -5,4 C 16,1 km/h (3 Bft)
22.01.2023 21:09 -1,8 C 0,6 C 93 % 1034,3 hPa 0,0 l/m 12,6 km/h (3 Bft) N 5 0 min 0,0 UV-I 0 W/m -2,8 C -7,5 C 17,7 km/h (3 Bft)
22.01.2023 21:12 -1,8 C 0,6 C 93 % 1034,3 hPa 0,0 l/m 7,6 km/h (2 Bft) N 360 0 min 0,0 UV-I 0 W/m -2,8 C -3,1 C 14,5 km/h (3 Bft)
22.01.2023 21:15 -1,8 C 0,0 C 93 % 1034,4 hPa 0,0 l/m 7,8 km/h (2 Bft) N-NO 12 0 min 0,0 UV-I 0 W/m -2,8 C -3,3 C 14,5 km/h (3 Bft)
22.01.2023 21:18 -1,8 C 0,0 C 93 % 1034,3 hPa 0,0 l/m 7,3 km/h (2 Bft) N 5 0 min 0,0 UV-I 0 W/m -2,8 C -2,8 C 12,9 km/h (3 Bft)
22.01.2023 21:21 -1,8 C 0,0 C 93 % 1034,7 hPa 0,0 l/m 7,4 km/h (2 Bft) N 5 0 min 0,0 UV-I 0 W/m -2,8 C -2,9 C 12,9 km/h (3 Bft)
22.01.2023 21:24 -1,7 C 0,0 C 93 % 1034,2 hPa 0,0 l/m 6,0 km/h (2 Bft) N-NO 19 0 min 0,0 UV-I 0 W/m -2,7 C -1,7 C 12,9 km/h (3 Bft)
22.01.2023 21:27 -1,7 C 0,0 C 93 % 1034,3 hPa 0,0 l/m 7,4 km/h (2 Bft) N 5 0 min 0,0 UV-I 0 W/m -2,7 C -2,8 C 12,9 km/h (3 Bft)
22.01.2023 21:30 -1,7 C 0,0 C 94 % 1034,4 hPa 0,0 l/m 7,3 km/h (2 Bft) N 11 0 min 0,0 UV-I 0 W/m -2,5 C -2,7 C 12,9 km/h (3 Bft)
22.01.2023 21:33 -1,8 C 0,0 C 93 % 1034,3 hPa 0,0 l/m 8,1 km/h (2 Bft) N 5 0 min 0,0 UV-I 0 W/m -2,8 C -3,6 C 12,9 km/h (3 Bft)
22.01.2023 21:36 -1,7 C 0,0 C 93 % 1034,3 hPa 0,0 l/m 6,7 km/h (2 Bft) N 360 0 min 0,0 UV-I 0 W/m -2,7 C -2,0 C 9,7 km/h (2 Bft)
22.01.2023 21:39 -1,7 C 0,0 C 93 % 1034,3 hPa 0,0 l/m 7,8 km/h (2 Bft) N 355 0 min 0,0 UV-I 0 W/m -2,7 C -3,2 C 16,1 km/h (3 Bft)
22.01.2023 21:42 -1,7 C 0,0 C 94 % 1034,3 hPa 0,0 l/m 10,0 km/h (2 Bft) N 5 0 min 0,0 UV-I 0 W/m -2,5 C -5,3 C 16,1 km/h (3 Bft)
22.01.2023 21:45 -1,7 C 0,0 C 94 % 1034,3 hPa 0,0 l/m 8,7 km/h (2 Bft) N-NO 19 0 min 0,0 UV-I 0 W/m -2,5 C -4,1 C 16,1 km/h (3 Bft)
22.01.2023 21:48 -1,7 C 0,0 C 94 % 1034,3 hPa 0,0 l/m 7,8 km/h (2 Bft) N 360 0 min 0,0 UV-I 0 W/m -2,5 C -3,2 C 12,9 km/h (3 Bft)
22.01.2023 21:51 -1,7 C 0,0 C 93 % 1034,3 hPa 0,0 l/m 8,4 km/h (2 Bft) N 5 0 min 0,0 UV-I 0 W/m -2,7 C -3,8 C 12,9 km/h (3 Bft)
22.01.2023 21:54 -1,7 C 0,0 C 94 % 1034,3 hPa 0,0 l/m 7,8 km/h (2 Bft) N-NO 13 0 min 0,0 UV-I 0 W/m -2,5 C -3,2 C 16,1 km/h (3 Bft)
22.01.2023 21:57 -1,7 C 0,6 C 94 % 1034,2 hPa 0,0 l/m 7,5 km/h (2 Bft) N-NO 13 0 min 0,0 UV-I 0 W/m -2,5 C -2,9 C 12,9 km/h (3 Bft)
22.01.2023 22:00 -1,7 C 0,0 C 94 % 1034,3 hPa 0,0 l/m 6,2 km/h (2 Bft) N 355 0 min 0,0 UV-I 0 W/m -2,5 C -1,7 C 11,3 km/h (2 Bft)
22.01.2023 22:03 -1,7 C 0,0 C 94 % 1034,3 hPa 0,0 l/m 5,8 km/h (2 Bft) N 5 0 min 0,0 UV-I 0 W/m -2,5 C -1,7 C 11,3 km/h (2 Bft)
22.01.2023 22:06 -1,7 C 0,0 C 94 % 1034,3 hPa 0,0 l/m 10,7 km/h (2 Bft) N 11 0 min 0,0 UV-I 0 W/m -2,5 C -5,9 C 17,7 km/h (3 Bft)
22.01.2023 22:09 -1,7 C 0,6 C 94 % 1034,3 hPa 0,0 l/m 10,0 km/h (2 Bft) N 9 0 min 0,0 UV-I 0 W/m -2,5 C -5,3 C 16,1 km/h (3 Bft)
22.01.2023 22:12 -1,7 C 0,0 C 94 % 1034,4 hPa 0,0 l/m 8,9 km/h (2 Bft) N 360 0 min 0,0 UV-I 0 W/m -2,5 C -4,3 C 14,5 km/h (3 Bft)
22.01.2023 22:15 -1,7 C 0,6 C 94 % 1034,4 hPa 0,0 l/m 12,5 km/h (3 Bft) N-NO 20 0 min 0,0 UV-I 0 W/m -2,5 C -7,3 C 20,9 km/h (4 Bft)
22.01.2023 22:18 -1,7 C 0,6 C 94 % 1034,4 hPa 0,0 l/m 12,0 km/h (2 Bft) N-NO 14 0 min 0,0 UV-I 0 W/m -2,5 C -7,0 C 17,7 km/h (3 Bft)
22.01.2023 22:21 -1,7 C 0,6 C 94 % 1034,4 hPa 0,0 l/m 12,2 km/h (2 Bft) N-NO 19 0 min 0,0 UV-I 0 W/m -2,5 C -7,1 C 20,9 km/h (4 Bft)
22.01.2023 22:24 -1,7 C 0,6 C 94 % 1034,4 hPa 0,0 l/m 8,8 km/h (2 Bft) N-NO 32 0 min 0,0 UV-I 0 W/m -2,5 C -4,2 C 14,5 km/h (3 Bft)
22.01.2023 22:27 -1,7 C 0,0 C 94 % 1034,4 hPa 0,0 l/m 8,5 km/h (2 Bft) N 5 0 min 0,0 UV-I 0 W/m -2,5 C -3,9 C 16,1 km/h (3 Bft)
22.01.2023 22:30 -1,7 C 0,6 C 94 % 1034,4 hPa 0,0 l/m 11,4 km/h (2 Bft) N-NO 29 0 min 0,0 UV-I 0 W/m -2,5 C -6,5 C 16,1 km/h (3 Bft)
22.01.2023 22:33 -1,7 C 0,6 C 94 % 1034,4 hPa 0,0 l/m 10,8 km/h (2 Bft) N 355 0 min 0,0 UV-I 0 W/m -2,5 C -6,0 C 19,3 km/h (3 Bft)
22.01.2023 22:36 -1,7 C 0,0 C 94 % 1034,4 hPa 0,0 l/m 9,4 km/h (2 Bft) N-NW 348 0 min 0,0 UV-I 0 W/m -2,5 C -4,8 C 16,1 km/h (3 Bft)
22.01.2023 22:39 -1,7 C 0,6 C 94 % 1034,3 hPa 0,0 l/m 9,6 km/h (2 Bft) N 355 0 min 0,0 UV-I 0 W/m -2,5 C -5,0 C 16,1 km/h (3 Bft)
22.01.2023 22:42 -1,7 C 0,6 C 94 % 1034,4 hPa 0,0 l/m 9,2 km/h (2 Bft) N-NO 15 0 min 0,0 UV-I 0 W/m -2,5 C -4,6 C 14,5 km/h (3 Bft)
22.01.2023 22:45 -1,7 C 0,6 C 94 % 1034,3 hPa 0,0 l/m 8,5 km/h (2 Bft) N-NO 22 0 min 0,0 UV-I 0 W/m -2,5 C -3,9 C 14,5 km/h (3 Bft)
22.01.2023 22:48 -1,7 C 0,0 C 94 % 1034,4 hPa 0,0 l/m 9,4 km/h (2 Bft) N 355 0 min 0,0 UV-I 0 W/m -2,5 C -4,8 C 14,5 km/h (3 Bft)
22.01.2023 22:51 -1,7 C 0,6 C 94 % 1034,4 hPa 0,0 l/m 11,5 km/h (2 Bft) N-NW 348 0 min 0,0 UV-I 0 W/m -2,5 C -6,6 C 16,1 km/h (3 Bft)
22.01.2023 22:54 -1,7 C 0,6 C 94 % 1034,4 hPa 0,0 l/m 10,9 km/h (2 Bft) N 5 0 min 0,0 UV-I 0 W/m -2,5 C -6,1 C 16,1 km/h (3 Bft)
22.01.2023 22:57 -1,7 C 0,6 C 94 % 1034,5 hPa 0,0 l/m 10,4 km/h (2 Bft) N 355 0 min 0,0 UV-I 0 W/m -2,5 C -5,7 C 16,1 km/h (3 Bft)
22.01.2023 23:00 -1,7 C 0,6 C 94 % 1034,4 hPa 0,0 l/m 11,0 km/h (2 Bft) N 9 0 min 0,0 UV-I 0 W/m -2,5 C -6,2 C 16,1 km/h (3 Bft)
22.01.2023 23:03 -1,7 C 0,6 C 94 % 1034,5 hPa 0,0 l/m 10,3 km/h (2 Bft) N-NW 345 0 min 0,0 UV-I 0 W/m -2,5 C -5,6 C 16,1 km/h (3 Bft)
22.01.2023 23:06 -1,7 C 0,6 C 94 % 1034,5 hPa 0,0 l/m 11,1 km/h (2 Bft) N-NO 14 0 min 0,0 UV-I 0 W/m -2,5 C -6,3 C 16,1 km/h (3 Bft)
22.01.2023 23:09 -1,7 C 0,6 C 93 % 1034,6 hPa 0,0 l/m 11,0 km/h (2 Bft) N-NO 24 0 min 0,0 UV-I 0 W/m -2,7 C -6,2 C 17,7 km/h (3 Bft)
22.01.2023 23:12 -1,7 C 0,6 C 94 % 1034,5 hPa 0,0 l/m 11,0 km/h (2 Bft) N-NO 14 0 min 0,0 UV-I 0 W/m -2,5 C -6,2 C 16,1 km/h (3 Bft)
22.01.2023 23:15 -1,7 C 0,6 C 94 % 1034,5 hPa 0,0 l/m 9,1 km/h (2 Bft) N-NO 30 0 min 0,0 UV-I 0 W/m -2,5 C -4,5 C 14,5 km/h (3 Bft)
22.01.2023 23:18 -1,7 C 0,6 C 94 % 1034,5 hPa 0,0 l/m 7,3 km/h (2 Bft) N 350 0 min 0,0 UV-I 0 W/m -2,5 C -2,7 C 14,5 km/h (3 Bft)
22.01.2023 23:21 -1,7 C 0,6 C 94 % 1034,5 hPa 0,0 l/m 8,5 km/h (2 Bft) N 11 0 min 0,0 UV-I 0 W/m -2,5 C -3,9 C 16,1 km/h (3 Bft)
22.01.2023 23:24 -1,7 C 0,6 C 94 % 1034,6 hPa 0,0 l/m 7,6 km/h (2 Bft) N 10 0 min 0,0 UV-I 0 W/m -2,5 C -3,0 C 12,9 km/h (3 Bft)
22.01.2023 23:27 -1,7 C 0,6 C 93 % 1034,6 hPa 0,0 l/m 6,9 km/h (2 Bft) N-NO 19 0 min 0,0 UV-I 0 W/m -2,7 C -2,2 C 14,5 km/h (3 Bft)
22.01.2023 23:30 -1,7 C 0,0 C 94 % 1034,5 hPa 0,0 l/m 5,6 km/h (1 Bft) N 360 0 min 0,0 UV-I 0 W/m -2,5 C -1,7 C 8,0 km/h (2 Bft)
22.01.2023 23:33 -1,7 C 0,0 C 94 % 1034,5 hPa 0,0 l/m 5,6 km/h (1 Bft) N-NO 21 0 min 0,0 UV-I 0 W/m -2,5 C -1,7 C 8,0 km/h (2 Bft)
22.01.2023 23:36 -1,7 C 0,0 C 93 % 1034,5 hPa 0,0 l/m 4,9 km/h (1 Bft) N-NO 19 0 min 0,0 UV-I 0 W/m -2,7 C -1,7 C 8,0 km/h (2 Bft)
22.01.2023 23:39 -1,7 C 0,0 C 93 % 1034,4 hPa 0,0 l/m 6,5 km/h (2 Bft) N-NO 30 0 min 0,0 UV-I 0 W/m -2,7 C -1,8 C 11,3 km/h (2 Bft)
22.01.2023 23:42 -1,7 C 0,0 C 94 % 1034,5 hPa 0,0 l/m 7,2 km/h (2 Bft) N 360 0 min 0,0 UV-I 0 W/m -2,5 C -2,6 C 14,5 km/h (3 Bft)
22.01.2023 23:43 -1,7 C 0,0 C 93 % 1034,6 hPa 0,0 l/m 6,4 km/h (2 Bft) N 360 0 min 0,0 UV-I 0 W/m -2,7 C -1,7 C 8,0 km/h (2 Bft)
22.01.2023 23:44 -1,7 C 0,0 C 93 % 1034,5 hPa 0,0 l/m 8,0 km/h (2 Bft) N 360 0 min 0,0 UV-I 0 W/m -2,7 C -3,4 C 11,3 km/h (2 Bft)
22.01.2023 23:45 -1,7 C 0,6 C 93 % 1034,5 hPa 0,0 l/m 8,0 km/h (2 Bft) N 360 0 min 0,0 UV-I 0 W/m -2,7 C -3,4 C 9,7 km/h (2 Bft)
22.01.2023 23:48 -1,7 C 0,0 C 94 % 1034,5 hPa 0,0 l/m 7,1 km/h (2 Bft) N 5 0 min 0,0 UV-I 0 W/m -2,5 C -2,5 C 9,7 km/h (2 Bft)
22.01.2023 23:51 -1,7 C 0,6 C 93 % 1034,6 hPa 0,0 l/m 6,3 km/h (2 Bft) N 360 0 min 0,0 UV-I 0 W/m -2,7 C -1,7 C 8,0 km/h (2 Bft)
22.01.2023 23:54 -1,7 C 0,6 C 93 % 1034,5 hPa 0,0 l/m 9,1 km/h (2 Bft) N 360 0 min 0,0 UV-I 0 W/m -2,7 C -4,5 C 14,5 km/h (3 Bft)
22.01.2023 23:57 -1,7 C 0,6 C 93 % 1034,6 hPa 0,0 l/m 9,1 km/h (2 Bft) N 5 0 min 0,0 UV-I 0 W/m -2,7 C -4,5 C 14,5 km/h (3 Bft)
22.01.2023 23:58 -1,7 C 0,6 C 93 % 1034,5 hPa 0,0 l/m 8,0 km/h (2 Bft) N 360 0 min 0,0 UV-I 0 W/m -2,7 C -3,4 C 9,7 km/h (2 Bft)
22.01.2023 23:59 -1,7 C 0,6 C 93 % 1034,5 hPa 0,0 l/m 11,3 km/h (2 Bft) N 360 0 min 0,0 UV-I 0 W/m -2,7 C -6,4 C 14,5 km/h (3 Bft)
_ Min-Zeit 04:08 00:00 01:05 04:26 - 23:36 - - - - - 03:57 02:02 19:12
Minimum _ -3,1 C -2,8 C 88 % 1030,8 hPa - 4,9 km/h (1 Bft) - - - - - -4,3 C -17,5 C 8,0 km/h (2 Bft)
_ Max-Zeit 21:21 12:09 21:30 21:21 03:11 02:02 - - 00:00 12:06 12:03 21:30 23:43 02:02
Maximum _ -1,7 C 0,6 C 94 % 1034,7 hPa 0,2 l/m 32,2 km/h
N-NW (5 Bft)
- - 0 min 0,5 UV-I 100 W/m -2,5 C -1,7 C 41,8 km/h
N-NW (6 Bft)
Durchschnitt _ -2,4 C -0,2 C 92 % 1032,4 hPa #0,4 l/m 13,6 km/h (3 Bft) N - #0 min. 0,4 UV-I 50 W/m -3,5 C -8,6 C 19,3 km/h (3 Bft)